<?xml version="1.0" encoding="UTF-8"?>
<gpx version="1.0" creator="GPSBabel - https://www.gpsbabel.org" xmlns="http://www.topografix.com/GPX/1/0">
  <time>2021-11-17T20:21:49.263Z</time>
  <bounds minlat="35.076364670" minlon="-106.444694160" maxlat="35.099589690" maxlon="-106.440393580"/>
  <trk>
    <name>Three Gun Springs Hike.Pat.2019-03-29</name>
    <trkseg>
      <trkpt lat="35.076452690" lon="-106.444134450">
        <ele>1894.000</ele>
        <time>2019-03-29T15:22:42Z</time>
        <name>WPT</name>
      </trkpt>
      <trkpt lat="35.076468210" lon="-106.444180830">
        <ele>1895.000</ele>
        <time>2019-03-29T15:23:03Z</time>
        <name>WPT.1</name>
      </trkpt>
      <trkpt lat="35.076504290" lon="-106.444178590">
        <ele>1895.000</ele>
        <time>2019-03-29T15:23:09Z</time>
        <name>WPT.2</name>
      </trkpt>
      <trkpt lat="35.076543300" lon="-106.444186380">
        <ele>1895.000</ele>
        <time>2019-03-29T15:23:13Z</time>
        <name>WPT.3</name>
      </trkpt>
      <trkpt lat="35.076585800" lon="-106.444194330">
        <ele>1895.000</ele>
        <time>2019-03-29T15:23:17Z</time>
        <name>WPT.4</name>
      </trkpt>
      <trkpt lat="35.076618950" lon="-106.444221290">
        <ele>1896.000</ele>
        <time>2019-03-29T15:23:21Z</time>
        <name>WPT.5</name>
      </trkpt>
      <trkpt lat="35.076657390" lon="-106.444238750">
        <ele>1899.000</ele>
        <time>2019-03-29T15:23:25Z</time>
        <name>WPT.6</name>
      </trkpt>
      <trkpt lat="35.076694120" lon="-106.444237070">
        <ele>1900.000</ele>
        <time>2019-03-29T15:23:28Z</time>
        <name>WPT.7</name>
      </trkpt>
      <trkpt lat="35.076739470" lon="-106.444207710">
        <ele>1900.000</ele>
        <time>2019-03-29T15:23:32Z</time>
        <name>WPT.8</name>
      </trkpt>
      <trkpt lat="35.076777980" lon="-106.444198350">
        <ele>1899.000</ele>
        <time>2019-03-29T15:23:37Z</time>
        <name>WPT.9</name>
      </trkpt>
      <trkpt lat="35.076822050" lon="-106.444189630">
        <ele>1902.000</ele>
        <time>2019-03-29T15:23:41Z</time>
        <name>WPT.10</name>
      </trkpt>
      <trkpt lat="35.076865980" lon="-106.444192850">
        <ele>1905.000</ele>
        <time>2019-03-29T15:23:46Z</time>
        <name>WPT.11</name>
      </trkpt>
      <trkpt lat="35.076906830" lon="-106.444200660">
        <ele>1909.000</ele>
        <time>2019-03-29T15:23:51Z</time>
        <name>WPT.12</name>
      </trkpt>
      <trkpt lat="35.076943760" lon="-106.444207490">
        <ele>1910.000</ele>
        <time>2019-03-29T15:24:05Z</time>
        <name>WPT.13</name>
      </trkpt>
      <trkpt lat="35.076972390" lon="-106.444236010">
        <ele>1910.000</ele>
        <time>2019-03-29T15:24:08Z</time>
        <name>WPT.14</name>
      </trkpt>
      <trkpt lat="35.077007470" lon="-106.444258290">
        <ele>1910.000</ele>
        <time>2019-03-29T15:24:11Z</time>
        <name>WPT.15</name>
      </trkpt>
      <trkpt lat="35.077050630" lon="-106.444274360">
        <ele>1912.000</ele>
        <time>2019-03-29T15:24:15Z</time>
        <name>WPT.16</name>
      </trkpt>
      <trkpt lat="35.077097140" lon="-106.444282830">
        <ele>1912.000</ele>
        <time>2019-03-29T15:24:18Z</time>
        <name>WPT.17</name>
      </trkpt>
      <trkpt lat="35.077132170" lon="-106.444317900">
        <ele>1912.000</ele>
        <time>2019-03-29T15:24:21Z</time>
        <name>WPT.18</name>
      </trkpt>
      <trkpt lat="35.077171990" lon="-106.444349170">
        <ele>1913.000</ele>
        <time>2019-03-29T15:24:25Z</time>
        <name>WPT.19</name>
      </trkpt>
      <trkpt lat="35.077208650" lon="-106.444354730">
        <ele>1912.000</ele>
        <time>2019-03-29T15:24:28Z</time>
        <name>WPT.20</name>
      </trkpt>
      <trkpt lat="35.077247070" lon="-106.444341150">
        <ele>1911.000</ele>
        <time>2019-03-29T15:24:31Z</time>
        <name>WPT.21</name>
      </trkpt>
      <trkpt lat="35.077285730" lon="-106.444331050">
        <ele>1911.000</ele>
        <time>2019-03-29T15:24:34Z</time>
        <name>WPT.22</name>
      </trkpt>
      <trkpt lat="35.077326600" lon="-106.444332300">
        <ele>1912.000</ele>
        <time>2019-03-29T15:24:38Z</time>
        <name>WPT.23</name>
      </trkpt>
      <trkpt lat="35.077364700" lon="-106.444300410">
        <ele>1912.000</ele>
        <time>2019-03-29T15:24:42Z</time>
        <name>WPT.24</name>
      </trkpt>
      <trkpt lat="35.077407560" lon="-106.444297300">
        <ele>1913.000</ele>
        <time>2019-03-29T15:24:46Z</time>
        <name>WPT.25</name>
      </trkpt>
      <trkpt lat="35.077430450" lon="-106.444341460">
        <ele>1914.000</ele>
        <time>2019-03-29T15:24:50Z</time>
        <name>WPT.26</name>
      </trkpt>
      <trkpt lat="35.077444710" lon="-106.444390550">
        <ele>1916.000</ele>
        <time>2019-03-29T15:24:55Z</time>
        <name>WPT.27</name>
      </trkpt>
      <trkpt lat="35.077479340" lon="-106.444417190">
        <ele>1917.000</ele>
        <time>2019-03-29T15:25:05Z</time>
        <name>WPT.28</name>
      </trkpt>
      <trkpt lat="35.077510260" lon="-106.444454700">
        <ele>1919.000</ele>
        <time>2019-03-29T15:25:09Z</time>
        <name>WPT.29</name>
      </trkpt>
      <trkpt lat="35.077544070" lon="-106.444472620">
        <ele>1920.000</ele>
        <time>2019-03-29T15:25:14Z</time>
        <name>WPT.30</name>
      </trkpt>
      <trkpt lat="35.077579830" lon="-106.444493310">
        <ele>1920.000</ele>
        <time>2019-03-29T15:25:19Z</time>
        <name>WPT.31</name>
      </trkpt>
      <trkpt lat="35.077604880" lon="-106.444525820">
        <ele>1921.000</ele>
        <time>2019-03-29T15:25:22Z</time>
        <name>WPT.32</name>
      </trkpt>
      <trkpt lat="35.077642220" lon="-106.444555800">
        <ele>1922.000</ele>
        <time>2019-03-29T15:25:26Z</time>
        <name>WPT.33</name>
      </trkpt>
      <trkpt lat="35.077669820" lon="-106.444592000">
        <ele>1923.000</ele>
        <time>2019-03-29T15:25:30Z</time>
        <name>WPT.34</name>
      </trkpt>
      <trkpt lat="35.077701510" lon="-106.444624300">
        <ele>1923.000</ele>
        <time>2019-03-29T15:25:35Z</time>
        <name>WPT.35</name>
      </trkpt>
      <trkpt lat="35.077722680" lon="-106.444666410">
        <ele>1925.000</ele>
        <time>2019-03-29T15:25:38Z</time>
        <name>WPT.36</name>
      </trkpt>
      <trkpt lat="35.077767880" lon="-106.444684250">
        <ele>1924.000</ele>
        <time>2019-03-29T15:25:41Z</time>
        <name>WPT.37</name>
      </trkpt>
      <trkpt lat="35.077809560" lon="-106.444694160">
        <ele>1926.000</ele>
        <time>2019-03-29T15:25:44Z</time>
        <name>WPT.38</name>
      </trkpt>
      <trkpt lat="35.077854020" lon="-106.444678350">
        <ele>1925.000</ele>
        <time>2019-03-29T15:25:48Z</time>
        <name>WPT.39</name>
      </trkpt>
      <trkpt lat="35.077891910" lon="-106.444663800">
        <ele>1925.000</ele>
        <time>2019-03-29T15:25:51Z</time>
        <name>WPT.40</name>
      </trkpt>
      <trkpt lat="35.077930160" lon="-106.444654780">
        <ele>1926.000</ele>
        <time>2019-03-29T15:25:55Z</time>
        <name>WPT.41</name>
      </trkpt>
      <trkpt lat="35.077973970" lon="-106.444638800">
        <ele>1925.000</ele>
        <time>2019-03-29T15:26:00Z</time>
        <name>WPT.42</name>
      </trkpt>
      <trkpt lat="35.078012570" lon="-106.444630760">
        <ele>1925.000</ele>
        <time>2019-03-29T15:26:04Z</time>
        <name>WPT.43</name>
      </trkpt>
      <trkpt lat="35.078054740" lon="-106.444603150">
        <ele>1926.000</ele>
        <time>2019-03-29T15:26:08Z</time>
        <name>WPT.44</name>
      </trkpt>
      <trkpt lat="35.078092820" lon="-106.444596840">
        <ele>1926.000</ele>
        <time>2019-03-29T15:26:11Z</time>
        <name>WPT.45</name>
      </trkpt>
      <trkpt lat="35.078132770" lon="-106.444587910">
        <ele>1927.000</ele>
        <time>2019-03-29T15:26:16Z</time>
        <name>WPT.46</name>
      </trkpt>
      <trkpt lat="35.078172870" lon="-106.444566510">
        <ele>1927.000</ele>
        <time>2019-03-29T15:26:20Z</time>
        <name>WPT.47</name>
      </trkpt>
      <trkpt lat="35.078223360" lon="-106.444575710">
        <ele>1929.000</ele>
        <time>2019-03-29T15:26:25Z</time>
        <name>WPT.48</name>
      </trkpt>
      <trkpt lat="35.078259470" lon="-106.444575190">
        <ele>1928.000</ele>
        <time>2019-03-29T15:26:28Z</time>
        <name>WPT.49</name>
      </trkpt>
      <trkpt lat="35.078312270" lon="-106.444582600">
        <ele>1927.000</ele>
        <time>2019-03-29T15:26:32Z</time>
        <name>WPT.50</name>
      </trkpt>
      <trkpt lat="35.078354160" lon="-106.444590590">
        <ele>1928.000</ele>
        <time>2019-03-29T15:26:36Z</time>
        <name>WPT.51</name>
      </trkpt>
      <trkpt lat="35.078392790" lon="-106.444575500">
        <ele>1929.000</ele>
        <time>2019-03-29T15:26:41Z</time>
        <name>WPT.52</name>
      </trkpt>
      <trkpt lat="35.078432820" lon="-106.444581020">
        <ele>1929.000</ele>
        <time>2019-03-29T15:26:44Z</time>
        <name>WPT.53</name>
      </trkpt>
      <trkpt lat="35.078473740" lon="-106.444568960">
        <ele>1930.000</ele>
        <time>2019-03-29T15:26:49Z</time>
        <name>WPT.54</name>
      </trkpt>
      <trkpt lat="35.078521200" lon="-106.444572170">
        <ele>1930.000</ele>
        <time>2019-03-29T15:26:52Z</time>
        <name>WPT.55</name>
      </trkpt>
      <trkpt lat="35.078563840" lon="-106.444561980">
        <ele>1931.000</ele>
        <time>2019-03-29T15:26:56Z</time>
        <name>WPT.56</name>
      </trkpt>
      <trkpt lat="35.078602840" lon="-106.444545700">
        <ele>1932.000</ele>
        <time>2019-03-29T15:27:00Z</time>
        <name>WPT.57</name>
      </trkpt>
      <trkpt lat="35.078646040" lon="-106.444543060">
        <ele>1931.000</ele>
        <time>2019-03-29T15:27:04Z</time>
        <name>WPT.58</name>
      </trkpt>
      <trkpt lat="35.078690820" lon="-106.444546970">
        <ele>1933.000</ele>
        <time>2019-03-29T15:27:08Z</time>
        <name>WPT.59</name>
      </trkpt>
      <trkpt lat="35.078728170" lon="-106.444553010">
        <ele>1932.000</ele>
        <time>2019-03-29T15:27:12Z</time>
        <name>WPT.60</name>
      </trkpt>
      <trkpt lat="35.078765310" lon="-106.444551110">
        <ele>1931.000</ele>
        <time>2019-03-29T15:27:16Z</time>
        <name>WPT.61</name>
      </trkpt>
      <trkpt lat="35.078802760" lon="-106.444556430">
        <ele>1933.000</ele>
        <time>2019-03-29T15:27:20Z</time>
        <name>WPT.62</name>
      </trkpt>
      <trkpt lat="35.078844120" lon="-106.444554010">
        <ele>1935.000</ele>
        <time>2019-03-29T15:27:25Z</time>
        <name>WPT.63</name>
      </trkpt>
      <trkpt lat="35.078885220" lon="-106.444554380">
        <ele>1936.000</ele>
        <time>2019-03-29T15:27:29Z</time>
        <name>WPT.64</name>
      </trkpt>
      <trkpt lat="35.078922150" lon="-106.444555640">
        <ele>1937.000</ele>
        <time>2019-03-29T15:27:33Z</time>
        <name>WPT.65</name>
      </trkpt>
      <trkpt lat="35.078953300" lon="-106.444524110">
        <ele>1937.000</ele>
        <time>2019-03-29T15:27:40Z</time>
        <name>WPT.66</name>
      </trkpt>
      <trkpt lat="35.078990620" lon="-106.444520780">
        <ele>1938.000</ele>
        <time>2019-03-29T15:27:43Z</time>
        <name>WPT.67</name>
      </trkpt>
      <trkpt lat="35.079029690" lon="-106.444498340">
        <ele>1939.000</ele>
        <time>2019-03-29T15:27:48Z</time>
        <name>WPT.68</name>
      </trkpt>
      <trkpt lat="35.079066620" lon="-106.444478000">
        <ele>1937.000</ele>
        <time>2019-03-29T15:27:52Z</time>
        <name>WPT.69</name>
      </trkpt>
      <trkpt lat="35.079108880" lon="-106.444461270">
        <ele>1940.000</ele>
        <time>2019-03-29T15:27:58Z</time>
        <name>WPT.70</name>
      </trkpt>
      <trkpt lat="35.079144510" lon="-106.444445440">
        <ele>1941.000</ele>
        <time>2019-03-29T15:28:02Z</time>
        <name>WPT.71</name>
      </trkpt>
      <trkpt lat="35.079170100" lon="-106.444414470">
        <ele>1941.000</ele>
        <time>2019-03-29T15:28:07Z</time>
        <name>WPT.72</name>
      </trkpt>
      <trkpt lat="35.079201260" lon="-106.444391160">
        <ele>1939.000</ele>
        <time>2019-03-29T15:28:11Z</time>
        <name>WPT.73</name>
      </trkpt>
      <trkpt lat="35.079252590" lon="-106.444383540">
        <ele>1941.000</ele>
        <time>2019-03-29T15:28:18Z</time>
        <name>WPT.74</name>
      </trkpt>
      <trkpt lat="35.079294570" lon="-106.444391130">
        <ele>1939.000</ele>
        <time>2019-03-29T15:28:22Z</time>
        <name>WPT.75</name>
      </trkpt>
      <trkpt lat="35.079329920" lon="-106.444377760">
        <ele>1939.000</ele>
        <time>2019-03-29T15:28:26Z</time>
        <name>WPT.76</name>
      </trkpt>
      <trkpt lat="35.079366320" lon="-106.444385730">
        <ele>1942.000</ele>
        <time>2019-03-29T15:28:32Z</time>
        <name>WPT.77</name>
      </trkpt>
      <trkpt lat="35.079406310" lon="-106.444418880">
        <ele>1941.000</ele>
        <time>2019-03-29T15:28:37Z</time>
        <name>WPT.78</name>
      </trkpt>
      <trkpt lat="35.079442180" lon="-106.444431770">
        <ele>1942.000</ele>
        <time>2019-03-29T15:28:43Z</time>
        <name>WPT.79</name>
      </trkpt>
      <trkpt lat="35.079478310" lon="-106.444448170">
        <ele>1943.000</ele>
        <time>2019-03-29T15:28:49Z</time>
        <name>WPT.80</name>
      </trkpt>
      <trkpt lat="35.079506080" lon="-106.444480520">
        <ele>1945.000</ele>
        <time>2019-03-29T15:28:55Z</time>
        <name>WPT.81</name>
      </trkpt>
      <trkpt lat="35.079544670" lon="-106.444471050">
        <ele>1944.000</ele>
        <time>2019-03-29T15:28:58Z</time>
        <name>WPT.82</name>
      </trkpt>
      <trkpt lat="35.079582870" lon="-106.444462920">
        <ele>1944.000</ele>
        <time>2019-03-29T15:29:02Z</time>
        <name>WPT.83</name>
      </trkpt>
      <trkpt lat="35.079622450" lon="-106.444447200">
        <ele>1945.000</ele>
        <time>2019-03-29T15:29:07Z</time>
        <name>WPT.84</name>
      </trkpt>
      <trkpt lat="35.079661010" lon="-106.444452520">
        <ele>1945.000</ele>
        <time>2019-03-29T15:29:10Z</time>
        <name>WPT.85</name>
      </trkpt>
      <trkpt lat="35.079702190" lon="-106.444463020">
        <ele>1945.000</ele>
        <time>2019-03-29T15:29:14Z</time>
        <name>WPT.86</name>
      </trkpt>
      <trkpt lat="35.079739580" lon="-106.444450390">
        <ele>1944.000</ele>
        <time>2019-03-29T15:29:18Z</time>
        <name>WPT.87</name>
      </trkpt>
      <trkpt lat="35.079779800" lon="-106.444433650">
        <ele>1945.000</ele>
        <time>2019-03-29T15:29:24Z</time>
        <name>WPT.88</name>
      </trkpt>
      <trkpt lat="35.079815100" lon="-106.444408020">
        <ele>1944.000</ele>
        <time>2019-03-29T15:29:29Z</time>
        <name>WPT.89</name>
      </trkpt>
      <trkpt lat="35.079856560" lon="-106.444408360">
        <ele>1943.000</ele>
        <time>2019-03-29T15:29:33Z</time>
        <name>WPT.90</name>
      </trkpt>
      <trkpt lat="35.079895870" lon="-106.444387120">
        <ele>1944.000</ele>
        <time>2019-03-29T15:29:37Z</time>
        <name>WPT.91</name>
      </trkpt>
      <trkpt lat="35.079942010" lon="-106.444381460">
        <ele>1943.000</ele>
        <time>2019-03-29T15:29:41Z</time>
        <name>WPT.92</name>
      </trkpt>
      <trkpt lat="35.079976690" lon="-106.444362930">
        <ele>1944.000</ele>
        <time>2019-03-29T15:29:45Z</time>
        <name>WPT.93</name>
      </trkpt>
      <trkpt lat="35.080020730" lon="-106.444360060">
        <ele>1944.000</ele>
        <time>2019-03-29T15:29:49Z</time>
        <name>WPT.94</name>
      </trkpt>
      <trkpt lat="35.080058180" lon="-106.444345730">
        <ele>1945.000</ele>
        <time>2019-03-29T15:29:53Z</time>
        <name>WPT.95</name>
      </trkpt>
      <trkpt lat="35.080089910" lon="-106.444319050">
        <ele>1944.000</ele>
        <time>2019-03-29T15:29:58Z</time>
        <name>WPT.96</name>
      </trkpt>
      <trkpt lat="35.080130630" lon="-106.444296850">
        <ele>1943.000</ele>
        <time>2019-03-29T15:30:03Z</time>
        <name>WPT.97</name>
      </trkpt>
      <trkpt lat="35.080168390" lon="-106.444280820">
        <ele>1943.000</ele>
        <time>2019-03-29T15:30:07Z</time>
        <name>WPT.98</name>
      </trkpt>
      <trkpt lat="35.080202070" lon="-106.444252530">
        <ele>1941.000</ele>
        <time>2019-03-29T15:30:13Z</time>
        <name>WPT.99</name>
      </trkpt>
      <trkpt lat="35.080239480" lon="-106.444243510">
        <ele>1941.000</ele>
        <time>2019-03-29T15:30:17Z</time>
        <name>WPT.100</name>
      </trkpt>
      <trkpt lat="35.080274200" lon="-106.444216390">
        <ele>1943.000</ele>
        <time>2019-03-29T15:30:21Z</time>
        <name>WPT.101</name>
      </trkpt>
      <trkpt lat="35.080310630" lon="-106.444201360">
        <ele>1946.000</ele>
        <time>2019-03-29T15:30:24Z</time>
        <name>WPT.102</name>
      </trkpt>
      <trkpt lat="35.080347450" lon="-106.444171780">
        <ele>1940.000</ele>
        <time>2019-03-29T15:30:31Z</time>
        <name>WPT.103</name>
      </trkpt>
      <trkpt lat="35.080378410" lon="-106.444141620">
        <ele>1940.000</ele>
        <time>2019-03-29T15:30:35Z</time>
        <name>WPT.104</name>
      </trkpt>
      <trkpt lat="35.080409770" lon="-106.444108810">
        <ele>1939.000</ele>
        <time>2019-03-29T15:30:39Z</time>
        <name>WPT.105</name>
      </trkpt>
      <trkpt lat="35.080439560" lon="-106.444077040">
        <ele>1940.000</ele>
        <time>2019-03-29T15:30:42Z</time>
        <name>WPT.106</name>
      </trkpt>
      <trkpt lat="35.080477290" lon="-106.444052140">
        <ele>1941.000</ele>
        <time>2019-03-29T15:30:46Z</time>
        <name>WPT.107</name>
      </trkpt>
      <trkpt lat="35.080511310" lon="-106.444011900">
        <ele>1941.000</ele>
        <time>2019-03-29T15:30:52Z</time>
        <name>WPT.108</name>
      </trkpt>
      <trkpt lat="35.080539800" lon="-106.443979340">
        <ele>1941.000</ele>
        <time>2019-03-29T15:30:56Z</time>
        <name>WPT.109</name>
      </trkpt>
      <trkpt lat="35.080568190" lon="-106.443939830">
        <ele>1939.000</ele>
        <time>2019-03-29T15:31:04Z</time>
        <name>WPT.110</name>
      </trkpt>
      <trkpt lat="35.080609860" lon="-106.443915390">
        <ele>1939.000</ele>
        <time>2019-03-29T15:31:09Z</time>
        <name>WPT.111</name>
      </trkpt>
      <trkpt lat="35.080644520" lon="-106.443894510">
        <ele>1938.000</ele>
        <time>2019-03-29T15:31:14Z</time>
        <name>WPT.112</name>
      </trkpt>
      <trkpt lat="35.080680690" lon="-106.443871000">
        <ele>1938.000</ele>
        <time>2019-03-29T15:31:19Z</time>
        <name>WPT.113</name>
      </trkpt>
      <trkpt lat="35.080725400" lon="-106.443858060">
        <ele>1939.000</ele>
        <time>2019-03-29T15:31:24Z</time>
        <name>WPT.114</name>
      </trkpt>
      <trkpt lat="35.080765940" lon="-106.443840450">
        <ele>1942.000</ele>
        <time>2019-03-29T15:31:28Z</time>
        <name>WPT.115</name>
      </trkpt>
      <trkpt lat="35.080810850" lon="-106.443845540">
        <ele>1941.000</ele>
        <time>2019-03-29T15:31:33Z</time>
        <name>WPT.116</name>
      </trkpt>
      <trkpt lat="35.080851030" lon="-106.443840060">
        <ele>1944.000</ele>
        <time>2019-03-29T15:31:37Z</time>
        <name>WPT.117</name>
      </trkpt>
      <trkpt lat="35.080888970" lon="-106.443839980">
        <ele>1944.000</ele>
        <time>2019-03-29T15:31:41Z</time>
        <name>WPT.118</name>
      </trkpt>
      <trkpt lat="35.080926560" lon="-106.443831770">
        <ele>1945.000</ele>
        <time>2019-03-29T15:31:45Z</time>
        <name>WPT.119</name>
      </trkpt>
      <trkpt lat="35.080974870" lon="-106.443823780">
        <ele>1945.000</ele>
        <time>2019-03-29T15:31:50Z</time>
        <name>WPT.120</name>
      </trkpt>
      <trkpt lat="35.081012290" lon="-106.443822850">
        <ele>1946.000</ele>
        <time>2019-03-29T15:31:54Z</time>
        <name>WPT.121</name>
      </trkpt>
      <trkpt lat="35.081060630" lon="-106.443822770">
        <ele>1946.000</ele>
        <time>2019-03-29T15:31:58Z</time>
        <name>WPT.122</name>
      </trkpt>
      <trkpt lat="35.081099230" lon="-106.443822520">
        <ele>1946.000</ele>
        <time>2019-03-29T15:32:02Z</time>
        <name>WPT.123</name>
      </trkpt>
      <trkpt lat="35.081131430" lon="-106.443791030">
        <ele>1947.000</ele>
        <time>2019-03-29T15:32:07Z</time>
        <name>WPT.124</name>
      </trkpt>
      <trkpt lat="35.081163110" lon="-106.443767310">
        <ele>1948.000</ele>
        <time>2019-03-29T15:32:11Z</time>
        <name>WPT.125</name>
      </trkpt>
      <trkpt lat="35.081196920" lon="-106.443749700">
        <ele>1949.000</ele>
        <time>2019-03-29T15:32:15Z</time>
        <name>WPT.126</name>
      </trkpt>
      <trkpt lat="35.081229780" lon="-106.443724930">
        <ele>1951.000</ele>
        <time>2019-03-29T15:32:20Z</time>
        <name>WPT.127</name>
      </trkpt>
      <trkpt lat="35.081271960" lon="-106.443714430">
        <ele>1952.000</ele>
        <time>2019-03-29T15:32:26Z</time>
        <name>WPT.128</name>
      </trkpt>
      <trkpt lat="35.081305030" lon="-106.443693950">
        <ele>1953.000</ele>
        <time>2019-03-29T15:32:30Z</time>
        <name>WPT.129</name>
      </trkpt>
      <trkpt lat="35.081334530" lon="-106.443664800">
        <ele>1953.000</ele>
        <time>2019-03-29T15:32:34Z</time>
        <name>WPT.130</name>
      </trkpt>
      <trkpt lat="35.081368850" lon="-106.443636860">
        <ele>1954.000</ele>
        <time>2019-03-29T15:32:39Z</time>
        <name>WPT.131</name>
      </trkpt>
      <trkpt lat="35.081410260" lon="-106.443609640">
        <ele>1953.000</ele>
        <time>2019-03-29T15:32:46Z</time>
        <name>WPT.132</name>
      </trkpt>
      <trkpt lat="35.081431350" lon="-106.443571090">
        <ele>1952.000</ele>
        <time>2019-03-29T15:32:51Z</time>
        <name>WPT.133</name>
      </trkpt>
      <trkpt lat="35.081463730" lon="-106.443541370">
        <ele>1951.000</ele>
        <time>2019-03-29T15:32:56Z</time>
        <name>WPT.134</name>
      </trkpt>
      <trkpt lat="35.081505520" lon="-106.443509810">
        <ele>1953.000</ele>
        <time>2019-03-29T15:33:00Z</time>
        <name>WPT.135</name>
      </trkpt>
      <trkpt lat="35.081544920" lon="-106.443514260">
        <ele>1953.000</ele>
        <time>2019-03-29T15:33:04Z</time>
        <name>WPT.136</name>
      </trkpt>
      <trkpt lat="35.081587740" lon="-106.443508870">
        <ele>1955.000</ele>
        <time>2019-03-29T15:33:10Z</time>
        <name>WPT.137</name>
      </trkpt>
      <trkpt lat="35.081628780" lon="-106.443502940">
        <ele>1956.000</ele>
        <time>2019-03-29T15:33:15Z</time>
        <name>WPT.138</name>
      </trkpt>
      <trkpt lat="35.081670670" lon="-106.443497260">
        <ele>1956.000</ele>
        <time>2019-03-29T15:33:21Z</time>
        <name>WPT.139</name>
      </trkpt>
      <trkpt lat="35.081713310" lon="-106.443520120">
        <ele>1956.000</ele>
        <time>2019-03-29T15:33:25Z</time>
        <name>WPT.140</name>
      </trkpt>
      <trkpt lat="35.081763160" lon="-106.443547530">
        <ele>1955.000</ele>
        <time>2019-03-29T15:33:29Z</time>
        <name>WPT.141</name>
      </trkpt>
      <trkpt lat="35.081796770" lon="-106.443529620">
        <ele>1956.000</ele>
        <time>2019-03-29T15:33:33Z</time>
        <name>WPT.142</name>
      </trkpt>
      <trkpt lat="35.081840330" lon="-106.443520450">
        <ele>1958.000</ele>
        <time>2019-03-29T15:33:38Z</time>
        <name>WPT.143</name>
      </trkpt>
      <trkpt lat="35.081878260" lon="-106.443533890">
        <ele>1958.000</ele>
        <time>2019-03-29T15:33:42Z</time>
        <name>WPT.144</name>
      </trkpt>
      <trkpt lat="35.081919490" lon="-106.443543240">
        <ele>1957.000</ele>
        <time>2019-03-29T15:33:48Z</time>
        <name>WPT.145</name>
      </trkpt>
      <trkpt lat="35.081960670" lon="-106.443528960">
        <ele>1956.000</ele>
        <time>2019-03-29T15:33:52Z</time>
        <name>WPT.146</name>
      </trkpt>
      <trkpt lat="35.081997880" lon="-106.443518210">
        <ele>1958.000</ele>
        <time>2019-03-29T15:33:58Z</time>
        <name>WPT.147</name>
      </trkpt>
      <trkpt lat="35.082034470" lon="-106.443522170">
        <ele>1960.000</ele>
        <time>2019-03-29T15:34:05Z</time>
        <name>WPT.148</name>
      </trkpt>
      <trkpt lat="35.082070570" lon="-106.443533060">
        <ele>1958.000</ele>
        <time>2019-03-29T15:34:09Z</time>
        <name>WPT.149</name>
      </trkpt>
      <trkpt lat="35.082113140" lon="-106.443536140">
        <ele>1959.000</ele>
        <time>2019-03-29T15:34:16Z</time>
        <name>WPT.150</name>
      </trkpt>
      <trkpt lat="35.082149500" lon="-106.443530990">
        <ele>1961.000</ele>
        <time>2019-03-29T15:34:21Z</time>
        <name>WPT.151</name>
      </trkpt>
      <trkpt lat="35.082185410" lon="-106.443508410">
        <ele>1960.000</ele>
        <time>2019-03-29T15:34:26Z</time>
        <name>WPT.152</name>
      </trkpt>
      <trkpt lat="35.082222410" lon="-106.443488020">
        <ele>1961.000</ele>
        <time>2019-03-29T15:34:30Z</time>
        <name>WPT.153</name>
      </trkpt>
      <trkpt lat="35.082255810" lon="-106.443511920">
        <ele>1962.000</ele>
        <time>2019-03-29T15:34:40Z</time>
        <name>WPT.154</name>
      </trkpt>
      <trkpt lat="35.082288300" lon="-106.443533770">
        <ele>1963.000</ele>
        <time>2019-03-29T15:34:44Z</time>
        <name>WPT.155</name>
      </trkpt>
      <trkpt lat="35.082325980" lon="-106.443552870">
        <ele>1964.000</ele>
        <time>2019-03-29T15:34:50Z</time>
        <name>WPT.156</name>
      </trkpt>
      <trkpt lat="35.082357820" lon="-106.443578270">
        <ele>1962.000</ele>
        <time>2019-03-29T15:34:54Z</time>
        <name>WPT.157</name>
      </trkpt>
      <trkpt lat="35.082391470" lon="-106.443599740">
        <ele>1964.000</ele>
        <time>2019-03-29T15:34:59Z</time>
        <name>WPT.158</name>
      </trkpt>
      <trkpt lat="35.082431550" lon="-106.443598920">
        <ele>1964.000</ele>
        <time>2019-03-29T15:35:03Z</time>
        <name>WPT.159</name>
      </trkpt>
      <trkpt lat="35.082467010" lon="-106.443609330">
        <ele>1963.000</ele>
        <time>2019-03-29T15:35:11Z</time>
        <name>WPT.160</name>
      </trkpt>
      <trkpt lat="35.082505150" lon="-106.443619100">
        <ele>1964.000</ele>
        <time>2019-03-29T15:35:18Z</time>
        <name>WPT.161</name>
      </trkpt>
      <trkpt lat="35.082545170" lon="-106.443642460">
        <ele>1965.000</ele>
        <time>2019-03-29T15:35:22Z</time>
        <name>WPT.162</name>
      </trkpt>
      <trkpt lat="35.082582350" lon="-106.443648390">
        <ele>1964.000</ele>
        <time>2019-03-29T15:35:29Z</time>
        <name>WPT.163</name>
      </trkpt>
      <trkpt lat="35.082621320" lon="-106.443649610">
        <ele>1964.000</ele>
        <time>2019-03-29T15:35:32Z</time>
        <name>WPT.164</name>
      </trkpt>
      <trkpt lat="35.082652240" lon="-106.443622250">
        <ele>1970.000</ele>
        <time>2019-03-29T15:35:53Z</time>
        <name>WPT.165</name>
      </trkpt>
      <trkpt lat="35.082679860" lon="-106.443655370">
        <ele>1968.000</ele>
        <time>2019-03-29T15:36:02Z</time>
        <name>WPT.166</name>
      </trkpt>
      <trkpt lat="35.082708460" lon="-106.443686070">
        <ele>1964.000</ele>
        <time>2019-03-29T15:36:06Z</time>
        <name>WPT.167</name>
      </trkpt>
      <trkpt lat="35.082748900" lon="-106.443690610">
        <ele>1964.000</ele>
        <time>2019-03-29T15:36:12Z</time>
        <name>WPT.168</name>
      </trkpt>
      <trkpt lat="35.082781310" lon="-106.443662350">
        <ele>1963.000</ele>
        <time>2019-03-29T15:36:15Z</time>
        <name>WPT.169</name>
      </trkpt>
      <trkpt lat="35.082819690" lon="-106.443645500">
        <ele>1962.000</ele>
        <time>2019-03-29T15:36:18Z</time>
        <name>WPT.170</name>
      </trkpt>
      <trkpt lat="35.082857520" lon="-106.443636900">
        <ele>1964.000</ele>
        <time>2019-03-29T15:36:23Z</time>
        <name>WPT.171</name>
      </trkpt>
      <trkpt lat="35.082894230" lon="-106.443631780">
        <ele>1963.000</ele>
        <time>2019-03-29T15:36:27Z</time>
        <name>WPT.172</name>
      </trkpt>
      <trkpt lat="35.082929250" lon="-106.443609390">
        <ele>1965.000</ele>
        <time>2019-03-29T15:36:32Z</time>
        <name>WPT.173</name>
      </trkpt>
      <trkpt lat="35.082938740" lon="-106.443563500">
        <ele>1967.000</ele>
        <time>2019-03-29T15:36:35Z</time>
        <name>WPT.174</name>
      </trkpt>
      <trkpt lat="35.082970500" lon="-106.443539570">
        <ele>1968.000</ele>
        <time>2019-03-29T15:36:38Z</time>
        <name>WPT.175</name>
      </trkpt>
      <trkpt lat="35.083007110" lon="-106.443530630">
        <ele>1970.000</ele>
        <time>2019-03-29T15:36:49Z</time>
        <name>WPT.176</name>
      </trkpt>
      <trkpt lat="35.083044820" lon="-106.443506390">
        <ele>1970.000</ele>
        <time>2019-03-29T15:37:03Z</time>
        <name>WPT.177</name>
      </trkpt>
      <trkpt lat="35.083084300" lon="-106.443498300">
        <ele>1970.000</ele>
        <time>2019-03-29T15:37:07Z</time>
        <name>WPT.178</name>
      </trkpt>
      <trkpt lat="35.083117260" lon="-106.443469120">
        <ele>1972.000</ele>
        <time>2019-03-29T15:37:12Z</time>
        <name>WPT.179</name>
      </trkpt>
      <trkpt lat="35.083155470" lon="-106.443448590">
        <ele>1977.000</ele>
        <time>2019-03-29T15:37:15Z</time>
        <name>WPT.180</name>
      </trkpt>
      <trkpt lat="35.083191230" lon="-106.443438890">
        <ele>1975.000</ele>
        <time>2019-03-29T15:37:21Z</time>
        <name>WPT.181</name>
      </trkpt>
      <trkpt lat="35.083228900" lon="-106.443417320">
        <ele>1974.000</ele>
        <time>2019-03-29T15:37:25Z</time>
        <name>WPT.182</name>
      </trkpt>
      <trkpt lat="35.083265680" lon="-106.443386450">
        <ele>1975.000</ele>
        <time>2019-03-29T15:37:29Z</time>
        <name>WPT.183</name>
      </trkpt>
      <trkpt lat="35.083304970" lon="-106.443359910">
        <ele>1978.000</ele>
        <time>2019-03-29T15:37:33Z</time>
        <name>WPT.184</name>
      </trkpt>
      <trkpt lat="35.083337170" lon="-106.443323630">
        <ele>1979.000</ele>
        <time>2019-03-29T15:37:36Z</time>
        <name>WPT.185</name>
      </trkpt>
      <trkpt lat="35.083369240" lon="-106.443295850">
        <ele>1980.000</ele>
        <time>2019-03-29T15:37:40Z</time>
        <name>WPT.186</name>
      </trkpt>
      <trkpt lat="35.083402110" lon="-106.443274480">
        <ele>1979.000</ele>
        <time>2019-03-29T15:37:45Z</time>
        <name>WPT.187</name>
      </trkpt>
      <trkpt lat="35.083432400" lon="-106.443244460">
        <ele>1978.000</ele>
        <time>2019-03-29T15:37:49Z</time>
        <name>WPT.188</name>
      </trkpt>
      <trkpt lat="35.083470780" lon="-106.443223550">
        <ele>1979.000</ele>
        <time>2019-03-29T15:37:54Z</time>
        <name>WPT.189</name>
      </trkpt>
      <trkpt lat="35.083507480" lon="-106.443194290">
        <ele>1981.000</ele>
        <time>2019-03-29T15:37:58Z</time>
        <name>WPT.190</name>
      </trkpt>
      <trkpt lat="35.083537120" lon="-106.443165430">
        <ele>1982.000</ele>
        <time>2019-03-29T15:38:02Z</time>
        <name>WPT.191</name>
      </trkpt>
      <trkpt lat="35.083567470" lon="-106.443136970">
        <ele>1982.000</ele>
        <time>2019-03-29T15:38:06Z</time>
        <name>WPT.192</name>
      </trkpt>
      <trkpt lat="35.083605150" lon="-106.443113980">
        <ele>1984.000</ele>
        <time>2019-03-29T15:38:10Z</time>
        <name>WPT.193</name>
      </trkpt>
      <trkpt lat="35.083643770" lon="-106.443092360">
        <ele>1985.000</ele>
        <time>2019-03-29T15:38:16Z</time>
        <name>WPT.194</name>
      </trkpt>
      <trkpt lat="35.083671230" lon="-106.443056580">
        <ele>1985.000</ele>
        <time>2019-03-29T15:38:21Z</time>
        <name>WPT.195</name>
      </trkpt>
      <trkpt lat="35.083706830" lon="-106.443038460">
        <ele>1985.000</ele>
        <time>2019-03-29T15:38:25Z</time>
        <name>WPT.196</name>
      </trkpt>
      <trkpt lat="35.083749560" lon="-106.443022780">
        <ele>1985.000</ele>
        <time>2019-03-29T15:38:30Z</time>
        <name>WPT.197</name>
      </trkpt>
      <trkpt lat="35.083786160" lon="-106.443029720">
        <ele>1986.000</ele>
        <time>2019-03-29T15:38:35Z</time>
        <name>WPT.198</name>
      </trkpt>
      <trkpt lat="35.083828480" lon="-106.443039460">
        <ele>1987.000</ele>
        <time>2019-03-29T15:38:41Z</time>
        <name>WPT.199</name>
      </trkpt>
      <trkpt lat="35.083867980" lon="-106.443024730">
        <ele>1986.000</ele>
        <time>2019-03-29T15:38:47Z</time>
        <name>WPT.200</name>
      </trkpt>
      <trkpt lat="35.083904710" lon="-106.443013150">
        <ele>1987.000</ele>
        <time>2019-03-29T15:38:51Z</time>
        <name>WPT.201</name>
      </trkpt>
      <trkpt lat="35.083938740" lon="-106.442992700">
        <ele>1985.000</ele>
        <time>2019-03-29T15:38:56Z</time>
        <name>WPT.202</name>
      </trkpt>
      <trkpt lat="35.083986850" lon="-106.442988630">
        <ele>1987.000</ele>
        <time>2019-03-29T15:39:02Z</time>
        <name>WPT.203</name>
      </trkpt>
      <trkpt lat="35.084026870" lon="-106.442958040">
        <ele>1987.000</ele>
        <time>2019-03-29T15:39:06Z</time>
        <name>WPT.204</name>
      </trkpt>
      <trkpt lat="35.084062480" lon="-106.442940060">
        <ele>1987.000</ele>
        <time>2019-03-29T15:39:11Z</time>
        <name>WPT.205</name>
      </trkpt>
      <trkpt lat="35.084098780" lon="-106.442948200">
        <ele>1989.000</ele>
        <time>2019-03-29T15:39:15Z</time>
        <name>WPT.206</name>
      </trkpt>
      <trkpt lat="35.084142300" lon="-106.442948170">
        <ele>1990.000</ele>
        <time>2019-03-29T15:39:19Z</time>
        <name>WPT.207</name>
      </trkpt>
      <trkpt lat="35.084178300" lon="-106.442954530">
        <ele>1989.000</ele>
        <time>2019-03-29T15:39:24Z</time>
        <name>WPT.208</name>
      </trkpt>
      <trkpt lat="35.084218320" lon="-106.442953790">
        <ele>1989.000</ele>
        <time>2019-03-29T15:39:28Z</time>
        <name>WPT.209</name>
      </trkpt>
      <trkpt lat="35.084257020" lon="-106.442952880">
        <ele>1988.000</ele>
        <time>2019-03-29T15:39:33Z</time>
        <name>WPT.210</name>
      </trkpt>
      <trkpt lat="35.084302590" lon="-106.442951200">
        <ele>1988.000</ele>
        <time>2019-03-29T15:39:37Z</time>
        <name>WPT.211</name>
      </trkpt>
      <trkpt lat="35.084341700" lon="-106.442939590">
        <ele>1987.000</ele>
        <time>2019-03-29T15:39:42Z</time>
        <name>WPT.212</name>
      </trkpt>
      <trkpt lat="35.084383550" lon="-106.442950660">
        <ele>1987.000</ele>
        <time>2019-03-29T15:39:47Z</time>
        <name>WPT.213</name>
      </trkpt>
      <trkpt lat="35.084422390" lon="-106.442943870">
        <ele>1985.000</ele>
        <time>2019-03-29T15:39:51Z</time>
        <name>WPT.214</name>
      </trkpt>
      <trkpt lat="35.084457800" lon="-106.442933950">
        <ele>1984.000</ele>
        <time>2019-03-29T15:39:55Z</time>
        <name>WPT.215</name>
      </trkpt>
      <trkpt lat="35.084505150" lon="-106.442922520">
        <ele>1984.000</ele>
        <time>2019-03-29T15:40:00Z</time>
        <name>WPT.216</name>
      </trkpt>
      <trkpt lat="35.084551210" lon="-106.442917490">
        <ele>1991.000</ele>
        <time>2019-03-29T15:41:29Z</time>
        <name>WPT.217</name>
      </trkpt>
      <trkpt lat="35.084588530" lon="-106.442892670">
        <ele>1989.000</ele>
        <time>2019-03-29T15:41:34Z</time>
        <name>WPT.218</name>
      </trkpt>
      <trkpt lat="35.084620130" lon="-106.442869530">
        <ele>1989.000</ele>
        <time>2019-03-29T15:41:39Z</time>
        <name>WPT.219</name>
      </trkpt>
      <trkpt lat="35.084656400" lon="-106.442869200">
        <ele>1993.000</ele>
        <time>2019-03-29T15:41:43Z</time>
        <name>WPT.220</name>
      </trkpt>
      <trkpt lat="35.084694720" lon="-106.442859040">
        <ele>1993.000</ele>
        <time>2019-03-29T15:41:48Z</time>
        <name>WPT.221</name>
      </trkpt>
      <trkpt lat="35.084727630" lon="-106.442839020">
        <ele>1992.000</ele>
        <time>2019-03-29T15:41:52Z</time>
        <name>WPT.222</name>
      </trkpt>
      <trkpt lat="35.084768670" lon="-106.442831320">
        <ele>1993.000</ele>
        <time>2019-03-29T15:41:56Z</time>
        <name>WPT.223</name>
      </trkpt>
      <trkpt lat="35.084807280" lon="-106.442816070">
        <ele>1993.000</ele>
        <time>2019-03-29T15:42:01Z</time>
        <name>WPT.224</name>
      </trkpt>
      <trkpt lat="35.084851390" lon="-106.442814880">
        <ele>1994.000</ele>
        <time>2019-03-29T15:42:06Z</time>
        <name>WPT.225</name>
      </trkpt>
      <trkpt lat="35.084887990" lon="-106.442819170">
        <ele>1995.000</ele>
        <time>2019-03-29T15:42:10Z</time>
        <name>WPT.226</name>
      </trkpt>
      <trkpt lat="35.084925450" lon="-106.442810300">
        <ele>1997.000</ele>
        <time>2019-03-29T15:42:14Z</time>
        <name>WPT.227</name>
      </trkpt>
      <trkpt lat="35.084964480" lon="-106.442787800">
        <ele>1997.000</ele>
        <time>2019-03-29T15:42:19Z</time>
        <name>WPT.228</name>
      </trkpt>
      <trkpt lat="35.085011670" lon="-106.442764320">
        <ele>1998.000</ele>
        <time>2019-03-29T15:42:24Z</time>
        <name>WPT.229</name>
      </trkpt>
      <trkpt lat="35.085048040" lon="-106.442760480">
        <ele>1998.000</ele>
        <time>2019-03-29T15:42:28Z</time>
        <name>WPT.230</name>
      </trkpt>
      <trkpt lat="35.085085080" lon="-106.442754070">
        <ele>1998.000</ele>
        <time>2019-03-29T15:42:32Z</time>
        <name>WPT.231</name>
      </trkpt>
      <trkpt lat="35.085127300" lon="-106.442761870">
        <ele>1998.000</ele>
        <time>2019-03-29T15:42:37Z</time>
        <name>WPT.232</name>
      </trkpt>
      <trkpt lat="35.085169020" lon="-106.442768440">
        <ele>1998.000</ele>
        <time>2019-03-29T15:42:41Z</time>
        <name>WPT.233</name>
      </trkpt>
      <trkpt lat="35.085215780" lon="-106.442769750">
        <ele>1999.000</ele>
        <time>2019-03-29T15:42:47Z</time>
        <name>WPT.234</name>
      </trkpt>
      <trkpt lat="35.085250650" lon="-106.442748520">
        <ele>1998.000</ele>
        <time>2019-03-29T15:42:51Z</time>
        <name>WPT.235</name>
      </trkpt>
      <trkpt lat="35.085299080" lon="-106.442758830">
        <ele>2004.000</ele>
        <time>2019-03-29T15:42:56Z</time>
        <name>WPT.236</name>
      </trkpt>
      <trkpt lat="35.085339130" lon="-106.442746250">
        <ele>2002.000</ele>
        <time>2019-03-29T15:43:01Z</time>
        <name>WPT.237</name>
      </trkpt>
      <trkpt lat="35.085378130" lon="-106.442731140">
        <ele>2004.000</ele>
        <time>2019-03-29T15:43:06Z</time>
        <name>WPT.238</name>
      </trkpt>
      <trkpt lat="35.085413100" lon="-106.442715120">
        <ele>2005.000</ele>
        <time>2019-03-29T15:43:12Z</time>
        <name>WPT.239</name>
      </trkpt>
      <trkpt lat="35.085445860" lon="-106.442694670">
        <ele>2005.000</ele>
        <time>2019-03-29T15:43:16Z</time>
        <name>WPT.240</name>
      </trkpt>
      <trkpt lat="35.085489400" lon="-106.442685120">
        <ele>2006.000</ele>
        <time>2019-03-29T15:43:21Z</time>
        <name>WPT.241</name>
      </trkpt>
      <trkpt lat="35.085531260" lon="-106.442676180">
        <ele>2007.000</ele>
        <time>2019-03-29T15:43:26Z</time>
        <name>WPT.242</name>
      </trkpt>
      <trkpt lat="35.085569900" lon="-106.442662250">
        <ele>2007.000</ele>
        <time>2019-03-29T15:43:30Z</time>
        <name>WPT.243</name>
      </trkpt>
      <trkpt lat="35.085609610" lon="-106.442660850">
        <ele>2007.000</ele>
        <time>2019-03-29T15:43:35Z</time>
        <name>WPT.244</name>
      </trkpt>
      <trkpt lat="35.085655530" lon="-106.442635330">
        <ele>2007.000</ele>
        <time>2019-03-29T15:43:40Z</time>
        <name>WPT.245</name>
      </trkpt>
      <trkpt lat="35.085694480" lon="-106.442624140">
        <ele>2007.000</ele>
        <time>2019-03-29T15:43:47Z</time>
        <name>WPT.246</name>
      </trkpt>
      <trkpt lat="35.085730570" lon="-106.442615360">
        <ele>2008.000</ele>
        <time>2019-03-29T15:43:51Z</time>
        <name>WPT.247</name>
      </trkpt>
      <trkpt lat="35.085766430" lon="-106.442588380">
        <ele>2007.000</ele>
        <time>2019-03-29T15:43:56Z</time>
        <name>WPT.248</name>
      </trkpt>
      <trkpt lat="35.085807030" lon="-106.442574960">
        <ele>2008.000</ele>
        <time>2019-03-29T15:44:01Z</time>
        <name>WPT.249</name>
      </trkpt>
      <trkpt lat="35.085847820" lon="-106.442548800">
        <ele>2011.000</ele>
        <time>2019-03-29T15:44:05Z</time>
        <name>WPT.250</name>
      </trkpt>
      <trkpt lat="35.085883390" lon="-106.442522040">
        <ele>2013.000</ele>
        <time>2019-03-29T15:44:09Z</time>
        <name>WPT.251</name>
      </trkpt>
      <trkpt lat="35.085926000" lon="-106.442511640">
        <ele>2014.000</ele>
        <time>2019-03-29T15:44:14Z</time>
        <name>WPT.252</name>
      </trkpt>
      <trkpt lat="35.085966600" lon="-106.442504080">
        <ele>2016.000</ele>
        <time>2019-03-29T15:44:18Z</time>
        <name>WPT.253</name>
      </trkpt>
      <trkpt lat="35.085998460" lon="-106.442479310">
        <ele>2016.000</ele>
        <time>2019-03-29T15:44:22Z</time>
        <name>WPT.254</name>
      </trkpt>
      <trkpt lat="35.086027580" lon="-106.442439470">
        <ele>2017.000</ele>
        <time>2019-03-29T15:44:27Z</time>
        <name>WPT.255</name>
      </trkpt>
      <trkpt lat="35.086056170" lon="-106.442411500">
        <ele>2018.000</ele>
        <time>2019-03-29T15:44:30Z</time>
        <name>WPT.256</name>
      </trkpt>
      <trkpt lat="35.086091330" lon="-106.442401610">
        <ele>2018.000</ele>
        <time>2019-03-29T15:44:34Z</time>
        <name>WPT.257</name>
      </trkpt>
      <trkpt lat="35.086129680" lon="-106.442403860">
        <ele>2019.000</ele>
        <time>2019-03-29T15:44:39Z</time>
        <name>WPT.258</name>
      </trkpt>
      <trkpt lat="35.086164800" lon="-106.442391550">
        <ele>2020.000</ele>
        <time>2019-03-29T15:44:43Z</time>
        <name>WPT.259</name>
      </trkpt>
      <trkpt lat="35.086206990" lon="-106.442380380">
        <ele>2019.000</ele>
        <time>2019-03-29T15:44:48Z</time>
        <name>WPT.260</name>
      </trkpt>
      <trkpt lat="35.086246520" lon="-106.442386580">
        <ele>2017.000</ele>
        <time>2019-03-29T15:44:54Z</time>
        <name>WPT.261</name>
      </trkpt>
      <trkpt lat="35.086283240" lon="-106.442391040">
        <ele>2015.000</ele>
        <time>2019-03-29T15:44:58Z</time>
        <name>WPT.262</name>
      </trkpt>
      <trkpt lat="35.086326670" lon="-106.442388910">
        <ele>2015.000</ele>
        <time>2019-03-29T15:45:02Z</time>
        <name>WPT.263</name>
      </trkpt>
      <trkpt lat="35.086367120" lon="-106.442383870">
        <ele>2015.000</ele>
        <time>2019-03-29T15:45:07Z</time>
        <name>WPT.264</name>
      </trkpt>
      <trkpt lat="35.086409760" lon="-106.442374910">
        <ele>2015.000</ele>
        <time>2019-03-29T15:45:12Z</time>
        <name>WPT.265</name>
      </trkpt>
      <trkpt lat="35.086447330" lon="-106.442371960">
        <ele>2018.000</ele>
        <time>2019-03-29T15:45:17Z</time>
        <name>WPT.266</name>
      </trkpt>
      <trkpt lat="35.086485410" lon="-106.442359860">
        <ele>2019.000</ele>
        <time>2019-03-29T15:45:21Z</time>
        <name>WPT.267</name>
      </trkpt>
      <trkpt lat="35.086525680" lon="-106.442340920">
        <ele>2018.000</ele>
        <time>2019-03-29T15:45:25Z</time>
        <name>WPT.268</name>
      </trkpt>
      <trkpt lat="35.086558770" lon="-106.442319800">
        <ele>2018.000</ele>
        <time>2019-03-29T15:45:29Z</time>
        <name>WPT.269</name>
      </trkpt>
      <trkpt lat="35.086596210" lon="-106.442319480">
        <ele>2019.000</ele>
        <time>2019-03-29T15:45:35Z</time>
        <name>WPT.270</name>
      </trkpt>
      <trkpt lat="35.086631170" lon="-106.442300870">
        <ele>2019.000</ele>
        <time>2019-03-29T15:45:41Z</time>
        <name>WPT.271</name>
      </trkpt>
      <trkpt lat="35.086666610" lon="-106.442275730">
        <ele>2018.000</ele>
        <time>2019-03-29T15:45:45Z</time>
        <name>WPT.272</name>
      </trkpt>
      <trkpt lat="35.086701730" lon="-106.442256330">
        <ele>2018.000</ele>
        <time>2019-03-29T15:45:49Z</time>
        <name>WPT.273</name>
      </trkpt>
      <trkpt lat="35.086742510" lon="-106.442243590">
        <ele>2021.000</ele>
        <time>2019-03-29T15:45:54Z</time>
        <name>WPT.274</name>
      </trkpt>
      <trkpt lat="35.086784020" lon="-106.442238490">
        <ele>2021.000</ele>
        <time>2019-03-29T15:46:00Z</time>
        <name>WPT.275</name>
      </trkpt>
      <trkpt lat="35.086820690" lon="-106.442213060">
        <ele>2021.000</ele>
        <time>2019-03-29T15:46:04Z</time>
        <name>WPT.276</name>
      </trkpt>
      <trkpt lat="35.086859950" lon="-106.442192310">
        <ele>2023.000</ele>
        <time>2019-03-29T15:46:10Z</time>
        <name>WPT.277</name>
      </trkpt>
      <trkpt lat="35.086899410" lon="-106.442163830">
        <ele>2022.000</ele>
        <time>2019-03-29T15:46:15Z</time>
        <name>WPT.278</name>
      </trkpt>
      <trkpt lat="35.086930410" lon="-106.442133670">
        <ele>2025.000</ele>
        <time>2019-03-29T15:46:19Z</time>
        <name>WPT.279</name>
      </trkpt>
      <trkpt lat="35.086972070" lon="-106.442115900">
        <ele>2026.000</ele>
        <time>2019-03-29T15:46:26Z</time>
        <name>WPT.280</name>
      </trkpt>
      <trkpt lat="35.087014700" lon="-106.442107240">
        <ele>2028.000</ele>
        <time>2019-03-29T15:46:31Z</time>
        <name>WPT.281</name>
      </trkpt>
      <trkpt lat="35.087050040" lon="-106.442088950">
        <ele>2030.000</ele>
        <time>2019-03-29T15:46:35Z</time>
        <name>WPT.282</name>
      </trkpt>
      <trkpt lat="35.087084970" lon="-106.442074670">
        <ele>2030.000</ele>
        <time>2019-03-29T15:46:40Z</time>
        <name>WPT.283</name>
      </trkpt>
      <trkpt lat="35.087120170" lon="-106.442055980">
        <ele>2030.000</ele>
        <time>2019-03-29T15:46:44Z</time>
        <name>WPT.284</name>
      </trkpt>
      <trkpt lat="35.087158440" lon="-106.442038440">
        <ele>2030.000</ele>
        <time>2019-03-29T15:46:48Z</time>
        <name>WPT.285</name>
      </trkpt>
      <trkpt lat="35.087192850" lon="-106.442020570">
        <ele>2029.000</ele>
        <time>2019-03-29T15:46:54Z</time>
        <name>WPT.286</name>
      </trkpt>
      <trkpt lat="35.087230120" lon="-106.441996860">
        <ele>2029.000</ele>
        <time>2019-03-29T15:46:59Z</time>
        <name>WPT.287</name>
      </trkpt>
      <trkpt lat="35.087265410" lon="-106.441973080">
        <ele>2028.000</ele>
        <time>2019-03-29T15:47:04Z</time>
        <name>WPT.288</name>
      </trkpt>
      <trkpt lat="35.087302330" lon="-106.441951620">
        <ele>2028.000</ele>
        <time>2019-03-29T15:47:08Z</time>
        <name>WPT.289</name>
      </trkpt>
      <trkpt lat="35.087339870" lon="-106.441927320">
        <ele>2027.000</ele>
        <time>2019-03-29T15:47:13Z</time>
        <name>WPT.290</name>
      </trkpt>
      <trkpt lat="35.087379170" lon="-106.441915680">
        <ele>2028.000</ele>
        <time>2019-03-29T15:47:17Z</time>
        <name>WPT.291</name>
      </trkpt>
      <trkpt lat="35.087420620" lon="-106.441909040">
        <ele>2028.000</ele>
        <time>2019-03-29T15:47:22Z</time>
        <name>WPT.292</name>
      </trkpt>
      <trkpt lat="35.087455240" lon="-106.441881270">
        <ele>2028.000</ele>
        <time>2019-03-29T15:47:26Z</time>
        <name>WPT.293</name>
      </trkpt>
      <trkpt lat="35.087495640" lon="-106.441864410">
        <ele>2028.000</ele>
        <time>2019-03-29T15:47:31Z</time>
        <name>WPT.294</name>
      </trkpt>
      <trkpt lat="35.087531450" lon="-106.441888780">
        <ele>2030.000</ele>
        <time>2019-03-29T15:47:36Z</time>
        <name>WPT.295</name>
      </trkpt>
      <trkpt lat="35.087569530" lon="-106.441891450">
        <ele>2031.000</ele>
        <time>2019-03-29T15:47:40Z</time>
        <name>WPT.296</name>
      </trkpt>
      <trkpt lat="35.087610890" lon="-106.441892320">
        <ele>2032.000</ele>
        <time>2019-03-29T15:47:45Z</time>
        <name>WPT.297</name>
      </trkpt>
      <trkpt lat="35.087654610" lon="-106.441892970">
        <ele>2033.000</ele>
        <time>2019-03-29T15:47:49Z</time>
        <name>WPT.298</name>
      </trkpt>
      <trkpt lat="35.087688430" lon="-106.441912210">
        <ele>2032.000</ele>
        <time>2019-03-29T15:47:54Z</time>
        <name>WPT.299</name>
      </trkpt>
      <trkpt lat="35.087723790" lon="-106.441897420">
        <ele>2036.000</ele>
        <time>2019-03-29T15:48:08Z</time>
        <name>WPT.300</name>
      </trkpt>
      <trkpt lat="35.087758970" lon="-106.441913100">
        <ele>2037.000</ele>
        <time>2019-03-29T15:49:36Z</time>
        <name>WPT.301</name>
      </trkpt>
      <trkpt lat="35.087786430" lon="-106.441948470">
        <ele>2037.000</ele>
        <time>2019-03-29T15:49:41Z</time>
        <name>WPT.302</name>
      </trkpt>
      <trkpt lat="35.087824490" lon="-106.441961960">
        <ele>2037.000</ele>
        <time>2019-03-29T15:49:45Z</time>
        <name>WPT.303</name>
      </trkpt>
      <trkpt lat="35.087863040" lon="-106.441973890">
        <ele>2037.000</ele>
        <time>2019-03-29T15:49:50Z</time>
        <name>WPT.304</name>
      </trkpt>
      <trkpt lat="35.087897200" lon="-106.441994110">
        <ele>2038.000</ele>
        <time>2019-03-29T15:49:55Z</time>
        <name>WPT.305</name>
      </trkpt>
      <trkpt lat="35.087940180" lon="-106.442005100">
        <ele>2038.000</ele>
        <time>2019-03-29T15:50:00Z</time>
        <name>WPT.306</name>
      </trkpt>
      <trkpt lat="35.087976140" lon="-106.442015820">
        <ele>2038.000</ele>
        <time>2019-03-29T15:50:04Z</time>
        <name>WPT.307</name>
      </trkpt>
      <trkpt lat="35.087985830" lon="-106.442059020">
        <ele>2040.000</ele>
        <time>2019-03-29T15:50:09Z</time>
        <name>WPT.308</name>
      </trkpt>
      <trkpt lat="35.088017290" lon="-106.442082020">
        <ele>2041.000</ele>
        <time>2019-03-29T15:50:14Z</time>
        <name>WPT.309</name>
      </trkpt>
      <trkpt lat="35.088049350" lon="-106.442102920">
        <ele>2041.000</ele>
        <time>2019-03-29T15:50:18Z</time>
        <name>WPT.310</name>
      </trkpt>
      <trkpt lat="35.088086260" lon="-106.442105330">
        <ele>2041.000</ele>
        <time>2019-03-29T15:50:22Z</time>
        <name>WPT.311</name>
      </trkpt>
      <trkpt lat="35.088124580" lon="-106.442126010">
        <ele>2043.000</ele>
        <time>2019-03-29T15:50:27Z</time>
        <name>WPT.312</name>
      </trkpt>
      <trkpt lat="35.088162830" lon="-106.442116970">
        <ele>2042.000</ele>
        <time>2019-03-29T15:50:42Z</time>
        <name>WPT.313</name>
      </trkpt>
      <trkpt lat="35.088198430" lon="-106.442137320">
        <ele>2043.000</ele>
        <time>2019-03-29T15:50:49Z</time>
        <name>WPT.314</name>
      </trkpt>
      <trkpt lat="35.088236790" lon="-106.442125580">
        <ele>2042.000</ele>
        <time>2019-03-29T15:50:53Z</time>
        <name>WPT.315</name>
      </trkpt>
      <trkpt lat="35.088274120" lon="-106.442113900">
        <ele>2042.000</ele>
        <time>2019-03-29T15:50:57Z</time>
        <name>WPT.316</name>
      </trkpt>
      <trkpt lat="35.088314860" lon="-106.442122700">
        <ele>2043.000</ele>
        <time>2019-03-29T15:51:02Z</time>
        <name>WPT.317</name>
      </trkpt>
      <trkpt lat="35.088358620" lon="-106.442122140">
        <ele>2044.000</ele>
        <time>2019-03-29T15:51:06Z</time>
        <name>WPT.318</name>
      </trkpt>
      <trkpt lat="35.088398290" lon="-106.442116390">
        <ele>2043.000</ele>
        <time>2019-03-29T15:51:11Z</time>
        <name>WPT.319</name>
      </trkpt>
      <trkpt lat="35.088439630" lon="-106.442122460">
        <ele>2044.000</ele>
        <time>2019-03-29T15:51:21Z</time>
        <name>WPT.320</name>
      </trkpt>
      <trkpt lat="35.088484860" lon="-106.442123890">
        <ele>2045.000</ele>
        <time>2019-03-29T15:51:26Z</time>
        <name>WPT.321</name>
      </trkpt>
      <trkpt lat="35.088519720" lon="-106.442108110">
        <ele>2045.000</ele>
        <time>2019-03-29T15:51:30Z</time>
        <name>WPT.322</name>
      </trkpt>
      <trkpt lat="35.088558390" lon="-106.442101290">
        <ele>2046.000</ele>
        <time>2019-03-29T15:51:34Z</time>
        <name>WPT.323</name>
      </trkpt>
      <trkpt lat="35.088598550" lon="-106.442098710">
        <ele>2047.000</ele>
        <time>2019-03-29T15:51:39Z</time>
        <name>WPT.324</name>
      </trkpt>
      <trkpt lat="35.088636060" lon="-106.442104960">
        <ele>2048.000</ele>
        <time>2019-03-29T15:51:44Z</time>
        <name>WPT.325</name>
      </trkpt>
      <trkpt lat="35.088673110" lon="-106.442119270">
        <ele>2049.000</ele>
        <time>2019-03-29T15:51:49Z</time>
        <name>WPT.326</name>
      </trkpt>
      <trkpt lat="35.088709830" lon="-106.442118860">
        <ele>2048.000</ele>
        <time>2019-03-29T15:51:54Z</time>
        <name>WPT.327</name>
      </trkpt>
      <trkpt lat="35.088741300" lon="-106.442141690">
        <ele>2050.000</ele>
        <time>2019-03-29T15:51:59Z</time>
        <name>WPT.328</name>
      </trkpt>
      <trkpt lat="35.088780340" lon="-106.442147810">
        <ele>2050.000</ele>
        <time>2019-03-29T15:52:04Z</time>
        <name>WPT.329</name>
      </trkpt>
      <trkpt lat="35.088819090" lon="-106.442140050">
        <ele>2049.000</ele>
        <time>2019-03-29T15:52:09Z</time>
        <name>WPT.330</name>
      </trkpt>
      <trkpt lat="35.088855710" lon="-106.442123400">
        <ele>2049.000</ele>
        <time>2019-03-29T15:52:13Z</time>
        <name>WPT.331</name>
      </trkpt>
      <trkpt lat="35.088896280" lon="-106.442120980">
        <ele>2050.000</ele>
        <time>2019-03-29T15:52:18Z</time>
        <name>WPT.332</name>
      </trkpt>
      <trkpt lat="35.088931650" lon="-106.442107030">
        <ele>2051.000</ele>
        <time>2019-03-29T15:52:22Z</time>
        <name>WPT.333</name>
      </trkpt>
      <trkpt lat="35.088965270" lon="-106.442086250">
        <ele>2052.000</ele>
        <time>2019-03-29T15:52:26Z</time>
        <name>WPT.334</name>
      </trkpt>
      <trkpt lat="35.089002940" lon="-106.442060700">
        <ele>2054.000</ele>
        <time>2019-03-29T15:52:33Z</time>
        <name>WPT.335</name>
      </trkpt>
      <trkpt lat="35.089045310" lon="-106.442052600">
        <ele>2055.000</ele>
        <time>2019-03-29T15:52:38Z</time>
        <name>WPT.336</name>
      </trkpt>
      <trkpt lat="35.089083580" lon="-106.442032250">
        <ele>2055.000</ele>
        <time>2019-03-29T15:52:42Z</time>
        <name>WPT.337</name>
      </trkpt>
      <trkpt lat="35.089123550" lon="-106.442020570">
        <ele>2057.000</ele>
        <time>2019-03-29T15:52:47Z</time>
        <name>WPT.338</name>
      </trkpt>
      <trkpt lat="35.089167400" lon="-106.442030580">
        <ele>2058.000</ele>
        <time>2019-03-29T15:52:52Z</time>
        <name>WPT.339</name>
      </trkpt>
      <trkpt lat="35.089209990" lon="-106.442034960">
        <ele>2061.000</ele>
        <time>2019-03-29T15:52:57Z</time>
        <name>WPT.340</name>
      </trkpt>
      <trkpt lat="35.089250900" lon="-106.442032990">
        <ele>2061.000</ele>
        <time>2019-03-29T15:53:02Z</time>
        <name>WPT.341</name>
      </trkpt>
      <trkpt lat="35.089290500" lon="-106.442030300">
        <ele>2060.000</ele>
        <time>2019-03-29T15:53:07Z</time>
        <name>WPT.342</name>
      </trkpt>
      <trkpt lat="35.089328950" lon="-106.442022750">
        <ele>2059.000</ele>
        <time>2019-03-29T15:53:12Z</time>
        <name>WPT.343</name>
      </trkpt>
      <trkpt lat="35.089363730" lon="-106.442010810">
        <ele>2058.000</ele>
        <time>2019-03-29T15:53:19Z</time>
        <name>WPT.344</name>
      </trkpt>
      <trkpt lat="35.089399940" lon="-106.442031110">
        <ele>2060.000</ele>
        <time>2019-03-29T15:53:23Z</time>
        <name>WPT.345</name>
      </trkpt>
      <trkpt lat="35.089436840" lon="-106.442015940">
        <ele>2060.000</ele>
        <time>2019-03-29T15:53:28Z</time>
        <name>WPT.346</name>
      </trkpt>
      <trkpt lat="35.089476590" lon="-106.442014860">
        <ele>2061.000</ele>
        <time>2019-03-29T15:53:35Z</time>
        <name>WPT.347</name>
      </trkpt>
      <trkpt lat="35.089514540" lon="-106.442033130">
        <ele>2061.000</ele>
        <time>2019-03-29T15:53:41Z</time>
        <name>WPT.348</name>
      </trkpt>
      <trkpt lat="35.089550460" lon="-106.442037330">
        <ele>2060.000</ele>
        <time>2019-03-29T15:53:45Z</time>
        <name>WPT.349</name>
      </trkpt>
      <trkpt lat="35.089593140" lon="-106.442042770">
        <ele>2060.000</ele>
        <time>2019-03-29T15:53:51Z</time>
        <name>WPT.350</name>
      </trkpt>
      <trkpt lat="35.089626410" lon="-106.442059680">
        <ele>2061.000</ele>
        <time>2019-03-29T15:53:56Z</time>
        <name>WPT.351</name>
      </trkpt>
      <trkpt lat="35.089662760" lon="-106.442046900">
        <ele>2059.000</ele>
        <time>2019-03-29T15:54:00Z</time>
        <name>WPT.352</name>
      </trkpt>
      <trkpt lat="35.089699980" lon="-106.442040430">
        <ele>2059.000</ele>
        <time>2019-03-29T15:54:05Z</time>
        <name>WPT.353</name>
      </trkpt>
      <trkpt lat="35.089732620" lon="-106.442014010">
        <ele>2060.000</ele>
        <time>2019-03-29T15:54:09Z</time>
        <name>WPT.354</name>
      </trkpt>
      <trkpt lat="35.089766560" lon="-106.441985750">
        <ele>2061.000</ele>
        <time>2019-03-29T15:54:14Z</time>
        <name>WPT.355</name>
      </trkpt>
      <trkpt lat="35.089800680" lon="-106.441967000">
        <ele>2060.000</ele>
        <time>2019-03-29T15:54:18Z</time>
        <name>WPT.356</name>
      </trkpt>
      <trkpt lat="35.089835460" lon="-106.441954670">
        <ele>2062.000</ele>
        <time>2019-03-29T15:54:23Z</time>
        <name>WPT.357</name>
      </trkpt>
      <trkpt lat="35.089863340" lon="-106.441915920">
        <ele>2062.000</ele>
        <time>2019-03-29T15:54:29Z</time>
        <name>WPT.358</name>
      </trkpt>
      <trkpt lat="35.089892800" lon="-106.441888280">
        <ele>2063.000</ele>
        <time>2019-03-29T15:54:33Z</time>
        <name>WPT.359</name>
      </trkpt>
      <trkpt lat="35.089931040" lon="-106.441857860">
        <ele>2061.000</ele>
        <time>2019-03-29T15:54:37Z</time>
        <name>WPT.360</name>
      </trkpt>
      <trkpt lat="35.089972830" lon="-106.441841110">
        <ele>2061.000</ele>
        <time>2019-03-29T15:54:42Z</time>
        <name>WPT.361</name>
      </trkpt>
      <trkpt lat="35.090011310" lon="-106.441843250">
        <ele>2062.000</ele>
        <time>2019-03-29T15:54:48Z</time>
        <name>WPT.362</name>
      </trkpt>
      <trkpt lat="35.090049180" lon="-106.441845010">
        <ele>2062.000</ele>
        <time>2019-03-29T15:54:53Z</time>
        <name>WPT.363</name>
      </trkpt>
      <trkpt lat="35.090082750" lon="-106.441823880">
        <ele>2063.000</ele>
        <time>2019-03-29T15:55:01Z</time>
        <name>WPT.364</name>
      </trkpt>
      <trkpt lat="35.090121740" lon="-106.441819540">
        <ele>2067.000</ele>
        <time>2019-03-29T15:59:19Z</time>
        <name>WPT.365</name>
      </trkpt>
      <trkpt lat="35.090161350" lon="-106.441800860">
        <ele>2067.000</ele>
        <time>2019-03-29T15:59:25Z</time>
        <name>WPT.366</name>
      </trkpt>
      <trkpt lat="35.090195490" lon="-106.441784550">
        <ele>2067.000</ele>
        <time>2019-03-29T15:59:29Z</time>
        <name>WPT.367</name>
      </trkpt>
      <trkpt lat="35.090231880" lon="-106.441768940">
        <ele>2067.000</ele>
        <time>2019-03-29T15:59:33Z</time>
        <name>WPT.368</name>
      </trkpt>
      <trkpt lat="35.090267200" lon="-106.441739630">
        <ele>2067.000</ele>
        <time>2019-03-29T15:59:38Z</time>
        <name>WPT.369</name>
      </trkpt>
      <trkpt lat="35.090298730" lon="-106.441711620">
        <ele>2066.000</ele>
        <time>2019-03-29T15:59:42Z</time>
        <name>WPT.370</name>
      </trkpt>
      <trkpt lat="35.090341770" lon="-106.441700540">
        <ele>2068.000</ele>
        <time>2019-03-29T15:59:47Z</time>
        <name>WPT.371</name>
      </trkpt>
      <trkpt lat="35.090389010" lon="-106.441688730">
        <ele>2068.000</ele>
        <time>2019-03-29T15:59:52Z</time>
        <name>WPT.372</name>
      </trkpt>
      <trkpt lat="35.090428630" lon="-106.441684090">
        <ele>2069.000</ele>
        <time>2019-03-29T15:59:56Z</time>
        <name>WPT.373</name>
      </trkpt>
      <trkpt lat="35.090463560" lon="-106.441661060">
        <ele>2069.000</ele>
        <time>2019-03-29T16:00:00Z</time>
        <name>WPT.374</name>
      </trkpt>
      <trkpt lat="35.090507100" lon="-106.441659120">
        <ele>2073.000</ele>
        <time>2019-03-29T16:00:05Z</time>
        <name>WPT.375</name>
      </trkpt>
      <trkpt lat="35.090546350" lon="-106.441634200">
        <ele>2073.000</ele>
        <time>2019-03-29T16:00:08Z</time>
        <name>WPT.376</name>
      </trkpt>
      <trkpt lat="35.090583860" lon="-106.441616740">
        <ele>2073.000</ele>
        <time>2019-03-29T16:00:12Z</time>
        <name>WPT.377</name>
      </trkpt>
      <trkpt lat="35.090627530" lon="-106.441615280">
        <ele>2073.000</ele>
        <time>2019-03-29T16:00:17Z</time>
        <name>WPT.378</name>
      </trkpt>
      <trkpt lat="35.090663620" lon="-106.441624960">
        <ele>2075.000</ele>
        <time>2019-03-29T16:00:20Z</time>
        <name>WPT.379</name>
      </trkpt>
      <trkpt lat="35.090706270" lon="-106.441594030">
        <ele>2074.000</ele>
        <time>2019-03-29T16:00:24Z</time>
        <name>WPT.380</name>
      </trkpt>
      <trkpt lat="35.090737450" lon="-106.441561320">
        <ele>2073.000</ele>
        <time>2019-03-29T16:00:28Z</time>
        <name>WPT.381</name>
      </trkpt>
      <trkpt lat="35.090766700" lon="-106.441534490">
        <ele>2076.000</ele>
        <time>2019-03-29T16:00:32Z</time>
        <name>WPT.382</name>
      </trkpt>
      <trkpt lat="35.090783510" lon="-106.441487040">
        <ele>2076.000</ele>
        <time>2019-03-29T16:00:36Z</time>
        <name>WPT.383</name>
      </trkpt>
      <trkpt lat="35.090818410" lon="-106.441452060">
        <ele>2076.000</ele>
        <time>2019-03-29T16:00:40Z</time>
        <name>WPT.384</name>
      </trkpt>
      <trkpt lat="35.090850610" lon="-106.441419490">
        <ele>2077.000</ele>
        <time>2019-03-29T16:00:44Z</time>
        <name>WPT.385</name>
      </trkpt>
      <trkpt lat="35.090878870" lon="-106.441385420">
        <ele>2080.000</ele>
        <time>2019-03-29T16:00:49Z</time>
        <name>WPT.386</name>
      </trkpt>
      <trkpt lat="35.090905070" lon="-106.441352580">
        <ele>2081.000</ele>
        <time>2019-03-29T16:00:52Z</time>
        <name>WPT.387</name>
      </trkpt>
      <trkpt lat="35.090942300" lon="-106.441318520">
        <ele>2080.000</ele>
        <time>2019-03-29T16:00:56Z</time>
        <name>WPT.388</name>
      </trkpt>
      <trkpt lat="35.090974330" lon="-106.441286470">
        <ele>2081.000</ele>
        <time>2019-03-29T16:01:00Z</time>
        <name>WPT.389</name>
      </trkpt>
      <trkpt lat="35.090993700" lon="-106.441243540">
        <ele>2082.000</ele>
        <time>2019-03-29T16:01:04Z</time>
        <name>WPT.390</name>
      </trkpt>
      <trkpt lat="35.091004730" lon="-106.441189920">
        <ele>2082.000</ele>
        <time>2019-03-29T16:01:08Z</time>
        <name>WPT.391</name>
      </trkpt>
      <trkpt lat="35.091008030" lon="-106.441133380">
        <ele>2082.000</ele>
        <time>2019-03-29T16:01:12Z</time>
        <name>WPT.392</name>
      </trkpt>
      <trkpt lat="35.091005380" lon="-106.441084180">
        <ele>2082.000</ele>
        <time>2019-03-29T16:01:16Z</time>
        <name>WPT.393</name>
      </trkpt>
      <trkpt lat="35.091004960" lon="-106.441031440">
        <ele>2081.000</ele>
        <time>2019-03-29T16:01:20Z</time>
        <name>WPT.394</name>
      </trkpt>
      <trkpt lat="35.090995230" lon="-106.440979310">
        <ele>2082.000</ele>
        <time>2019-03-29T16:01:24Z</time>
        <name>WPT.395</name>
      </trkpt>
      <trkpt lat="35.090992350" lon="-106.440926620">
        <ele>2083.000</ele>
        <time>2019-03-29T16:01:28Z</time>
        <name>WPT.396</name>
      </trkpt>
      <trkpt lat="35.091025890" lon="-106.440883790">
        <ele>2084.000</ele>
        <time>2019-03-29T16:02:29Z</time>
        <name>WPT.397</name>
      </trkpt>
      <trkpt lat="35.091064670" lon="-106.440871630">
        <ele>2084.000</ele>
        <time>2019-03-29T16:02:34Z</time>
        <name>WPT.398</name>
      </trkpt>
      <trkpt lat="35.091106540" lon="-106.440898330">
        <ele>2085.000</ele>
        <time>2019-03-29T16:02:39Z</time>
        <name>WPT.399</name>
      </trkpt>
      <trkpt lat="35.091142830" lon="-106.440891930">
        <ele>2085.000</ele>
        <time>2019-03-29T16:02:42Z</time>
        <name>WPT.400</name>
      </trkpt>
      <trkpt lat="35.091179170" lon="-106.440884620">
        <ele>2085.000</ele>
        <time>2019-03-29T16:02:46Z</time>
        <name>WPT.401</name>
      </trkpt>
      <trkpt lat="35.091217150" lon="-106.440878310">
        <ele>2086.000</ele>
        <time>2019-03-29T16:02:50Z</time>
        <name>WPT.402</name>
      </trkpt>
      <trkpt lat="35.091252630" lon="-106.440865950">
        <ele>2087.000</ele>
        <time>2019-03-29T16:02:53Z</time>
        <name>WPT.403</name>
      </trkpt>
      <trkpt lat="35.091296210" lon="-106.440844170">
        <ele>2086.000</ele>
        <time>2019-03-29T16:02:57Z</time>
        <name>WPT.404</name>
      </trkpt>
      <trkpt lat="35.091335500" lon="-106.440831200">
        <ele>2086.000</ele>
        <time>2019-03-29T16:03:01Z</time>
        <name>WPT.405</name>
      </trkpt>
      <trkpt lat="35.091382150" lon="-106.440837240">
        <ele>2088.000</ele>
        <time>2019-03-29T16:03:06Z</time>
        <name>WPT.406</name>
      </trkpt>
      <trkpt lat="35.091414310" lon="-106.440808950">
        <ele>2089.000</ele>
        <time>2019-03-29T16:03:10Z</time>
        <name>WPT.407</name>
      </trkpt>
      <trkpt lat="35.091452440" lon="-106.440790370">
        <ele>2090.000</ele>
        <time>2019-03-29T16:03:13Z</time>
        <name>WPT.408</name>
      </trkpt>
      <trkpt lat="35.091484700" lon="-106.440770300">
        <ele>2090.000</ele>
        <time>2019-03-29T16:03:16Z</time>
        <name>WPT.409</name>
      </trkpt>
      <trkpt lat="35.091525840" lon="-106.440738410">
        <ele>2090.000</ele>
        <time>2019-03-29T16:03:20Z</time>
        <name>WPT.410</name>
      </trkpt>
      <trkpt lat="35.091566640" lon="-106.440722770">
        <ele>2092.000</ele>
        <time>2019-03-29T16:03:24Z</time>
        <name>WPT.411</name>
      </trkpt>
      <trkpt lat="35.091610750" lon="-106.440708020">
        <ele>2094.000</ele>
        <time>2019-03-29T16:03:29Z</time>
        <name>WPT.412</name>
      </trkpt>
      <trkpt lat="35.091645660" lon="-106.440693310">
        <ele>2095.000</ele>
        <time>2019-03-29T16:03:33Z</time>
        <name>WPT.413</name>
      </trkpt>
      <trkpt lat="35.091687750" lon="-106.440680070">
        <ele>2096.000</ele>
        <time>2019-03-29T16:03:37Z</time>
        <name>WPT.414</name>
      </trkpt>
      <trkpt lat="35.091719740" lon="-106.440652240">
        <ele>2097.000</ele>
        <time>2019-03-29T16:03:41Z</time>
        <name>WPT.415</name>
      </trkpt>
      <trkpt lat="35.091763650" lon="-106.440642210">
        <ele>2097.000</ele>
        <time>2019-03-29T16:03:45Z</time>
        <name>WPT.416</name>
      </trkpt>
      <trkpt lat="35.091796840" lon="-106.440619080">
        <ele>2097.000</ele>
        <time>2019-03-29T16:03:49Z</time>
        <name>WPT.417</name>
      </trkpt>
      <trkpt lat="35.091829950" lon="-106.440588660">
        <ele>2097.000</ele>
        <time>2019-03-29T16:03:52Z</time>
        <name>WPT.418</name>
      </trkpt>
      <trkpt lat="35.091870610" lon="-106.440579600">
        <ele>2098.000</ele>
        <time>2019-03-29T16:03:56Z</time>
        <name>WPT.419</name>
      </trkpt>
      <trkpt lat="35.091906690" lon="-106.440571370">
        <ele>2099.000</ele>
        <time>2019-03-29T16:03:59Z</time>
        <name>WPT.420</name>
      </trkpt>
      <trkpt lat="35.091944560" lon="-106.440558980">
        <ele>2098.000</ele>
        <time>2019-03-29T16:04:03Z</time>
        <name>WPT.421</name>
      </trkpt>
      <trkpt lat="35.091985060" lon="-106.440554810">
        <ele>2099.000</ele>
        <time>2019-03-29T16:04:08Z</time>
        <name>WPT.422</name>
      </trkpt>
      <trkpt lat="35.092009120" lon="-106.440520560">
        <ele>2098.000</ele>
        <time>2019-03-29T16:04:11Z</time>
        <name>WPT.423</name>
      </trkpt>
      <trkpt lat="35.092035960" lon="-106.440491150">
        <ele>2099.000</ele>
        <time>2019-03-29T16:04:15Z</time>
        <name>WPT.424</name>
      </trkpt>
      <trkpt lat="35.092064300" lon="-106.440457830">
        <ele>2100.000</ele>
        <time>2019-03-29T16:04:19Z</time>
        <name>WPT.425</name>
      </trkpt>
      <trkpt lat="35.092098240" lon="-106.440428460">
        <ele>2101.000</ele>
        <time>2019-03-29T16:04:24Z</time>
        <name>WPT.426</name>
      </trkpt>
      <trkpt lat="35.092136530" lon="-106.440438890">
        <ele>2102.000</ele>
        <time>2019-03-29T16:04:28Z</time>
        <name>WPT.427</name>
      </trkpt>
      <trkpt lat="35.092180200" lon="-106.440439630">
        <ele>2103.000</ele>
        <time>2019-03-29T16:04:33Z</time>
        <name>WPT.428</name>
      </trkpt>
      <trkpt lat="35.092226350" lon="-106.440430730">
        <ele>2101.000</ele>
        <time>2019-03-29T16:04:37Z</time>
        <name>WPT.429</name>
      </trkpt>
      <trkpt lat="35.092270670" lon="-106.440432000">
        <ele>2102.000</ele>
        <time>2019-03-29T16:04:41Z</time>
        <name>WPT.430</name>
      </trkpt>
      <trkpt lat="35.092314840" lon="-106.440419010">
        <ele>2102.000</ele>
        <time>2019-03-29T16:04:45Z</time>
        <name>WPT.431</name>
      </trkpt>
      <trkpt lat="35.092362600" lon="-106.440411080">
        <ele>2102.000</ele>
        <time>2019-03-29T16:04:49Z</time>
        <name>WPT.432</name>
      </trkpt>
      <trkpt lat="35.092401640" lon="-106.440405120">
        <ele>2103.000</ele>
        <time>2019-03-29T16:04:52Z</time>
        <name>WPT.433</name>
      </trkpt>
      <trkpt lat="35.092439440" lon="-106.440400360">
        <ele>2102.000</ele>
        <time>2019-03-29T16:04:56Z</time>
        <name>WPT.434</name>
      </trkpt>
      <trkpt lat="35.092482150" lon="-106.440398700">
        <ele>2104.000</ele>
        <time>2019-03-29T16:05:00Z</time>
        <name>WPT.435</name>
      </trkpt>
      <trkpt lat="35.092508530" lon="-106.440430740">
        <ele>2104.000</ele>
        <time>2019-03-29T16:05:03Z</time>
        <name>WPT.436</name>
      </trkpt>
      <trkpt lat="35.092537420" lon="-106.440460330">
        <ele>2105.000</ele>
        <time>2019-03-29T16:05:06Z</time>
        <name>WPT.437</name>
      </trkpt>
      <trkpt lat="35.092559510" lon="-106.440505090">
        <ele>2106.000</ele>
        <time>2019-03-29T16:05:10Z</time>
        <name>WPT.438</name>
      </trkpt>
      <trkpt lat="35.092586700" lon="-106.440537150">
        <ele>2106.000</ele>
        <time>2019-03-29T16:05:13Z</time>
        <name>WPT.439</name>
      </trkpt>
      <trkpt lat="35.092623540" lon="-106.440550490">
        <ele>2104.000</ele>
        <time>2019-03-29T16:05:16Z</time>
        <name>WPT.440</name>
      </trkpt>
      <trkpt lat="35.092655060" lon="-106.440576090">
        <ele>2105.000</ele>
        <time>2019-03-29T16:05:19Z</time>
        <name>WPT.441</name>
      </trkpt>
      <trkpt lat="35.092699950" lon="-106.440602600">
        <ele>2105.000</ele>
        <time>2019-03-29T16:05:24Z</time>
        <name>WPT.442</name>
      </trkpt>
      <trkpt lat="35.092743850" lon="-106.440604260">
        <ele>2104.000</ele>
        <time>2019-03-29T16:05:28Z</time>
        <name>WPT.443</name>
      </trkpt>
      <trkpt lat="35.092781260" lon="-106.440622620">
        <ele>2104.000</ele>
        <time>2019-03-29T16:05:32Z</time>
        <name>WPT.444</name>
      </trkpt>
      <trkpt lat="35.092822880" lon="-106.440641270">
        <ele>2104.000</ele>
        <time>2019-03-29T16:05:36Z</time>
        <name>WPT.445</name>
      </trkpt>
      <trkpt lat="35.092860350" lon="-106.440674340">
        <ele>2106.000</ele>
        <time>2019-03-29T16:05:40Z</time>
        <name>WPT.446</name>
      </trkpt>
      <trkpt lat="35.092899480" lon="-106.440676930">
        <ele>2105.000</ele>
        <time>2019-03-29T16:05:43Z</time>
        <name>WPT.447</name>
      </trkpt>
      <trkpt lat="35.092935170" lon="-106.440695170">
        <ele>2105.000</ele>
        <time>2019-03-29T16:05:48Z</time>
        <name>WPT.448</name>
      </trkpt>
      <trkpt lat="35.092954780" lon="-106.440735800">
        <ele>2105.000</ele>
        <time>2019-03-29T16:06:20Z</time>
        <name>WPT.449</name>
      </trkpt>
      <trkpt lat="35.092992500" lon="-106.440761920">
        <ele>2105.000</ele>
        <time>2019-03-29T16:06:25Z</time>
        <name>WPT.450</name>
      </trkpt>
      <trkpt lat="35.093031840" lon="-106.440791300">
        <ele>2106.000</ele>
        <time>2019-03-29T16:06:29Z</time>
        <name>WPT.451</name>
      </trkpt>
      <trkpt lat="35.093059140" lon="-106.440831350">
        <ele>2105.000</ele>
        <time>2019-03-29T16:06:35Z</time>
        <name>WPT.452</name>
      </trkpt>
      <trkpt lat="35.093099880" lon="-106.440852590">
        <ele>2104.000</ele>
        <time>2019-03-29T16:06:39Z</time>
        <name>WPT.453</name>
      </trkpt>
      <trkpt lat="35.093128870" lon="-106.440894980">
        <ele>2105.000</ele>
        <time>2019-03-29T16:06:43Z</time>
        <name>WPT.454</name>
      </trkpt>
      <trkpt lat="35.093159020" lon="-106.440919310">
        <ele>2106.000</ele>
        <time>2019-03-29T16:06:46Z</time>
        <name>WPT.455</name>
      </trkpt>
      <trkpt lat="35.093198140" lon="-106.440918310">
        <ele>2105.000</ele>
        <time>2019-03-29T16:06:49Z</time>
        <name>WPT.456</name>
      </trkpt>
      <trkpt lat="35.093240630" lon="-106.440916520">
        <ele>2106.000</ele>
        <time>2019-03-29T16:06:54Z</time>
        <name>WPT.457</name>
      </trkpt>
      <trkpt lat="35.093280900" lon="-106.440907090">
        <ele>2107.000</ele>
        <time>2019-03-29T16:06:59Z</time>
        <name>WPT.458</name>
      </trkpt>
      <trkpt lat="35.093320080" lon="-106.440900680">
        <ele>2107.000</ele>
        <time>2019-03-29T16:07:03Z</time>
        <name>WPT.459</name>
      </trkpt>
      <trkpt lat="35.093363440" lon="-106.440892170">
        <ele>2107.000</ele>
        <time>2019-03-29T16:07:08Z</time>
        <name>WPT.460</name>
      </trkpt>
      <trkpt lat="35.093406400" lon="-106.440884690">
        <ele>2107.000</ele>
        <time>2019-03-29T16:07:12Z</time>
        <name>WPT.461</name>
      </trkpt>
      <trkpt lat="35.093448480" lon="-106.440870020">
        <ele>2108.000</ele>
        <time>2019-03-29T16:07:16Z</time>
        <name>WPT.462</name>
      </trkpt>
      <trkpt lat="35.093484120" lon="-106.440848160">
        <ele>2108.000</ele>
        <time>2019-03-29T16:07:20Z</time>
        <name>WPT.463</name>
      </trkpt>
      <trkpt lat="35.093518270" lon="-106.440824460">
        <ele>2109.000</ele>
        <time>2019-03-29T16:07:24Z</time>
        <name>WPT.464</name>
      </trkpt>
      <trkpt lat="35.093558770" lon="-106.440804680">
        <ele>2110.000</ele>
        <time>2019-03-29T16:07:28Z</time>
        <name>WPT.465</name>
      </trkpt>
      <trkpt lat="35.093598540" lon="-106.440783730">
        <ele>2112.000</ele>
        <time>2019-03-29T16:07:33Z</time>
        <name>WPT.466</name>
      </trkpt>
      <trkpt lat="35.093636320" lon="-106.440772200">
        <ele>2113.000</ele>
        <time>2019-03-29T16:07:38Z</time>
        <name>WPT.467</name>
      </trkpt>
      <trkpt lat="35.093680670" lon="-106.440778020">
        <ele>2120.000</ele>
        <time>2019-03-29T16:08:05Z</time>
        <name>WPT.468</name>
      </trkpt>
      <trkpt lat="35.093715310" lon="-106.440763130">
        <ele>2121.000</ele>
        <time>2019-03-29T16:08:09Z</time>
        <name>WPT.469</name>
      </trkpt>
      <trkpt lat="35.093752450" lon="-106.440753510">
        <ele>2121.000</ele>
        <time>2019-03-29T16:08:13Z</time>
        <name>WPT.470</name>
      </trkpt>
      <trkpt lat="35.093798280" lon="-106.440750150">
        <ele>2121.000</ele>
        <time>2019-03-29T16:08:18Z</time>
        <name>WPT.471</name>
      </trkpt>
      <trkpt lat="35.093837190" lon="-106.440749130">
        <ele>2121.000</ele>
        <time>2019-03-29T16:08:23Z</time>
        <name>WPT.472</name>
      </trkpt>
      <trkpt lat="35.093877100" lon="-106.440747610">
        <ele>2119.000</ele>
        <time>2019-03-29T16:08:28Z</time>
        <name>WPT.473</name>
      </trkpt>
      <trkpt lat="35.093919410" lon="-106.440747330">
        <ele>2120.000</ele>
        <time>2019-03-29T16:08:33Z</time>
        <name>WPT.474</name>
      </trkpt>
      <trkpt lat="35.093957640" lon="-106.440752810">
        <ele>2120.000</ele>
        <time>2019-03-29T16:08:37Z</time>
        <name>WPT.475</name>
      </trkpt>
      <trkpt lat="35.093997390" lon="-106.440754330">
        <ele>2120.000</ele>
        <time>2019-03-29T16:08:43Z</time>
        <name>WPT.476</name>
      </trkpt>
      <trkpt lat="35.094034120" lon="-106.440757170">
        <ele>2121.000</ele>
        <time>2019-03-29T16:08:47Z</time>
        <name>WPT.477</name>
      </trkpt>
      <trkpt lat="35.094072940" lon="-106.440768460">
        <ele>2121.000</ele>
        <time>2019-03-29T16:08:51Z</time>
        <name>WPT.478</name>
      </trkpt>
      <trkpt lat="35.094105030" lon="-106.440798540">
        <ele>2120.000</ele>
        <time>2019-03-29T16:08:55Z</time>
        <name>WPT.479</name>
      </trkpt>
      <trkpt lat="35.094132280" lon="-106.440831800">
        <ele>2123.000</ele>
        <time>2019-03-29T16:08:59Z</time>
        <name>WPT.480</name>
      </trkpt>
      <trkpt lat="35.094164920" lon="-106.440857800">
        <ele>2122.000</ele>
        <time>2019-03-29T16:09:03Z</time>
        <name>WPT.481</name>
      </trkpt>
      <trkpt lat="35.094196940" lon="-106.440878790">
        <ele>2123.000</ele>
        <time>2019-03-29T16:09:07Z</time>
        <name>WPT.482</name>
      </trkpt>
      <trkpt lat="35.094236220" lon="-106.440887050">
        <ele>2122.000</ele>
        <time>2019-03-29T16:09:11Z</time>
        <name>WPT.483</name>
      </trkpt>
      <trkpt lat="35.094271440" lon="-106.440874000">
        <ele>2124.000</ele>
        <time>2019-03-29T16:09:32Z</time>
        <name>WPT.484</name>
      </trkpt>
      <trkpt lat="35.094311560" lon="-106.440872430">
        <ele>2125.000</ele>
        <time>2019-03-29T16:10:24Z</time>
        <name>WPT.485</name>
      </trkpt>
      <trkpt lat="35.094357370" lon="-106.440861940">
        <ele>2124.000</ele>
        <time>2019-03-29T16:10:28Z</time>
        <name>WPT.486</name>
      </trkpt>
      <trkpt lat="35.094394770" lon="-106.440865670">
        <ele>2123.000</ele>
        <time>2019-03-29T16:10:32Z</time>
        <name>WPT.487</name>
      </trkpt>
      <trkpt lat="35.094438190" lon="-106.440863080">
        <ele>2123.000</ele>
        <time>2019-03-29T16:10:36Z</time>
        <name>WPT.488</name>
      </trkpt>
      <trkpt lat="35.094471520" lon="-106.440846330">
        <ele>2124.000</ele>
        <time>2019-03-29T16:10:39Z</time>
        <name>WPT.489</name>
      </trkpt>
      <trkpt lat="35.094508270" lon="-106.440838010">
        <ele>2123.000</ele>
        <time>2019-03-29T16:10:44Z</time>
        <name>WPT.490</name>
      </trkpt>
      <trkpt lat="35.094551020" lon="-106.440845370">
        <ele>2123.000</ele>
        <time>2019-03-29T16:10:48Z</time>
        <name>WPT.491</name>
      </trkpt>
      <trkpt lat="35.094589680" lon="-106.440830220">
        <ele>2124.000</ele>
        <time>2019-03-29T16:10:51Z</time>
        <name>WPT.492</name>
      </trkpt>
      <trkpt lat="35.094630020" lon="-106.440828520">
        <ele>2125.000</ele>
        <time>2019-03-29T16:10:55Z</time>
        <name>WPT.493</name>
      </trkpt>
      <trkpt lat="35.094673810" lon="-106.440830740">
        <ele>2126.000</ele>
        <time>2019-03-29T16:10:59Z</time>
        <name>WPT.494</name>
      </trkpt>
      <trkpt lat="35.094709750" lon="-106.440824050">
        <ele>2128.000</ele>
        <time>2019-03-29T16:11:03Z</time>
        <name>WPT.495</name>
      </trkpt>
      <trkpt lat="35.094745470" lon="-106.440809680">
        <ele>2129.000</ele>
        <time>2019-03-29T16:11:07Z</time>
        <name>WPT.496</name>
      </trkpt>
      <trkpt lat="35.094784560" lon="-106.440820630">
        <ele>2130.000</ele>
        <time>2019-03-29T16:11:38Z</time>
        <name>WPT.497</name>
      </trkpt>
      <trkpt lat="35.094828300" lon="-106.440826380">
        <ele>2130.000</ele>
        <time>2019-03-29T16:11:42Z</time>
        <name>WPT.498</name>
      </trkpt>
      <trkpt lat="35.094869470" lon="-106.440808820">
        <ele>2129.000</ele>
        <time>2019-03-29T16:11:46Z</time>
        <name>WPT.499</name>
      </trkpt>
      <trkpt lat="35.094911040" lon="-106.440802480">
        <ele>2130.000</ele>
        <time>2019-03-29T16:11:50Z</time>
        <name>WPT.500</name>
      </trkpt>
      <trkpt lat="35.094949480" lon="-106.440802350">
        <ele>2130.000</ele>
        <time>2019-03-29T16:11:54Z</time>
        <name>WPT.501</name>
      </trkpt>
      <trkpt lat="35.094988970" lon="-106.440802530">
        <ele>2130.000</ele>
        <time>2019-03-29T16:11:59Z</time>
        <name>WPT.502</name>
      </trkpt>
      <trkpt lat="35.095022840" lon="-106.440818430">
        <ele>2132.000</ele>
        <time>2019-03-29T16:12:15Z</time>
        <name>WPT.503</name>
      </trkpt>
      <trkpt lat="35.095059600" lon="-106.440802830">
        <ele>2134.000</ele>
        <time>2019-03-29T16:13:07Z</time>
        <name>WPT.504</name>
      </trkpt>
      <trkpt lat="35.095099790" lon="-106.440801760">
        <ele>2136.000</ele>
        <time>2019-03-29T16:13:24Z</time>
        <name>WPT.505</name>
      </trkpt>
      <trkpt lat="35.095137830" lon="-106.440795730">
        <ele>2136.000</ele>
        <time>2019-03-29T16:13:38Z</time>
        <name>WPT.506</name>
      </trkpt>
      <trkpt lat="35.095179430" lon="-106.440791060">
        <ele>2136.000</ele>
        <time>2019-03-29T16:13:42Z</time>
        <name>WPT.507</name>
      </trkpt>
      <trkpt lat="35.095217840" lon="-106.440782910">
        <ele>2136.000</ele>
        <time>2019-03-29T16:13:54Z</time>
        <name>WPT.508</name>
      </trkpt>
      <trkpt lat="35.095261810" lon="-106.440773790">
        <ele>2136.000</ele>
        <time>2019-03-29T16:13:58Z</time>
        <name>WPT.509</name>
      </trkpt>
      <trkpt lat="35.095300780" lon="-106.440776990">
        <ele>2137.000</ele>
        <time>2019-03-29T16:14:02Z</time>
        <name>WPT.510</name>
      </trkpt>
      <trkpt lat="35.095344990" lon="-106.440763700">
        <ele>2136.000</ele>
        <time>2019-03-29T16:14:06Z</time>
        <name>WPT.511</name>
      </trkpt>
      <trkpt lat="35.095383700" lon="-106.440743360">
        <ele>2135.000</ele>
        <time>2019-03-29T16:14:10Z</time>
        <name>WPT.512</name>
      </trkpt>
      <trkpt lat="35.095419830" lon="-106.440739130">
        <ele>2136.000</ele>
        <time>2019-03-29T16:14:14Z</time>
        <name>WPT.513</name>
      </trkpt>
      <trkpt lat="35.095467340" lon="-106.440729590">
        <ele>2136.000</ele>
        <time>2019-03-29T16:14:18Z</time>
        <name>WPT.514</name>
      </trkpt>
      <trkpt lat="35.095502460" lon="-106.440715160">
        <ele>2134.000</ele>
        <time>2019-03-29T16:14:23Z</time>
        <name>WPT.515</name>
      </trkpt>
      <trkpt lat="35.095539320" lon="-106.440718640">
        <ele>2139.000</ele>
        <time>2019-03-29T16:14:28Z</time>
        <name>WPT.516</name>
      </trkpt>
      <trkpt lat="35.095574720" lon="-106.440700920">
        <ele>2139.000</ele>
        <time>2019-03-29T16:14:50Z</time>
        <name>WPT.517</name>
      </trkpt>
      <trkpt lat="35.095612180" lon="-106.440715550">
        <ele>2141.000</ele>
        <time>2019-03-29T16:14:55Z</time>
        <name>WPT.518</name>
      </trkpt>
      <trkpt lat="35.095655070" lon="-106.440729570">
        <ele>2142.000</ele>
        <time>2019-03-29T16:14:59Z</time>
        <name>WPT.519</name>
      </trkpt>
      <trkpt lat="35.095690480" lon="-106.440717210">
        <ele>2143.000</ele>
        <time>2019-03-29T16:15:04Z</time>
        <name>WPT.520</name>
      </trkpt>
      <trkpt lat="35.095735130" lon="-106.440715610">
        <ele>2140.000</ele>
        <time>2019-03-29T16:15:08Z</time>
        <name>WPT.521</name>
      </trkpt>
      <trkpt lat="35.095772880" lon="-106.440704200">
        <ele>2142.000</ele>
        <time>2019-03-29T16:15:32Z</time>
        <name>WPT.522</name>
      </trkpt>
      <trkpt lat="35.095817660" lon="-106.440697970">
        <ele>2144.000</ele>
        <time>2019-03-29T16:15:55Z</time>
        <name>WPT.523</name>
      </trkpt>
      <trkpt lat="35.095854020" lon="-106.440691520">
        <ele>2146.000</ele>
        <time>2019-03-29T16:16:03Z</time>
        <name>WPT.524</name>
      </trkpt>
      <trkpt lat="35.095888180" lon="-106.440674830">
        <ele>2146.000</ele>
        <time>2019-03-29T16:16:21Z</time>
        <name>WPT.525</name>
      </trkpt>
      <trkpt lat="35.095923670" lon="-106.440663960">
        <ele>2147.000</ele>
        <time>2019-03-29T16:17:11Z</time>
        <name>WPT.526</name>
      </trkpt>
      <trkpt lat="35.095893050" lon="-106.440694520">
        <ele>2147.000</ele>
        <time>2019-03-29T16:18:04Z</time>
        <name>WPT.527</name>
      </trkpt>
      <trkpt lat="35.095877190" lon="-106.440741490">
        <ele>2148.000</ele>
        <time>2019-03-29T16:18:08Z</time>
        <name>WPT.528</name>
      </trkpt>
      <trkpt lat="35.095905430" lon="-106.440782060">
        <ele>2148.000</ele>
        <time>2019-03-29T16:18:13Z</time>
        <name>WPT.529</name>
      </trkpt>
      <trkpt lat="35.095936690" lon="-106.440818650">
        <ele>2148.000</ele>
        <time>2019-03-29T16:18:18Z</time>
        <name>WPT.530</name>
      </trkpt>
      <trkpt lat="35.095974040" lon="-106.440830580">
        <ele>2149.000</ele>
        <time>2019-03-29T16:18:23Z</time>
        <name>WPT.531</name>
      </trkpt>
      <trkpt lat="35.096013050" lon="-106.440822440">
        <ele>2149.000</ele>
        <time>2019-03-29T16:18:27Z</time>
        <name>WPT.532</name>
      </trkpt>
      <trkpt lat="35.096047150" lon="-106.440803070">
        <ele>2149.000</ele>
        <time>2019-03-29T16:18:31Z</time>
        <name>WPT.533</name>
      </trkpt>
      <trkpt lat="35.096076430" lon="-106.440772560">
        <ele>2150.000</ele>
        <time>2019-03-29T16:18:37Z</time>
        <name>WPT.534</name>
      </trkpt>
      <trkpt lat="35.096112550" lon="-106.440790940">
        <ele>2151.000</ele>
        <time>2019-03-29T16:18:43Z</time>
        <name>WPT.535</name>
      </trkpt>
      <trkpt lat="35.096150030" lon="-106.440776830">
        <ele>2153.000</ele>
        <time>2019-03-29T16:18:48Z</time>
        <name>WPT.536</name>
      </trkpt>
      <trkpt lat="35.096191880" lon="-106.440765230">
        <ele>2154.000</ele>
        <time>2019-03-29T16:18:53Z</time>
        <name>WPT.537</name>
      </trkpt>
      <trkpt lat="35.096230140" lon="-106.440753860">
        <ele>2155.000</ele>
        <time>2019-03-29T16:18:59Z</time>
        <name>WPT.538</name>
      </trkpt>
      <trkpt lat="35.096267830" lon="-106.440741320">
        <ele>2155.000</ele>
        <time>2019-03-29T16:19:04Z</time>
        <name>WPT.539</name>
      </trkpt>
      <trkpt lat="35.096308290" lon="-106.440733640">
        <ele>2156.000</ele>
        <time>2019-03-29T16:19:10Z</time>
        <name>WPT.540</name>
      </trkpt>
      <trkpt lat="35.096347710" lon="-106.440729360">
        <ele>2156.000</ele>
        <time>2019-03-29T16:19:15Z</time>
        <name>WPT.541</name>
      </trkpt>
      <trkpt lat="35.096387930" lon="-106.440719080">
        <ele>2156.000</ele>
        <time>2019-03-29T16:19:21Z</time>
        <name>WPT.542</name>
      </trkpt>
      <trkpt lat="35.096425420" lon="-106.440704100">
        <ele>2157.000</ele>
        <time>2019-03-29T16:19:28Z</time>
        <name>WPT.543</name>
      </trkpt>
      <trkpt lat="35.096463450" lon="-106.440702870">
        <ele>2157.000</ele>
        <time>2019-03-29T16:19:34Z</time>
        <name>WPT.544</name>
      </trkpt>
      <trkpt lat="35.096498180" lon="-106.440672540">
        <ele>2158.000</ele>
        <time>2019-03-29T16:19:41Z</time>
        <name>WPT.545</name>
      </trkpt>
      <trkpt lat="35.096524020" lon="-106.440637120">
        <ele>2159.000</ele>
        <time>2019-03-29T16:19:55Z</time>
        <name>WPT.546</name>
      </trkpt>
      <trkpt lat="35.096558200" lon="-106.440608500">
        <ele>2158.000</ele>
        <time>2019-03-29T16:20:00Z</time>
        <name>WPT.547</name>
      </trkpt>
      <trkpt lat="35.096595890" lon="-106.440589230">
        <ele>2160.000</ele>
        <time>2019-03-29T16:20:05Z</time>
        <name>WPT.548</name>
      </trkpt>
      <trkpt lat="35.096635080" lon="-106.440571030">
        <ele>2160.000</ele>
        <time>2019-03-29T16:20:10Z</time>
        <name>WPT.549</name>
      </trkpt>
      <trkpt lat="35.096670580" lon="-106.440559650">
        <ele>2163.000</ele>
        <time>2019-03-29T16:20:17Z</time>
        <name>WPT.550</name>
      </trkpt>
      <trkpt lat="35.096697570" lon="-106.440519650">
        <ele>2164.000</ele>
        <time>2019-03-29T16:20:23Z</time>
        <name>WPT.551</name>
      </trkpt>
      <trkpt lat="35.096735660" lon="-106.440492890">
        <ele>2164.000</ele>
        <time>2019-03-29T16:20:29Z</time>
        <name>WPT.552</name>
      </trkpt>
      <trkpt lat="35.096772570" lon="-106.440487480">
        <ele>2166.000</ele>
        <time>2019-03-29T16:20:34Z</time>
        <name>WPT.553</name>
      </trkpt>
      <trkpt lat="35.096805730" lon="-106.440515110">
        <ele>2165.000</ele>
        <time>2019-03-29T16:20:52Z</time>
        <name>WPT.554</name>
      </trkpt>
      <trkpt lat="35.096768660" lon="-106.440520010">
        <ele>2167.000</ele>
        <time>2019-03-29T16:21:14Z</time>
        <name>WPT.555</name>
      </trkpt>
      <trkpt lat="35.096738010" lon="-106.440549750">
        <ele>2168.000</ele>
        <time>2019-03-29T16:21:19Z</time>
        <name>WPT.556</name>
      </trkpt>
      <trkpt lat="35.096710780" lon="-106.440582880">
        <ele>2168.000</ele>
        <time>2019-03-29T16:21:27Z</time>
        <name>WPT.557</name>
      </trkpt>
      <trkpt lat="35.096697270" lon="-106.440628190">
        <ele>2168.000</ele>
        <time>2019-03-29T16:21:53Z</time>
        <name>WPT.558</name>
      </trkpt>
      <trkpt lat="35.096669120" lon="-106.440657530">
        <ele>2167.000</ele>
        <time>2019-03-29T16:21:57Z</time>
        <name>WPT.559</name>
      </trkpt>
      <trkpt lat="35.096632600" lon="-106.440680110">
        <ele>2168.000</ele>
        <time>2019-03-29T16:22:01Z</time>
        <name>WPT.560</name>
      </trkpt>
      <trkpt lat="35.096602450" lon="-106.440721740">
        <ele>2167.000</ele>
        <time>2019-03-29T16:22:05Z</time>
        <name>WPT.561</name>
      </trkpt>
      <trkpt lat="35.096570790" lon="-106.440764870">
        <ele>2167.000</ele>
        <time>2019-03-29T16:22:09Z</time>
        <name>WPT.562</name>
      </trkpt>
      <trkpt lat="35.096541100" lon="-106.440802650">
        <ele>2165.000</ele>
        <time>2019-03-29T16:22:13Z</time>
        <name>WPT.563</name>
      </trkpt>
      <trkpt lat="35.096525720" lon="-106.440852540">
        <ele>2165.000</ele>
        <time>2019-03-29T16:22:17Z</time>
        <name>WPT.564</name>
      </trkpt>
      <trkpt lat="35.096521030" lon="-106.440902900">
        <ele>2167.000</ele>
        <time>2019-03-29T16:22:21Z</time>
        <name>WPT.565</name>
      </trkpt>
      <trkpt lat="35.096542760" lon="-106.440940860">
        <ele>2167.000</ele>
        <time>2019-03-29T16:22:24Z</time>
        <name>WPT.566</name>
      </trkpt>
      <trkpt lat="35.096571050" lon="-106.440982900">
        <ele>2167.000</ele>
        <time>2019-03-29T16:22:28Z</time>
        <name>WPT.567</name>
      </trkpt>
      <trkpt lat="35.096606290" lon="-106.441014480">
        <ele>2167.000</ele>
        <time>2019-03-29T16:22:32Z</time>
        <name>WPT.568</name>
      </trkpt>
      <trkpt lat="35.096625110" lon="-106.441053250">
        <ele>2167.000</ele>
        <time>2019-03-29T16:22:36Z</time>
        <name>WPT.569</name>
      </trkpt>
      <trkpt lat="35.096646890" lon="-106.441093800">
        <ele>2168.000</ele>
        <time>2019-03-29T16:22:40Z</time>
        <name>WPT.570</name>
      </trkpt>
      <trkpt lat="35.096670050" lon="-106.441129990">
        <ele>2168.000</ele>
        <time>2019-03-29T16:22:44Z</time>
        <name>WPT.571</name>
      </trkpt>
      <trkpt lat="35.096675510" lon="-106.441179940">
        <ele>2169.000</ele>
        <time>2019-03-29T16:22:48Z</time>
        <name>WPT.572</name>
      </trkpt>
      <trkpt lat="35.096656050" lon="-106.441230750">
        <ele>2170.000</ele>
        <time>2019-03-29T16:22:53Z</time>
        <name>WPT.573</name>
      </trkpt>
      <trkpt lat="35.096649940" lon="-106.441279890">
        <ele>2172.000</ele>
        <time>2019-03-29T16:22:57Z</time>
        <name>WPT.574</name>
      </trkpt>
      <trkpt lat="35.096667540" lon="-106.441332110">
        <ele>2173.000</ele>
        <time>2019-03-29T16:23:02Z</time>
        <name>WPT.575</name>
      </trkpt>
      <trkpt lat="35.096695330" lon="-106.441370630">
        <ele>2173.000</ele>
        <time>2019-03-29T16:23:07Z</time>
        <name>WPT.576</name>
      </trkpt>
      <trkpt lat="35.096732950" lon="-106.441392970">
        <ele>2173.000</ele>
        <time>2019-03-29T16:23:34Z</time>
        <name>WPT.577</name>
      </trkpt>
      <trkpt lat="35.096756910" lon="-106.441426740">
        <ele>2173.000</ele>
        <time>2019-03-29T16:23:38Z</time>
        <name>WPT.578</name>
      </trkpt>
      <trkpt lat="35.096787370" lon="-106.441458990">
        <ele>2173.000</ele>
        <time>2019-03-29T16:23:42Z</time>
        <name>WPT.579</name>
      </trkpt>
      <trkpt lat="35.096813000" lon="-106.441498780">
        <ele>2172.000</ele>
        <time>2019-03-29T16:23:47Z</time>
        <name>WPT.580</name>
      </trkpt>
      <trkpt lat="35.096830400" lon="-106.441538470">
        <ele>2171.000</ele>
        <time>2019-03-29T16:23:51Z</time>
        <name>WPT.581</name>
      </trkpt>
      <trkpt lat="35.096864040" lon="-106.441569790">
        <ele>2172.000</ele>
        <time>2019-03-29T16:23:56Z</time>
        <name>WPT.582</name>
      </trkpt>
      <trkpt lat="35.096898500" lon="-106.441601620">
        <ele>2173.000</ele>
        <time>2019-03-29T16:24:01Z</time>
        <name>WPT.583</name>
      </trkpt>
      <trkpt lat="35.096927600" lon="-106.441632240">
        <ele>2173.000</ele>
        <time>2019-03-29T16:24:06Z</time>
        <name>WPT.584</name>
      </trkpt>
      <trkpt lat="35.096938680" lon="-106.441678140">
        <ele>2174.000</ele>
        <time>2019-03-29T16:25:28Z</time>
        <name>WPT.585</name>
      </trkpt>
      <trkpt lat="35.096970080" lon="-106.441708180">
        <ele>2174.000</ele>
        <time>2019-03-29T16:25:34Z</time>
        <name>WPT.586</name>
      </trkpt>
      <trkpt lat="35.096995780" lon="-106.441752330">
        <ele>2174.000</ele>
        <time>2019-03-29T16:25:39Z</time>
        <name>WPT.587</name>
      </trkpt>
      <trkpt lat="35.097023820" lon="-106.441789380">
        <ele>2174.000</ele>
        <time>2019-03-29T16:25:44Z</time>
        <name>WPT.588</name>
      </trkpt>
      <trkpt lat="35.097058520" lon="-106.441819120">
        <ele>2174.000</ele>
        <time>2019-03-29T16:25:49Z</time>
        <name>WPT.589</name>
      </trkpt>
      <trkpt lat="35.097088310" lon="-106.441855780">
        <ele>2175.000</ele>
        <time>2019-03-29T16:25:56Z</time>
        <name>WPT.590</name>
      </trkpt>
      <trkpt lat="35.097114020" lon="-106.441890160">
        <ele>2175.000</ele>
        <time>2019-03-29T16:26:01Z</time>
        <name>WPT.591</name>
      </trkpt>
      <trkpt lat="35.097144310" lon="-106.441914440">
        <ele>2176.000</ele>
        <time>2019-03-29T16:26:05Z</time>
        <name>WPT.592</name>
      </trkpt>
      <trkpt lat="35.097172300" lon="-106.441942170">
        <ele>2176.000</ele>
        <time>2019-03-29T16:26:09Z</time>
        <name>WPT.593</name>
      </trkpt>
      <trkpt lat="35.097203330" lon="-106.441967440">
        <ele>2177.000</ele>
        <time>2019-03-29T16:26:14Z</time>
        <name>WPT.594</name>
      </trkpt>
      <trkpt lat="35.097225580" lon="-106.442004530">
        <ele>2176.000</ele>
        <time>2019-03-29T16:26:19Z</time>
        <name>WPT.595</name>
      </trkpt>
      <trkpt lat="35.097258830" lon="-106.442034080">
        <ele>2177.000</ele>
        <time>2019-03-29T16:26:23Z</time>
        <name>WPT.596</name>
      </trkpt>
      <trkpt lat="35.097295340" lon="-106.442060130">
        <ele>2177.000</ele>
        <time>2019-03-29T16:26:27Z</time>
        <name>WPT.597</name>
      </trkpt>
      <trkpt lat="35.097331650" lon="-106.442079790">
        <ele>2179.000</ele>
        <time>2019-03-29T16:26:32Z</time>
        <name>WPT.598</name>
      </trkpt>
      <trkpt lat="35.097366260" lon="-106.442097070">
        <ele>2178.000</ele>
        <time>2019-03-29T16:26:36Z</time>
        <name>WPT.599</name>
      </trkpt>
      <trkpt lat="35.097407670" lon="-106.442125180">
        <ele>2178.000</ele>
        <time>2019-03-29T16:26:40Z</time>
        <name>WPT.600</name>
      </trkpt>
      <trkpt lat="35.097443690" lon="-106.442121880">
        <ele>2180.000</ele>
        <time>2019-03-29T16:26:55Z</time>
        <name>WPT.601</name>
      </trkpt>
      <trkpt lat="35.097475670" lon="-106.442153620">
        <ele>2179.000</ele>
        <time>2019-03-29T16:27:14Z</time>
        <name>WPT.602</name>
      </trkpt>
      <trkpt lat="35.097500580" lon="-106.442190360">
        <ele>2179.000</ele>
        <time>2019-03-29T16:27:18Z</time>
        <name>WPT.603</name>
      </trkpt>
      <trkpt lat="35.097532500" lon="-106.442228590">
        <ele>2179.000</ele>
        <time>2019-03-29T16:27:22Z</time>
        <name>WPT.604</name>
      </trkpt>
      <trkpt lat="35.097557250" lon="-106.442264100">
        <ele>2179.000</ele>
        <time>2019-03-29T16:27:25Z</time>
        <name>WPT.605</name>
      </trkpt>
      <trkpt lat="35.097585830" lon="-106.442301260">
        <ele>2179.000</ele>
        <time>2019-03-29T16:27:30Z</time>
        <name>WPT.606</name>
      </trkpt>
      <trkpt lat="35.097621990" lon="-106.442295310">
        <ele>2180.000</ele>
        <time>2019-03-29T16:27:36Z</time>
        <name>WPT.607</name>
      </trkpt>
      <trkpt lat="35.097617780" lon="-106.442247300">
        <ele>2180.000</ele>
        <time>2019-03-29T16:27:42Z</time>
        <name>WPT.608</name>
      </trkpt>
      <trkpt lat="35.097603960" lon="-106.442199330">
        <ele>2181.000</ele>
        <time>2019-03-29T16:27:48Z</time>
        <name>WPT.609</name>
      </trkpt>
      <trkpt lat="35.097584450" lon="-106.442155480">
        <ele>2182.000</ele>
        <time>2019-03-29T16:27:53Z</time>
        <name>WPT.610</name>
      </trkpt>
      <trkpt lat="35.097567670" lon="-106.442109380">
        <ele>2183.000</ele>
        <time>2019-03-29T16:27:58Z</time>
        <name>WPT.611</name>
      </trkpt>
      <trkpt lat="35.097551280" lon="-106.442066850">
        <ele>2184.000</ele>
        <time>2019-03-29T16:28:04Z</time>
        <name>WPT.612</name>
      </trkpt>
      <trkpt lat="35.097519520" lon="-106.442024980">
        <ele>2185.000</ele>
        <time>2019-03-29T16:28:10Z</time>
        <name>WPT.613</name>
      </trkpt>
      <trkpt lat="35.097501530" lon="-106.441977470">
        <ele>2187.000</ele>
        <time>2019-03-29T16:28:16Z</time>
        <name>WPT.614</name>
      </trkpt>
      <trkpt lat="35.097475720" lon="-106.441946240">
        <ele>2188.000</ele>
        <time>2019-03-29T16:28:21Z</time>
        <name>WPT.615</name>
      </trkpt>
      <trkpt lat="35.097445300" lon="-106.441914380">
        <ele>2188.000</ele>
        <time>2019-03-29T16:28:26Z</time>
        <name>WPT.616</name>
      </trkpt>
      <trkpt lat="35.097428320" lon="-106.441872230">
        <ele>2190.000</ele>
        <time>2019-03-29T16:28:32Z</time>
        <name>WPT.617</name>
      </trkpt>
      <trkpt lat="35.097405600" lon="-106.441834040">
        <ele>2191.000</ele>
        <time>2019-03-29T16:28:37Z</time>
        <name>WPT.618</name>
      </trkpt>
      <trkpt lat="35.097382880" lon="-106.441788870">
        <ele>2192.000</ele>
        <time>2019-03-29T16:28:42Z</time>
        <name>WPT.619</name>
      </trkpt>
      <trkpt lat="35.097368730" lon="-106.441744180">
        <ele>2193.000</ele>
        <time>2019-03-29T16:28:47Z</time>
        <name>WPT.620</name>
      </trkpt>
      <trkpt lat="35.097358210" lon="-106.441696060">
        <ele>2192.000</ele>
        <time>2019-03-29T16:28:53Z</time>
        <name>WPT.621</name>
      </trkpt>
      <trkpt lat="35.097354920" lon="-106.441645660">
        <ele>2195.000</ele>
        <time>2019-03-29T16:29:00Z</time>
        <name>WPT.622</name>
      </trkpt>
      <trkpt lat="35.097340810" lon="-106.441599840">
        <ele>2197.000</ele>
        <time>2019-03-29T16:29:08Z</time>
        <name>WPT.623</name>
      </trkpt>
      <trkpt lat="35.097326380" lon="-106.441551210">
        <ele>2199.000</ele>
        <time>2019-03-29T16:29:14Z</time>
        <name>WPT.624</name>
      </trkpt>
      <trkpt lat="35.097340470" lon="-106.441506080">
        <ele>2199.000</ele>
        <time>2019-03-29T16:29:20Z</time>
        <name>WPT.625</name>
      </trkpt>
      <trkpt lat="35.097343380" lon="-106.441456780">
        <ele>2199.000</ele>
        <time>2019-03-29T16:29:25Z</time>
        <name>WPT.626</name>
      </trkpt>
      <trkpt lat="35.097347100" lon="-106.441402940">
        <ele>2203.000</ele>
        <time>2019-03-29T16:29:33Z</time>
        <name>WPT.627</name>
      </trkpt>
      <trkpt lat="35.097374110" lon="-106.441361770">
        <ele>2203.000</ele>
        <time>2019-03-29T16:29:39Z</time>
        <name>WPT.628</name>
      </trkpt>
      <trkpt lat="35.097395970" lon="-106.441325850">
        <ele>2205.000</ele>
        <time>2019-03-29T16:29:46Z</time>
        <name>WPT.629</name>
      </trkpt>
      <trkpt lat="35.097419890" lon="-106.441290890">
        <ele>2205.000</ele>
        <time>2019-03-29T16:29:51Z</time>
        <name>WPT.630</name>
      </trkpt>
      <trkpt lat="35.097451480" lon="-106.441252530">
        <ele>2204.000</ele>
        <time>2019-03-29T16:29:56Z</time>
        <name>WPT.631</name>
      </trkpt>
      <trkpt lat="35.097470150" lon="-106.441205730">
        <ele>2205.000</ele>
        <time>2019-03-29T16:30:01Z</time>
        <name>WPT.632</name>
      </trkpt>
      <trkpt lat="35.097484700" lon="-106.441162760">
        <ele>2204.000</ele>
        <time>2019-03-29T16:30:07Z</time>
        <name>WPT.633</name>
      </trkpt>
      <trkpt lat="35.097506130" lon="-106.441119170">
        <ele>2205.000</ele>
        <time>2019-03-29T16:30:13Z</time>
        <name>WPT.634</name>
      </trkpt>
      <trkpt lat="35.097525950" lon="-106.441079920">
        <ele>2205.000</ele>
        <time>2019-03-29T16:30:17Z</time>
        <name>WPT.635</name>
      </trkpt>
      <trkpt lat="35.097541160" lon="-106.441035050">
        <ele>2204.000</ele>
        <time>2019-03-29T16:30:22Z</time>
        <name>WPT.636</name>
      </trkpt>
      <trkpt lat="35.097553290" lon="-106.440985340">
        <ele>2206.000</ele>
        <time>2019-03-29T16:30:27Z</time>
        <name>WPT.637</name>
      </trkpt>
      <trkpt lat="35.097567580" lon="-106.440944590">
        <ele>2206.000</ele>
        <time>2019-03-29T16:30:54Z</time>
        <name>WPT.638</name>
      </trkpt>
      <trkpt lat="35.097581250" lon="-106.440895000">
        <ele>2208.000</ele>
        <time>2019-03-29T16:32:08Z</time>
        <name>WPT.639</name>
      </trkpt>
      <trkpt lat="35.097594870" lon="-106.440851060">
        <ele>2209.000</ele>
        <time>2019-03-29T16:32:13Z</time>
        <name>WPT.640</name>
      </trkpt>
      <trkpt lat="35.097614720" lon="-106.440807180">
        <ele>2210.000</ele>
        <time>2019-03-29T16:32:19Z</time>
        <name>WPT.641</name>
      </trkpt>
      <trkpt lat="35.097626270" lon="-106.440757000">
        <ele>2211.000</ele>
        <time>2019-03-29T16:32:24Z</time>
        <name>WPT.642</name>
      </trkpt>
      <trkpt lat="35.097632030" lon="-106.440712150">
        <ele>2211.000</ele>
        <time>2019-03-29T16:32:28Z</time>
        <name>WPT.643</name>
      </trkpt>
      <trkpt lat="35.097656810" lon="-106.440674650">
        <ele>2213.000</ele>
        <time>2019-03-29T16:32:32Z</time>
        <name>WPT.644</name>
      </trkpt>
      <trkpt lat="35.097679890" lon="-106.440639000">
        <ele>2216.000</ele>
        <time>2019-03-29T16:33:10Z</time>
        <name>WPT.645</name>
      </trkpt>
      <trkpt lat="35.097687420" lon="-106.440686760">
        <ele>2215.000</ele>
        <time>2019-03-29T16:33:17Z</time>
        <name>WPT.646</name>
      </trkpt>
      <trkpt lat="35.097687830" lon="-106.440736640">
        <ele>2215.000</ele>
        <time>2019-03-29T16:33:21Z</time>
        <name>WPT.647</name>
      </trkpt>
      <trkpt lat="35.097699850" lon="-106.440785460">
        <ele>2215.000</ele>
        <time>2019-03-29T16:33:25Z</time>
        <name>WPT.648</name>
      </trkpt>
      <trkpt lat="35.097718290" lon="-106.440826830">
        <ele>2216.000</ele>
        <time>2019-03-29T16:33:29Z</time>
        <name>WPT.649</name>
      </trkpt>
      <trkpt lat="35.097733540" lon="-106.440873640">
        <ele>2217.000</ele>
        <time>2019-03-29T16:33:33Z</time>
        <name>WPT.650</name>
      </trkpt>
      <trkpt lat="35.097753040" lon="-106.440920400">
        <ele>2216.000</ele>
        <time>2019-03-29T16:33:37Z</time>
        <name>WPT.651</name>
      </trkpt>
      <trkpt lat="35.097769680" lon="-106.440959670">
        <ele>2217.000</ele>
        <time>2019-03-29T16:33:41Z</time>
        <name>WPT.652</name>
      </trkpt>
      <trkpt lat="35.097793670" lon="-106.441002880">
        <ele>2217.000</ele>
        <time>2019-03-29T16:33:45Z</time>
        <name>WPT.653</name>
      </trkpt>
      <trkpt lat="35.097812260" lon="-106.441054820">
        <ele>2217.000</ele>
        <time>2019-03-29T16:33:49Z</time>
        <name>WPT.654</name>
      </trkpt>
      <trkpt lat="35.097826250" lon="-106.441098580">
        <ele>2217.000</ele>
        <time>2019-03-29T16:33:53Z</time>
        <name>WPT.655</name>
      </trkpt>
      <trkpt lat="35.097837610" lon="-106.441143920">
        <ele>2218.000</ele>
        <time>2019-03-29T16:35:52Z</time>
        <name>WPT.656</name>
      </trkpt>
      <trkpt lat="35.097852210" lon="-106.441195700">
        <ele>2220.000</ele>
        <time>2019-03-29T16:35:57Z</time>
        <name>WPT.657</name>
      </trkpt>
      <trkpt lat="35.097849390" lon="-106.441242210">
        <ele>2222.000</ele>
        <time>2019-03-29T16:36:02Z</time>
        <name>WPT.658</name>
      </trkpt>
      <trkpt lat="35.097880380" lon="-106.441270130">
        <ele>2223.000</ele>
        <time>2019-03-29T16:36:11Z</time>
        <name>WPT.659</name>
      </trkpt>
      <trkpt lat="35.097918920" lon="-106.441253050">
        <ele>2224.000</ele>
        <time>2019-03-29T16:36:19Z</time>
        <name>WPT.660</name>
      </trkpt>
      <trkpt lat="35.097948160" lon="-106.441223560">
        <ele>2224.000</ele>
        <time>2019-03-29T16:36:24Z</time>
        <name>WPT.661</name>
      </trkpt>
      <trkpt lat="35.097975630" lon="-106.441188970">
        <ele>2225.000</ele>
        <time>2019-03-29T16:36:30Z</time>
        <name>WPT.662</name>
      </trkpt>
      <trkpt lat="35.097996750" lon="-106.441142010">
        <ele>2228.000</ele>
        <time>2019-03-29T16:36:39Z</time>
        <name>WPT.663</name>
      </trkpt>
      <trkpt lat="35.098020460" lon="-106.441096900">
        <ele>2228.000</ele>
        <time>2019-03-29T16:36:45Z</time>
        <name>WPT.664</name>
      </trkpt>
      <trkpt lat="35.098048470" lon="-106.441054000">
        <ele>2227.000</ele>
        <time>2019-03-29T16:36:50Z</time>
        <name>WPT.665</name>
      </trkpt>
      <trkpt lat="35.098065040" lon="-106.441007030">
        <ele>2228.000</ele>
        <time>2019-03-29T16:36:55Z</time>
        <name>WPT.666</name>
      </trkpt>
      <trkpt lat="35.098089860" lon="-106.440973330">
        <ele>2228.000</ele>
        <time>2019-03-29T16:37:03Z</time>
        <name>WPT.667</name>
      </trkpt>
      <trkpt lat="35.098051490" lon="-106.440958370">
        <ele>2228.000</ele>
        <time>2019-03-29T16:37:21Z</time>
        <name>WPT.668</name>
      </trkpt>
      <trkpt lat="35.098087870" lon="-106.440979930">
        <ele>2232.000</ele>
        <time>2019-03-29T16:39:57Z</time>
        <name>WPT.669</name>
      </trkpt>
      <trkpt lat="35.098133050" lon="-106.440976300">
        <ele>2232.000</ele>
        <time>2019-03-29T16:40:02Z</time>
        <name>WPT.670</name>
      </trkpt>
      <trkpt lat="35.098173040" lon="-106.440965780">
        <ele>2233.000</ele>
        <time>2019-03-29T16:40:06Z</time>
        <name>WPT.671</name>
      </trkpt>
      <trkpt lat="35.098211060" lon="-106.440959290">
        <ele>2233.000</ele>
        <time>2019-03-29T16:40:10Z</time>
        <name>WPT.672</name>
      </trkpt>
      <trkpt lat="35.098253630" lon="-106.440964260">
        <ele>2232.000</ele>
        <time>2019-03-29T16:40:15Z</time>
        <name>WPT.673</name>
      </trkpt>
      <trkpt lat="35.098292570" lon="-106.440950460">
        <ele>2235.000</ele>
        <time>2019-03-29T16:40:19Z</time>
        <name>WPT.674</name>
      </trkpt>
      <trkpt lat="35.098334630" lon="-106.440949300">
        <ele>2235.000</ele>
        <time>2019-03-29T16:40:23Z</time>
        <name>WPT.675</name>
      </trkpt>
      <trkpt lat="35.098374870" lon="-106.440943370">
        <ele>2236.000</ele>
        <time>2019-03-29T16:40:28Z</time>
        <name>WPT.676</name>
      </trkpt>
      <trkpt lat="35.098411020" lon="-106.440964220">
        <ele>2240.000</ele>
        <time>2019-03-29T16:40:49Z</time>
        <name>WPT.677</name>
      </trkpt>
      <trkpt lat="35.098448160" lon="-106.440960430">
        <ele>2240.000</ele>
        <time>2019-03-29T16:40:54Z</time>
        <name>WPT.678</name>
      </trkpt>
      <trkpt lat="35.098486060" lon="-106.440963640">
        <ele>2240.000</ele>
        <time>2019-03-29T16:40:58Z</time>
        <name>WPT.679</name>
      </trkpt>
      <trkpt lat="35.098526370" lon="-106.440941670">
        <ele>2240.000</ele>
        <time>2019-03-29T16:41:02Z</time>
        <name>WPT.680</name>
      </trkpt>
      <trkpt lat="35.098563560" lon="-106.440918500">
        <ele>2241.000</ele>
        <time>2019-03-29T16:41:07Z</time>
        <name>WPT.681</name>
      </trkpt>
      <trkpt lat="35.098590220" lon="-106.440876090">
        <ele>2242.000</ele>
        <time>2019-03-29T16:41:12Z</time>
        <name>WPT.682</name>
      </trkpt>
      <trkpt lat="35.098621280" lon="-106.440840150">
        <ele>2243.000</ele>
        <time>2019-03-29T16:41:18Z</time>
        <name>WPT.683</name>
      </trkpt>
      <trkpt lat="35.098657190" lon="-106.440816700">
        <ele>2243.000</ele>
        <time>2019-03-29T16:41:24Z</time>
        <name>WPT.684</name>
      </trkpt>
      <trkpt lat="35.098684420" lon="-106.440780190">
        <ele>2246.000</ele>
        <time>2019-03-29T16:41:32Z</time>
        <name>WPT.685</name>
      </trkpt>
      <trkpt lat="35.098690600" lon="-106.440736410">
        <ele>2247.000</ele>
        <time>2019-03-29T16:41:47Z</time>
        <name>WPT.686</name>
      </trkpt>
      <trkpt lat="35.098713220" lon="-106.440688460">
        <ele>2247.000</ele>
        <time>2019-03-29T16:41:52Z</time>
        <name>WPT.687</name>
      </trkpt>
      <trkpt lat="35.098733050" lon="-106.440647890">
        <ele>2247.000</ele>
        <time>2019-03-29T16:41:57Z</time>
        <name>WPT.688</name>
      </trkpt>
      <trkpt lat="35.098754800" lon="-106.440605070">
        <ele>2248.000</ele>
        <time>2019-03-29T16:42:07Z</time>
        <name>WPT.689</name>
      </trkpt>
      <trkpt lat="35.098786400" lon="-106.440573090">
        <ele>2247.000</ele>
        <time>2019-03-29T16:42:12Z</time>
        <name>WPT.690</name>
      </trkpt>
      <trkpt lat="35.098800180" lon="-106.440616390">
        <ele>2249.000</ele>
        <time>2019-03-29T16:42:26Z</time>
        <name>WPT.691</name>
      </trkpt>
      <trkpt lat="35.098790830" lon="-106.440667280">
        <ele>2251.000</ele>
        <time>2019-03-29T16:42:32Z</time>
        <name>WPT.692</name>
      </trkpt>
      <trkpt lat="35.098794330" lon="-106.440712690">
        <ele>2250.000</ele>
        <time>2019-03-29T16:42:37Z</time>
        <name>WPT.693</name>
      </trkpt>
      <trkpt lat="35.098795190" lon="-106.440763370">
        <ele>2251.000</ele>
        <time>2019-03-29T16:42:43Z</time>
        <name>WPT.694</name>
      </trkpt>
      <trkpt lat="35.098802490" lon="-106.440812460">
        <ele>2252.000</ele>
        <time>2019-03-29T16:42:49Z</time>
        <name>WPT.695</name>
      </trkpt>
      <trkpt lat="35.098810750" lon="-106.440859330">
        <ele>2254.000</ele>
        <time>2019-03-29T16:42:55Z</time>
        <name>WPT.696</name>
      </trkpt>
      <trkpt lat="35.098824540" lon="-106.440903230">
        <ele>2255.000</ele>
        <time>2019-03-29T16:43:00Z</time>
        <name>WPT.697</name>
      </trkpt>
      <trkpt lat="35.098833460" lon="-106.440946550">
        <ele>2255.000</ele>
        <time>2019-03-29T16:43:14Z</time>
        <name>WPT.698</name>
      </trkpt>
      <trkpt lat="35.098857190" lon="-106.440981130">
        <ele>2256.000</ele>
        <time>2019-03-29T16:44:50Z</time>
        <name>WPT.699</name>
      </trkpt>
      <trkpt lat="35.098869970" lon="-106.441022970">
        <ele>2255.000</ele>
        <time>2019-03-29T16:44:54Z</time>
        <name>WPT.700</name>
      </trkpt>
      <trkpt lat="35.098874970" lon="-106.441077760">
        <ele>2257.000</ele>
        <time>2019-03-29T16:45:00Z</time>
        <name>WPT.701</name>
      </trkpt>
      <trkpt lat="35.098880770" lon="-106.441124240">
        <ele>2256.000</ele>
        <time>2019-03-29T16:45:07Z</time>
        <name>WPT.702</name>
      </trkpt>
      <trkpt lat="35.098874060" lon="-106.441172480">
        <ele>2257.000</ele>
        <time>2019-03-29T16:45:13Z</time>
        <name>WPT.703</name>
      </trkpt>
      <trkpt lat="35.098896240" lon="-106.441210330">
        <ele>2257.000</ele>
        <time>2019-03-29T16:45:18Z</time>
        <name>WPT.704</name>
      </trkpt>
      <trkpt lat="35.098929400" lon="-106.441252900">
        <ele>2258.000</ele>
        <time>2019-03-29T16:45:23Z</time>
        <name>WPT.705</name>
      </trkpt>
      <trkpt lat="35.098948070" lon="-106.441302470">
        <ele>2258.000</ele>
        <time>2019-03-29T16:45:30Z</time>
        <name>WPT.706</name>
      </trkpt>
      <trkpt lat="35.098986640" lon="-106.441324780">
        <ele>2259.000</ele>
        <time>2019-03-29T16:45:37Z</time>
        <name>WPT.707</name>
      </trkpt>
      <trkpt lat="35.099020880" lon="-106.441346510">
        <ele>2259.000</ele>
        <time>2019-03-29T16:45:43Z</time>
        <name>WPT.708</name>
      </trkpt>
      <trkpt lat="35.099051010" lon="-106.441370720">
        <ele>2261.000</ele>
        <time>2019-03-29T16:45:50Z</time>
        <name>WPT.709</name>
      </trkpt>
      <trkpt lat="35.099086640" lon="-106.441400510">
        <ele>2264.000</ele>
        <time>2019-03-29T16:47:30Z</time>
        <name>WPT.710</name>
      </trkpt>
      <trkpt lat="35.099110540" lon="-106.441444470">
        <ele>2263.000</ele>
        <time>2019-03-29T16:47:34Z</time>
        <name>WPT.711</name>
      </trkpt>
      <trkpt lat="35.099129890" lon="-106.441485110">
        <ele>2262.000</ele>
        <time>2019-03-29T16:47:39Z</time>
        <name>WPT.712</name>
      </trkpt>
      <trkpt lat="35.099155180" lon="-106.441521960">
        <ele>2264.000</ele>
        <time>2019-03-29T16:47:44Z</time>
        <name>WPT.713</name>
      </trkpt>
      <trkpt lat="35.099181400" lon="-106.441553670">
        <ele>2266.000</ele>
        <time>2019-03-29T16:47:49Z</time>
        <name>WPT.714</name>
      </trkpt>
      <trkpt lat="35.099211920" lon="-106.441581350">
        <ele>2266.000</ele>
        <time>2019-03-29T16:47:54Z</time>
        <name>WPT.715</name>
      </trkpt>
      <trkpt lat="35.099241470" lon="-106.441614030">
        <ele>2266.000</ele>
        <time>2019-03-29T16:48:01Z</time>
        <name>WPT.716</name>
      </trkpt>
      <trkpt lat="35.099276650" lon="-106.441642590">
        <ele>2268.000</ele>
        <time>2019-03-29T16:48:06Z</time>
        <name>WPT.717</name>
      </trkpt>
      <trkpt lat="35.099303240" lon="-106.441675490">
        <ele>2270.000</ele>
        <time>2019-03-29T16:48:11Z</time>
        <name>WPT.718</name>
      </trkpt>
      <trkpt lat="35.099332140" lon="-106.441701790">
        <ele>2270.000</ele>
        <time>2019-03-29T16:48:15Z</time>
        <name>WPT.719</name>
      </trkpt>
      <trkpt lat="35.099361460" lon="-106.441732460">
        <ele>2270.000</ele>
        <time>2019-03-29T16:48:21Z</time>
        <name>WPT.720</name>
      </trkpt>
      <trkpt lat="35.099378910" lon="-106.441690990">
        <ele>2274.000</ele>
        <time>2019-03-29T16:50:13Z</time>
        <name>WPT.721</name>
      </trkpt>
      <trkpt lat="35.099375480" lon="-106.441637080">
        <ele>2275.000</ele>
        <time>2019-03-29T16:50:20Z</time>
        <name>WPT.722</name>
      </trkpt>
      <trkpt lat="35.099394360" lon="-106.441594850">
        <ele>2275.000</ele>
        <time>2019-03-29T16:50:25Z</time>
        <name>WPT.723</name>
      </trkpt>
      <trkpt lat="35.099404980" lon="-106.441552180">
        <ele>2277.000</ele>
        <time>2019-03-29T16:50:31Z</time>
        <name>WPT.724</name>
      </trkpt>
      <trkpt lat="35.099418920" lon="-106.441510930">
        <ele>2276.000</ele>
        <time>2019-03-29T16:50:43Z</time>
        <name>WPT.725</name>
      </trkpt>
      <trkpt lat="35.099452250" lon="-106.441477020">
        <ele>2278.000</ele>
        <time>2019-03-29T16:51:01Z</time>
        <name>WPT.726</name>
      </trkpt>
      <trkpt lat="35.099484800" lon="-106.441438410">
        <ele>2279.000</ele>
        <time>2019-03-29T16:51:05Z</time>
        <name>WPT.727</name>
      </trkpt>
      <trkpt lat="35.099513960" lon="-106.441403300">
        <ele>2279.000</ele>
        <time>2019-03-29T16:51:09Z</time>
        <name>WPT.728</name>
      </trkpt>
      <trkpt lat="35.099536190" lon="-106.441361630">
        <ele>2279.000</ele>
        <time>2019-03-29T16:51:14Z</time>
        <name>WPT.729</name>
      </trkpt>
      <trkpt lat="35.099563910" lon="-106.441326410">
        <ele>2282.000</ele>
        <time>2019-03-29T16:51:20Z</time>
        <name>WPT.730</name>
      </trkpt>
      <trkpt lat="35.099554960" lon="-106.441283260">
        <ele>2283.000</ele>
        <time>2019-03-29T16:51:23Z</time>
        <name>WPT.731</name>
      </trkpt>
      <trkpt lat="35.099568080" lon="-106.441236120">
        <ele>2284.000</ele>
        <time>2019-03-29T16:51:28Z</time>
        <name>WPT.732</name>
      </trkpt>
      <trkpt lat="35.099573750" lon="-106.441190680">
        <ele>2287.000</ele>
        <time>2019-03-29T16:51:34Z</time>
        <name>WPT.733</name>
      </trkpt>
      <trkpt lat="35.099579210" lon="-106.441145920">
        <ele>2291.000</ele>
        <time>2019-03-29T16:51:41Z</time>
        <name>WPT.734</name>
      </trkpt>
      <trkpt lat="35.099589690" lon="-106.441096550">
        <ele>2292.000</ele>
        <time>2019-03-29T16:51:46Z</time>
        <name>WPT.735</name>
      </trkpt>
      <trkpt lat="35.099582030" lon="-106.441052330">
        <ele>2291.000</ele>
        <time>2019-03-29T16:51:50Z</time>
        <name>WPT.736</name>
      </trkpt>
      <trkpt lat="35.099582990" lon="-106.441004550">
        <ele>2291.000</ele>
        <time>2019-03-29T16:52:03Z</time>
        <name>WPT.737</name>
      </trkpt>
      <trkpt lat="35.099582170" lon="-106.440957070">
        <ele>2293.000</ele>
        <time>2019-03-29T16:52:10Z</time>
        <name>WPT.738</name>
      </trkpt>
      <trkpt lat="35.099546770" lon="-106.440948420">
        <ele>2291.000</ele>
        <time>2019-03-29T16:52:15Z</time>
        <name>WPT.739</name>
      </trkpt>
      <trkpt lat="35.099509790" lon="-106.440946910">
        <ele>2290.000</ele>
        <time>2019-03-29T16:52:23Z</time>
        <name>WPT.740</name>
      </trkpt>
      <trkpt lat="35.099512940" lon="-106.440991570">
        <ele>2299.000</ele>
        <time>2019-03-29T17:24:44Z</time>
        <name>WPT.741</name>
      </trkpt>
      <trkpt lat="35.099554390" lon="-106.440979900">
        <ele>2295.000</ele>
        <time>2019-03-29T17:31:45Z</time>
        <name>WPT.742</name>
      </trkpt>
      <trkpt lat="35.099573900" lon="-106.441019820">
        <ele>2293.000</ele>
        <time>2019-03-29T17:31:52Z</time>
        <name>WPT.743</name>
      </trkpt>
      <trkpt lat="35.099586610" lon="-106.441061670">
        <ele>2292.000</ele>
        <time>2019-03-29T17:31:57Z</time>
        <name>WPT.744</name>
      </trkpt>
      <trkpt lat="35.099582070" lon="-106.441111560">
        <ele>2290.000</ele>
        <time>2019-03-29T17:32:03Z</time>
        <name>WPT.745</name>
      </trkpt>
      <trkpt lat="35.099570440" lon="-106.441158480">
        <ele>2288.000</ele>
        <time>2019-03-29T17:32:08Z</time>
        <name>WPT.746</name>
      </trkpt>
      <trkpt lat="35.099562410" lon="-106.441202830">
        <ele>2287.000</ele>
        <time>2019-03-29T17:32:13Z</time>
        <name>WPT.747</name>
      </trkpt>
      <trkpt lat="35.099548780" lon="-106.441254620">
        <ele>2284.000</ele>
        <time>2019-03-29T17:32:17Z</time>
        <name>WPT.748</name>
      </trkpt>
      <trkpt lat="35.099555920" lon="-106.441300240">
        <ele>2283.000</ele>
        <time>2019-03-29T17:32:20Z</time>
        <name>WPT.749</name>
      </trkpt>
      <trkpt lat="35.099536050" lon="-106.441345200">
        <ele>2282.000</ele>
        <time>2019-03-29T17:32:24Z</time>
        <name>WPT.750</name>
      </trkpt>
      <trkpt lat="35.099507150" lon="-106.441390360">
        <ele>2281.000</ele>
        <time>2019-03-29T17:32:28Z</time>
        <name>WPT.751</name>
      </trkpt>
      <trkpt lat="35.099470300" lon="-106.441431880">
        <ele>2280.000</ele>
        <time>2019-03-29T17:32:32Z</time>
        <name>WPT.752</name>
      </trkpt>
      <trkpt lat="35.099451670" lon="-106.441471910">
        <ele>2278.000</ele>
        <time>2019-03-29T17:32:36Z</time>
        <name>WPT.753</name>
      </trkpt>
      <trkpt lat="35.099424350" lon="-106.441519510">
        <ele>2277.000</ele>
        <time>2019-03-29T17:32:40Z</time>
        <name>WPT.754</name>
      </trkpt>
      <trkpt lat="35.099406090" lon="-106.441580140">
        <ele>2276.000</ele>
        <time>2019-03-29T17:32:44Z</time>
        <name>WPT.755</name>
      </trkpt>
      <trkpt lat="35.099383100" lon="-106.441636990">
        <ele>2274.000</ele>
        <time>2019-03-29T17:32:48Z</time>
        <name>WPT.756</name>
      </trkpt>
      <trkpt lat="35.099383840" lon="-106.441688490">
        <ele>2274.000</ele>
        <time>2019-03-29T17:32:51Z</time>
        <name>WPT.757</name>
      </trkpt>
      <trkpt lat="35.099336900" lon="-106.441684370">
        <ele>2273.000</ele>
        <time>2019-03-29T17:32:58Z</time>
        <name>WPT.758</name>
      </trkpt>
      <trkpt lat="35.099305490" lon="-106.441648790">
        <ele>2272.000</ele>
        <time>2019-03-29T17:33:02Z</time>
        <name>WPT.759</name>
      </trkpt>
      <trkpt lat="35.099266520" lon="-106.441628990">
        <ele>2273.000</ele>
        <time>2019-03-29T17:33:06Z</time>
        <name>WPT.760</name>
      </trkpt>
      <trkpt lat="35.099230420" lon="-106.441608500">
        <ele>2272.000</ele>
        <time>2019-03-29T17:33:10Z</time>
        <name>WPT.761</name>
      </trkpt>
      <trkpt lat="35.099197810" lon="-106.441582260">
        <ele>2272.000</ele>
        <time>2019-03-29T17:33:13Z</time>
        <name>WPT.762</name>
      </trkpt>
      <trkpt lat="35.099169230" lon="-106.441546720">
        <ele>2269.000</ele>
        <time>2019-03-29T17:33:17Z</time>
        <name>WPT.763</name>
      </trkpt>
      <trkpt lat="35.099144150" lon="-106.441502230">
        <ele>2269.000</ele>
        <time>2019-03-29T17:33:21Z</time>
        <name>WPT.764</name>
      </trkpt>
      <trkpt lat="35.099137170" lon="-106.441442110">
        <ele>2269.000</ele>
        <time>2019-03-29T17:33:25Z</time>
        <name>WPT.765</name>
      </trkpt>
      <trkpt lat="35.099111900" lon="-106.441400050">
        <ele>2269.000</ele>
        <time>2019-03-29T17:33:28Z</time>
        <name>WPT.766</name>
      </trkpt>
      <trkpt lat="35.099076290" lon="-106.441375750">
        <ele>2267.000</ele>
        <time>2019-03-29T17:33:32Z</time>
        <name>WPT.767</name>
      </trkpt>
      <trkpt lat="35.099030300" lon="-106.441362780">
        <ele>2267.000</ele>
        <time>2019-03-29T17:33:36Z</time>
        <name>WPT.768</name>
      </trkpt>
      <trkpt lat="35.098987890" lon="-106.441342550">
        <ele>2267.000</ele>
        <time>2019-03-29T17:33:41Z</time>
        <name>WPT.769</name>
      </trkpt>
      <trkpt lat="35.098964330" lon="-106.441307540">
        <ele>2265.000</ele>
        <time>2019-03-29T17:33:45Z</time>
        <name>WPT.770</name>
      </trkpt>
      <trkpt lat="35.098934200" lon="-106.441276460">
        <ele>2264.000</ele>
        <time>2019-03-29T17:33:48Z</time>
        <name>WPT.771</name>
      </trkpt>
      <trkpt lat="35.098899010" lon="-106.441248780">
        <ele>2265.000</ele>
        <time>2019-03-29T17:33:52Z</time>
        <name>WPT.772</name>
      </trkpt>
      <trkpt lat="35.098900070" lon="-106.441203980">
        <ele>2264.000</ele>
        <time>2019-03-29T17:33:56Z</time>
        <name>WPT.773</name>
      </trkpt>
      <trkpt lat="35.098896370" lon="-106.441151340">
        <ele>2262.000</ele>
        <time>2019-03-29T17:34:02Z</time>
        <name>WPT.774</name>
      </trkpt>
      <trkpt lat="35.098886710" lon="-106.441106420">
        <ele>2262.000</ele>
        <time>2019-03-29T17:34:05Z</time>
        <name>WPT.775</name>
      </trkpt>
      <trkpt lat="35.098872300" lon="-106.441058650">
        <ele>2262.000</ele>
        <time>2019-03-29T17:34:09Z</time>
        <name>WPT.776</name>
      </trkpt>
      <trkpt lat="35.098875940" lon="-106.441012710">
        <ele>2263.000</ele>
        <time>2019-03-29T17:34:12Z</time>
        <name>WPT.777</name>
      </trkpt>
      <trkpt lat="35.098861160" lon="-106.440965210">
        <ele>2262.000</ele>
        <time>2019-03-29T17:34:15Z</time>
        <name>WPT.778</name>
      </trkpt>
      <trkpt lat="35.098842440" lon="-106.440916390">
        <ele>2261.000</ele>
        <time>2019-03-29T17:34:19Z</time>
        <name>WPT.779</name>
      </trkpt>
      <trkpt lat="35.098833310" lon="-106.440871610">
        <ele>2259.000</ele>
        <time>2019-03-29T17:34:23Z</time>
        <name>WPT.780</name>
      </trkpt>
      <trkpt lat="35.098829720" lon="-106.440817380">
        <ele>2258.000</ele>
        <time>2019-03-29T17:34:26Z</time>
        <name>WPT.781</name>
      </trkpt>
      <trkpt lat="35.098833140" lon="-106.440760030">
        <ele>2256.000</ele>
        <time>2019-03-29T17:34:30Z</time>
        <name>WPT.782</name>
      </trkpt>
      <trkpt lat="35.098829860" lon="-106.440713580">
        <ele>2256.000</ele>
        <time>2019-03-29T17:34:34Z</time>
        <name>WPT.783</name>
      </trkpt>
      <trkpt lat="35.098832070" lon="-106.440654620">
        <ele>2254.000</ele>
        <time>2019-03-29T17:34:38Z</time>
        <name>WPT.784</name>
      </trkpt>
      <trkpt lat="35.098837070" lon="-106.440608430">
        <ele>2252.000</ele>
        <time>2019-03-29T17:34:41Z</time>
        <name>WPT.785</name>
      </trkpt>
      <trkpt lat="35.098837080" lon="-106.440556090">
        <ele>2251.000</ele>
        <time>2019-03-29T17:34:45Z</time>
        <name>WPT.786</name>
      </trkpt>
      <trkpt lat="35.098790600" lon="-106.440563580">
        <ele>2250.000</ele>
        <time>2019-03-29T17:34:50Z</time>
        <name>WPT.787</name>
      </trkpt>
      <trkpt lat="35.098760240" lon="-106.440589040">
        <ele>2249.000</ele>
        <time>2019-03-29T17:34:52Z</time>
        <name>WPT.788</name>
      </trkpt>
      <trkpt lat="35.098733260" lon="-106.440624180">
        <ele>2249.000</ele>
        <time>2019-03-29T17:34:55Z</time>
        <name>WPT.789</name>
      </trkpt>
      <trkpt lat="35.098696880" lon="-106.440662160">
        <ele>2250.000</ele>
        <time>2019-03-29T17:34:59Z</time>
        <name>WPT.790</name>
      </trkpt>
      <trkpt lat="35.098676620" lon="-106.440705710">
        <ele>2248.000</ele>
        <time>2019-03-29T17:35:03Z</time>
        <name>WPT.791</name>
      </trkpt>
      <trkpt lat="35.098662620" lon="-106.440753170">
        <ele>2247.000</ele>
        <time>2019-03-29T17:35:06Z</time>
        <name>WPT.792</name>
      </trkpt>
      <trkpt lat="35.098629700" lon="-106.440791510">
        <ele>2246.000</ele>
        <time>2019-03-29T17:35:10Z</time>
        <name>WPT.793</name>
      </trkpt>
      <trkpt lat="35.098592840" lon="-106.440822190">
        <ele>2246.000</ele>
        <time>2019-03-29T17:35:14Z</time>
        <name>WPT.794</name>
      </trkpt>
      <trkpt lat="35.098573100" lon="-106.440859470">
        <ele>2244.000</ele>
        <time>2019-03-29T17:35:18Z</time>
        <name>WPT.795</name>
      </trkpt>
      <trkpt lat="35.098537230" lon="-106.440893460">
        <ele>2245.000</ele>
        <time>2019-03-29T17:35:22Z</time>
        <name>WPT.796</name>
      </trkpt>
      <trkpt lat="35.098503940" lon="-106.440920290">
        <ele>2245.000</ele>
        <time>2019-03-29T17:35:25Z</time>
        <name>WPT.797</name>
      </trkpt>
      <trkpt lat="35.098467590" lon="-106.440925410">
        <ele>2245.000</ele>
        <time>2019-03-29T17:35:29Z</time>
        <name>WPT.798</name>
      </trkpt>
      <trkpt lat="35.098426270" lon="-106.440920440">
        <ele>2244.000</ele>
        <time>2019-03-29T17:35:32Z</time>
        <name>WPT.799</name>
      </trkpt>
      <trkpt lat="35.098386010" lon="-106.440921030">
        <ele>2243.000</ele>
        <time>2019-03-29T17:35:36Z</time>
        <name>WPT.800</name>
      </trkpt>
      <trkpt lat="35.098343930" lon="-106.440919590">
        <ele>2242.000</ele>
        <time>2019-03-29T17:35:40Z</time>
        <name>WPT.801</name>
      </trkpt>
      <trkpt lat="35.098304240" lon="-106.440917820">
        <ele>2241.000</ele>
        <time>2019-03-29T17:36:03Z</time>
        <name>WPT.802</name>
      </trkpt>
      <trkpt lat="35.098258520" lon="-106.440937000">
        <ele>2240.000</ele>
        <time>2019-03-29T17:36:07Z</time>
        <name>WPT.803</name>
      </trkpt>
      <trkpt lat="35.098214500" lon="-106.440943980">
        <ele>2239.000</ele>
        <time>2019-03-29T17:36:11Z</time>
        <name>WPT.804</name>
      </trkpt>
      <trkpt lat="35.098174130" lon="-106.440961450">
        <ele>2236.000</ele>
        <time>2019-03-29T17:36:15Z</time>
        <name>WPT.805</name>
      </trkpt>
      <trkpt lat="35.098126400" lon="-106.440965380">
        <ele>2236.000</ele>
        <time>2019-03-29T17:36:19Z</time>
        <name>WPT.806</name>
      </trkpt>
      <trkpt lat="35.098089100" lon="-106.440971670">
        <ele>2234.000</ele>
        <time>2019-03-29T17:36:22Z</time>
        <name>WPT.807</name>
      </trkpt>
      <trkpt lat="35.098054380" lon="-106.440988190">
        <ele>2234.000</ele>
        <time>2019-03-29T17:36:25Z</time>
        <name>WPT.808</name>
      </trkpt>
      <trkpt lat="35.098035060" lon="-106.441035170">
        <ele>2233.000</ele>
        <time>2019-03-29T17:36:28Z</time>
        <name>WPT.809</name>
      </trkpt>
      <trkpt lat="35.098005070" lon="-106.441067560">
        <ele>2232.000</ele>
        <time>2019-03-29T17:36:32Z</time>
        <name>WPT.810</name>
      </trkpt>
      <trkpt lat="35.097989350" lon="-106.441116780">
        <ele>2231.000</ele>
        <time>2019-03-29T17:36:35Z</time>
        <name>WPT.811</name>
      </trkpt>
      <trkpt lat="35.097975430" lon="-106.441164640">
        <ele>2229.000</ele>
        <time>2019-03-29T17:36:39Z</time>
        <name>WPT.812</name>
      </trkpt>
      <trkpt lat="35.097950170" lon="-106.441202680">
        <ele>2229.000</ele>
        <time>2019-03-29T17:36:43Z</time>
        <name>WPT.813</name>
      </trkpt>
      <trkpt lat="35.097926900" lon="-106.441246910">
        <ele>2227.000</ele>
        <time>2019-03-29T17:36:47Z</time>
        <name>WPT.814</name>
      </trkpt>
      <trkpt lat="35.097897180" lon="-106.441278830">
        <ele>2226.000</ele>
        <time>2019-03-29T17:36:51Z</time>
        <name>WPT.815</name>
      </trkpt>
      <trkpt lat="35.097867690" lon="-106.441248880">
        <ele>2224.000</ele>
        <time>2019-03-29T17:37:00Z</time>
        <name>WPT.816</name>
      </trkpt>
      <trkpt lat="35.097861570" lon="-106.441204800">
        <ele>2223.000</ele>
        <time>2019-03-29T17:37:04Z</time>
        <name>WPT.817</name>
      </trkpt>
      <trkpt lat="35.097842560" lon="-106.441166420">
        <ele>2222.000</ele>
        <time>2019-03-29T17:37:08Z</time>
        <name>WPT.818</name>
      </trkpt>
      <trkpt lat="35.097838590" lon="-106.441117270">
        <ele>2221.000</ele>
        <time>2019-03-29T17:37:12Z</time>
        <name>WPT.819</name>
      </trkpt>
      <trkpt lat="35.097818750" lon="-106.441062000">
        <ele>2220.000</ele>
        <time>2019-03-29T17:37:16Z</time>
        <name>WPT.820</name>
      </trkpt>
      <trkpt lat="35.097798860" lon="-106.441024090">
        <ele>2218.000</ele>
        <time>2019-03-29T17:37:19Z</time>
        <name>WPT.821</name>
      </trkpt>
      <trkpt lat="35.097777210" lon="-106.440979100">
        <ele>2218.000</ele>
        <time>2019-03-29T17:37:22Z</time>
        <name>WPT.822</name>
      </trkpt>
      <trkpt lat="35.097754910" lon="-106.440932430">
        <ele>2216.000</ele>
        <time>2019-03-29T17:37:26Z</time>
        <name>WPT.823</name>
      </trkpt>
      <trkpt lat="35.097740920" lon="-106.440882550">
        <ele>2215.000</ele>
        <time>2019-03-29T17:37:30Z</time>
        <name>WPT.824</name>
      </trkpt>
      <trkpt lat="35.097725360" lon="-106.440838830">
        <ele>2215.000</ele>
        <time>2019-03-29T17:37:33Z</time>
        <name>WPT.825</name>
      </trkpt>
      <trkpt lat="35.097706310" lon="-106.440795190">
        <ele>2214.000</ele>
        <time>2019-03-29T17:37:36Z</time>
        <name>WPT.826</name>
      </trkpt>
      <trkpt lat="35.097702450" lon="-106.440747440">
        <ele>2215.000</ele>
        <time>2019-03-29T17:37:39Z</time>
        <name>WPT.827</name>
      </trkpt>
      <trkpt lat="35.097696610" lon="-106.440701300">
        <ele>2215.000</ele>
        <time>2019-03-29T17:37:42Z</time>
        <name>WPT.828</name>
      </trkpt>
      <trkpt lat="35.097683210" lon="-106.440656280">
        <ele>2215.000</ele>
        <time>2019-03-29T17:37:46Z</time>
        <name>WPT.829</name>
      </trkpt>
      <trkpt lat="35.097640040" lon="-106.440681200">
        <ele>2212.000</ele>
        <time>2019-03-29T17:37:53Z</time>
        <name>WPT.830</name>
      </trkpt>
      <trkpt lat="35.097620890" lon="-106.440723600">
        <ele>2212.000</ele>
        <time>2019-03-29T17:37:56Z</time>
        <name>WPT.831</name>
      </trkpt>
      <trkpt lat="35.097608960" lon="-106.440768200">
        <ele>2212.000</ele>
        <time>2019-03-29T17:37:59Z</time>
        <name>WPT.832</name>
      </trkpt>
      <trkpt lat="35.097597150" lon="-106.440812370">
        <ele>2211.000</ele>
        <time>2019-03-29T17:38:02Z</time>
        <name>WPT.833</name>
      </trkpt>
      <trkpt lat="35.097582290" lon="-106.440858590">
        <ele>2208.000</ele>
        <time>2019-03-29T17:38:06Z</time>
        <name>WPT.834</name>
      </trkpt>
      <trkpt lat="35.097564710" lon="-106.440914310">
        <ele>2208.000</ele>
        <time>2019-03-29T17:38:10Z</time>
        <name>WPT.835</name>
      </trkpt>
      <trkpt lat="35.097545090" lon="-106.440953200">
        <ele>2208.000</ele>
        <time>2019-03-29T17:38:13Z</time>
        <name>WPT.836</name>
      </trkpt>
      <trkpt lat="35.097523240" lon="-106.440998270">
        <ele>2207.000</ele>
        <time>2019-03-29T17:38:17Z</time>
        <name>WPT.837</name>
      </trkpt>
      <trkpt lat="35.097511050" lon="-106.441047750">
        <ele>2206.000</ele>
        <time>2019-03-29T17:38:21Z</time>
        <name>WPT.838</name>
      </trkpt>
      <trkpt lat="35.097486580" lon="-106.441084570">
        <ele>2203.000</ele>
        <time>2019-03-29T17:38:25Z</time>
        <name>WPT.839</name>
      </trkpt>
      <trkpt lat="35.097479140" lon="-106.441131930">
        <ele>2207.000</ele>
        <time>2019-03-29T17:38:51Z</time>
        <name>WPT.840</name>
      </trkpt>
      <trkpt lat="35.097462360" lon="-106.441172440">
        <ele>2205.000</ele>
        <time>2019-03-29T17:39:18Z</time>
        <name>WPT.841</name>
      </trkpt>
      <trkpt lat="35.097446360" lon="-106.441213160">
        <ele>2204.000</ele>
        <time>2019-03-29T17:39:21Z</time>
        <name>WPT.842</name>
      </trkpt>
      <trkpt lat="35.097414060" lon="-106.441249980">
        <ele>2205.000</ele>
        <time>2019-03-29T17:39:24Z</time>
        <name>WPT.843</name>
      </trkpt>
      <trkpt lat="35.097378600" lon="-106.441273830">
        <ele>2204.000</ele>
        <time>2019-03-29T17:39:28Z</time>
        <name>WPT.844</name>
      </trkpt>
      <trkpt lat="35.097353650" lon="-106.441318940">
        <ele>2201.000</ele>
        <time>2019-03-29T17:39:32Z</time>
        <name>WPT.845</name>
      </trkpt>
      <trkpt lat="35.097336370" lon="-106.441367100">
        <ele>2200.000</ele>
        <time>2019-03-29T17:39:36Z</time>
        <name>WPT.846</name>
      </trkpt>
      <trkpt lat="35.097333370" lon="-106.441413240">
        <ele>2198.000</ele>
        <time>2019-03-29T17:39:40Z</time>
        <name>WPT.847</name>
      </trkpt>
      <trkpt lat="35.097334780" lon="-106.441461370">
        <ele>2196.000</ele>
        <time>2019-03-29T17:39:44Z</time>
        <name>WPT.848</name>
      </trkpt>
      <trkpt lat="35.097328040" lon="-106.441506770">
        <ele>2195.000</ele>
        <time>2019-03-29T17:39:48Z</time>
        <name>WPT.849</name>
      </trkpt>
      <trkpt lat="35.097331700" lon="-106.441553950">
        <ele>2195.000</ele>
        <time>2019-03-29T17:39:51Z</time>
        <name>WPT.850</name>
      </trkpt>
      <trkpt lat="35.097334740" lon="-106.441600910">
        <ele>2195.000</ele>
        <time>2019-03-29T17:39:55Z</time>
        <name>WPT.851</name>
      </trkpt>
      <trkpt lat="35.097346920" lon="-106.441653680">
        <ele>2195.000</ele>
        <time>2019-03-29T17:39:59Z</time>
        <name>WPT.852</name>
      </trkpt>
      <trkpt lat="35.097358160" lon="-106.441704530">
        <ele>2194.000</ele>
        <time>2019-03-29T17:40:03Z</time>
        <name>WPT.853</name>
      </trkpt>
      <trkpt lat="35.097378250" lon="-106.441742760">
        <ele>2192.000</ele>
        <time>2019-03-29T17:40:07Z</time>
        <name>WPT.854</name>
      </trkpt>
      <trkpt lat="35.097401730" lon="-106.441791770">
        <ele>2191.000</ele>
        <time>2019-03-29T17:40:11Z</time>
        <name>WPT.855</name>
      </trkpt>
      <trkpt lat="35.097432310" lon="-106.441835650">
        <ele>2188.000</ele>
        <time>2019-03-29T17:40:22Z</time>
        <name>WPT.856</name>
      </trkpt>
      <trkpt lat="35.097442090" lon="-106.441881830">
        <ele>2189.000</ele>
        <time>2019-03-29T17:40:26Z</time>
        <name>WPT.857</name>
      </trkpt>
      <trkpt lat="35.097465680" lon="-106.441925260">
        <ele>2188.000</ele>
        <time>2019-03-29T17:40:30Z</time>
        <name>WPT.858</name>
      </trkpt>
      <trkpt lat="35.097486010" lon="-106.441971570">
        <ele>2189.000</ele>
        <time>2019-03-29T17:40:33Z</time>
        <name>WPT.859</name>
      </trkpt>
      <trkpt lat="35.097509060" lon="-106.442012720">
        <ele>2187.000</ele>
        <time>2019-03-29T17:40:36Z</time>
        <name>WPT.860</name>
      </trkpt>
      <trkpt lat="35.097521010" lon="-106.442057150">
        <ele>2188.000</ele>
        <time>2019-03-29T17:40:39Z</time>
        <name>WPT.861</name>
      </trkpt>
      <trkpt lat="35.097544320" lon="-106.442098990">
        <ele>2187.000</ele>
        <time>2019-03-29T17:40:43Z</time>
        <name>WPT.862</name>
      </trkpt>
      <trkpt lat="35.097550220" lon="-106.442142480">
        <ele>2188.000</ele>
        <time>2019-03-29T17:40:49Z</time>
        <name>WPT.863</name>
      </trkpt>
      <trkpt lat="35.097545150" lon="-106.442190150">
        <ele>2189.000</ele>
        <time>2019-03-29T17:41:05Z</time>
        <name>WPT.864</name>
      </trkpt>
      <trkpt lat="35.097569240" lon="-106.442237150">
        <ele>2187.000</ele>
        <time>2019-03-29T17:41:10Z</time>
        <name>WPT.865</name>
      </trkpt>
      <trkpt lat="35.097594390" lon="-106.442277500">
        <ele>2186.000</ele>
        <time>2019-03-29T17:41:14Z</time>
        <name>WPT.866</name>
      </trkpt>
      <trkpt lat="35.097612080" lon="-106.442320640">
        <ele>2185.000</ele>
        <time>2019-03-29T17:41:18Z</time>
        <name>WPT.867</name>
      </trkpt>
      <trkpt lat="35.097633240" lon="-106.442359890">
        <ele>2187.000</ele>
        <time>2019-03-29T17:41:45Z</time>
        <name>WPT.868</name>
      </trkpt>
      <trkpt lat="35.097651580" lon="-106.442316480">
        <ele>2186.000</ele>
        <time>2019-03-29T17:41:53Z</time>
        <name>WPT.869</name>
      </trkpt>
      <trkpt lat="35.097630070" lon="-106.442276010">
        <ele>2184.000</ele>
        <time>2019-03-29T17:42:15Z</time>
        <name>WPT.870</name>
      </trkpt>
      <trkpt lat="35.097585950" lon="-106.442244720">
        <ele>2184.000</ele>
        <time>2019-03-29T17:42:20Z</time>
        <name>WPT.871</name>
      </trkpt>
      <trkpt lat="35.097565520" lon="-106.442203060">
        <ele>2185.000</ele>
        <time>2019-03-29T17:42:24Z</time>
        <name>WPT.872</name>
      </trkpt>
      <trkpt lat="35.097529200" lon="-106.442164800">
        <ele>2184.000</ele>
        <time>2019-03-29T17:42:28Z</time>
        <name>WPT.873</name>
      </trkpt>
      <trkpt lat="35.097491640" lon="-106.442137800">
        <ele>2181.000</ele>
        <time>2019-03-29T17:42:33Z</time>
        <name>WPT.874</name>
      </trkpt>
      <trkpt lat="35.097467280" lon="-106.442101030">
        <ele>2179.000</ele>
        <time>2019-03-29T17:42:37Z</time>
        <name>WPT.875</name>
      </trkpt>
      <trkpt lat="35.097427220" lon="-106.442070880">
        <ele>2179.000</ele>
        <time>2019-03-29T17:42:41Z</time>
        <name>WPT.876</name>
      </trkpt>
      <trkpt lat="35.097382130" lon="-106.442047140">
        <ele>2178.000</ele>
        <time>2019-03-29T17:42:45Z</time>
        <name>WPT.877</name>
      </trkpt>
      <trkpt lat="35.097345360" lon="-106.442020460">
        <ele>2180.000</ele>
        <time>2019-03-29T17:42:48Z</time>
        <name>WPT.878</name>
      </trkpt>
      <trkpt lat="35.097312110" lon="-106.441997150">
        <ele>2179.000</ele>
        <time>2019-03-29T17:42:51Z</time>
        <name>WPT.879</name>
      </trkpt>
      <trkpt lat="35.097285650" lon="-106.441964990">
        <ele>2180.000</ele>
        <time>2019-03-29T17:42:54Z</time>
        <name>WPT.880</name>
      </trkpt>
      <trkpt lat="35.097254760" lon="-106.441933180">
        <ele>2179.000</ele>
        <time>2019-03-29T17:42:58Z</time>
        <name>WPT.881</name>
      </trkpt>
      <trkpt lat="35.097217490" lon="-106.441916820">
        <ele>2178.000</ele>
        <time>2019-03-29T17:43:07Z</time>
        <name>WPT.882</name>
      </trkpt>
      <trkpt lat="35.097179990" lon="-106.441890110">
        <ele>2179.000</ele>
        <time>2019-03-29T17:43:11Z</time>
        <name>WPT.883</name>
      </trkpt>
      <trkpt lat="35.097145720" lon="-106.441869890">
        <ele>2178.000</ele>
        <time>2019-03-29T17:43:14Z</time>
        <name>WPT.884</name>
      </trkpt>
      <trkpt lat="35.097111100" lon="-106.441834080">
        <ele>2177.000</ele>
        <time>2019-03-29T17:43:18Z</time>
        <name>WPT.885</name>
      </trkpt>
      <trkpt lat="35.097069170" lon="-106.441807470">
        <ele>2177.000</ele>
        <time>2019-03-29T17:43:26Z</time>
        <name>WPT.886</name>
      </trkpt>
      <trkpt lat="35.097045000" lon="-106.441773090">
        <ele>2178.000</ele>
        <time>2019-03-29T17:43:30Z</time>
        <name>WPT.887</name>
      </trkpt>
      <trkpt lat="35.097019940" lon="-106.441738990">
        <ele>2179.000</ele>
        <time>2019-03-29T17:43:33Z</time>
        <name>WPT.888</name>
      </trkpt>
      <trkpt lat="35.096993400" lon="-106.441697270">
        <ele>2178.000</ele>
        <time>2019-03-29T17:43:37Z</time>
        <name>WPT.889</name>
      </trkpt>
      <trkpt lat="35.096959140" lon="-106.441657790">
        <ele>2177.000</ele>
        <time>2019-03-29T17:43:41Z</time>
        <name>WPT.890</name>
      </trkpt>
      <trkpt lat="35.096926760" lon="-106.441624870">
        <ele>2178.000</ele>
        <time>2019-03-29T17:43:44Z</time>
        <name>WPT.891</name>
      </trkpt>
      <trkpt lat="35.096899350" lon="-106.441589900">
        <ele>2176.000</ele>
        <time>2019-03-29T17:43:48Z</time>
        <name>WPT.892</name>
      </trkpt>
      <trkpt lat="35.096869980" lon="-106.441556560">
        <ele>2175.000</ele>
        <time>2019-03-29T17:43:54Z</time>
        <name>WPT.893</name>
      </trkpt>
      <trkpt lat="35.096841630" lon="-106.441509700">
        <ele>2173.000</ele>
        <time>2019-03-29T17:44:00Z</time>
        <name>WPT.894</name>
      </trkpt>
      <trkpt lat="35.096812600" lon="-106.441480080">
        <ele>2172.000</ele>
        <time>2019-03-29T17:44:05Z</time>
        <name>WPT.895</name>
      </trkpt>
      <trkpt lat="35.096781410" lon="-106.441443370">
        <ele>2172.000</ele>
        <time>2019-03-29T17:44:10Z</time>
        <name>WPT.896</name>
      </trkpt>
      <trkpt lat="35.096749420" lon="-106.441408620">
        <ele>2172.000</ele>
        <time>2019-03-29T17:44:14Z</time>
        <name>WPT.897</name>
      </trkpt>
      <trkpt lat="35.096721320" lon="-106.441372230">
        <ele>2172.000</ele>
        <time>2019-03-29T17:44:18Z</time>
        <name>WPT.898</name>
      </trkpt>
      <trkpt lat="35.096691970" lon="-106.441336180">
        <ele>2172.000</ele>
        <time>2019-03-29T17:44:22Z</time>
        <name>WPT.899</name>
      </trkpt>
      <trkpt lat="35.096681030" lon="-106.441288850">
        <ele>2171.000</ele>
        <time>2019-03-29T17:44:27Z</time>
        <name>WPT.900</name>
      </trkpt>
      <trkpt lat="35.096680160" lon="-106.441241700">
        <ele>2170.000</ele>
        <time>2019-03-29T17:44:32Z</time>
        <name>WPT.901</name>
      </trkpt>
      <trkpt lat="35.096693190" lon="-106.441198200">
        <ele>2170.000</ele>
        <time>2019-03-29T17:44:36Z</time>
        <name>WPT.902</name>
      </trkpt>
      <trkpt lat="35.096687970" lon="-106.441145730">
        <ele>2170.000</ele>
        <time>2019-03-29T17:44:41Z</time>
        <name>WPT.903</name>
      </trkpt>
      <trkpt lat="35.096660580" lon="-106.441111250">
        <ele>2170.000</ele>
        <time>2019-03-29T17:44:45Z</time>
        <name>WPT.904</name>
      </trkpt>
      <trkpt lat="35.096634100" lon="-106.441071230">
        <ele>2167.000</ele>
        <time>2019-03-29T17:44:50Z</time>
        <name>WPT.905</name>
      </trkpt>
      <trkpt lat="35.096610810" lon="-106.441034560">
        <ele>2165.000</ele>
        <time>2019-03-29T17:44:54Z</time>
        <name>WPT.906</name>
      </trkpt>
      <trkpt lat="35.096581660" lon="-106.440985440">
        <ele>2164.000</ele>
        <time>2019-03-29T17:44:59Z</time>
        <name>WPT.907</name>
      </trkpt>
      <trkpt lat="35.096556990" lon="-106.440951150">
        <ele>2164.000</ele>
        <time>2019-03-29T17:45:04Z</time>
        <name>WPT.908</name>
      </trkpt>
      <trkpt lat="35.096550340" lon="-106.440898710">
        <ele>2166.000</ele>
        <time>2019-03-29T17:45:10Z</time>
        <name>WPT.909</name>
      </trkpt>
      <trkpt lat="35.096579710" lon="-106.440860250">
        <ele>2166.000</ele>
        <time>2019-03-29T17:45:15Z</time>
        <name>WPT.910</name>
      </trkpt>
      <trkpt lat="35.096622570" lon="-106.440826340">
        <ele>2167.000</ele>
        <time>2019-03-29T17:45:21Z</time>
        <name>WPT.911</name>
      </trkpt>
      <trkpt lat="35.096655520" lon="-106.440801100">
        <ele>2166.000</ele>
        <time>2019-03-29T17:45:26Z</time>
        <name>WPT.912</name>
      </trkpt>
      <trkpt lat="35.096683730" lon="-106.440772070">
        <ele>2165.000</ele>
        <time>2019-03-29T17:45:31Z</time>
        <name>WPT.913</name>
      </trkpt>
      <trkpt lat="35.096719790" lon="-106.440740390">
        <ele>2165.000</ele>
        <time>2019-03-29T17:45:35Z</time>
        <name>WPT.914</name>
      </trkpt>
      <trkpt lat="35.096742800" lon="-106.440695210">
        <ele>2165.000</ele>
        <time>2019-03-29T17:45:40Z</time>
        <name>WPT.915</name>
      </trkpt>
      <trkpt lat="35.096766470" lon="-106.440651810">
        <ele>2164.000</ele>
        <time>2019-03-29T17:45:45Z</time>
        <name>WPT.916</name>
      </trkpt>
      <trkpt lat="35.096793320" lon="-106.440603740">
        <ele>2165.000</ele>
        <time>2019-03-29T17:45:50Z</time>
        <name>WPT.917</name>
      </trkpt>
      <trkpt lat="35.096821500" lon="-106.440573440">
        <ele>2163.000</ele>
        <time>2019-03-29T17:46:26Z</time>
        <name>WPT.918</name>
      </trkpt>
      <trkpt lat="35.096822270" lon="-106.440527420">
        <ele>2163.000</ele>
        <time>2019-03-29T17:46:30Z</time>
        <name>WPT.919</name>
      </trkpt>
      <trkpt lat="35.096785440" lon="-106.440552600">
        <ele>2166.000</ele>
        <time>2019-03-29T17:46:39Z</time>
        <name>WPT.920</name>
      </trkpt>
      <trkpt lat="35.096808100" lon="-106.440511930">
        <ele>2165.000</ele>
        <time>2019-03-29T17:47:06Z</time>
        <name>WPT.921</name>
      </trkpt>
      <trkpt lat="35.096811280" lon="-106.440466150">
        <ele>2163.000</ele>
        <time>2019-03-29T17:47:11Z</time>
        <name>WPT.922</name>
      </trkpt>
      <trkpt lat="35.096780600" lon="-106.440432130">
        <ele>2164.000</ele>
        <time>2019-03-29T17:47:21Z</time>
        <name>WPT.923</name>
      </trkpt>
      <trkpt lat="35.096730400" lon="-106.440431780">
        <ele>2164.000</ele>
        <time>2019-03-29T17:48:58Z</time>
        <name>WPT.924</name>
      </trkpt>
      <trkpt lat="35.096701520" lon="-106.440470490">
        <ele>2163.000</ele>
        <time>2019-03-29T17:49:02Z</time>
        <name>WPT.925</name>
      </trkpt>
      <trkpt lat="35.096669810" lon="-106.440504770">
        <ele>2162.000</ele>
        <time>2019-03-29T17:49:06Z</time>
        <name>WPT.926</name>
      </trkpt>
      <trkpt lat="35.096626880" lon="-106.440524390">
        <ele>2161.000</ele>
        <time>2019-03-29T17:49:10Z</time>
        <name>WPT.927</name>
      </trkpt>
      <trkpt lat="35.096582120" lon="-106.440530500">
        <ele>2160.000</ele>
        <time>2019-03-29T17:49:14Z</time>
        <name>WPT.928</name>
      </trkpt>
      <trkpt lat="35.096547040" lon="-106.440563230">
        <ele>2159.000</ele>
        <time>2019-03-29T17:49:17Z</time>
        <name>WPT.929</name>
      </trkpt>
      <trkpt lat="35.096521940" lon="-106.440604280">
        <ele>2158.000</ele>
        <time>2019-03-29T17:49:21Z</time>
        <name>WPT.930</name>
      </trkpt>
      <trkpt lat="35.096486680" lon="-106.440635150">
        <ele>2158.000</ele>
        <time>2019-03-29T17:49:26Z</time>
        <name>WPT.931</name>
      </trkpt>
      <trkpt lat="35.096443510" lon="-106.440648000">
        <ele>2158.000</ele>
        <time>2019-03-29T17:49:30Z</time>
        <name>WPT.932</name>
      </trkpt>
      <trkpt lat="35.096403950" lon="-106.440657480">
        <ele>2156.000</ele>
        <time>2019-03-29T17:49:34Z</time>
        <name>WPT.933</name>
      </trkpt>
      <trkpt lat="35.096367690" lon="-106.440669890">
        <ele>2156.000</ele>
        <time>2019-03-29T17:49:37Z</time>
        <name>WPT.934</name>
      </trkpt>
      <trkpt lat="35.096330980" lon="-106.440683570">
        <ele>2156.000</ele>
        <time>2019-03-29T17:49:40Z</time>
        <name>WPT.935</name>
      </trkpt>
      <trkpt lat="35.096293240" lon="-106.440677520">
        <ele>2155.000</ele>
        <time>2019-03-29T17:49:44Z</time>
        <name>WPT.936</name>
      </trkpt>
      <trkpt lat="35.096254150" lon="-106.440689470">
        <ele>2156.000</ele>
        <time>2019-03-29T17:49:49Z</time>
        <name>WPT.937</name>
      </trkpt>
      <trkpt lat="35.096218760" lon="-106.440698060">
        <ele>2154.000</ele>
        <time>2019-03-29T17:49:53Z</time>
        <name>WPT.938</name>
      </trkpt>
      <trkpt lat="35.096175390" lon="-106.440711320">
        <ele>2154.000</ele>
        <time>2019-03-29T17:49:57Z</time>
        <name>WPT.939</name>
      </trkpt>
      <trkpt lat="35.096136070" lon="-106.440719300">
        <ele>2153.000</ele>
        <time>2019-03-29T17:50:01Z</time>
        <name>WPT.940</name>
      </trkpt>
      <trkpt lat="35.096095300" lon="-106.440710090">
        <ele>2153.000</ele>
        <time>2019-03-29T17:50:05Z</time>
        <name>WPT.941</name>
      </trkpt>
      <trkpt lat="35.096066680" lon="-106.440743020">
        <ele>2152.000</ele>
        <time>2019-03-29T17:50:09Z</time>
        <name>WPT.942</name>
      </trkpt>
      <trkpt lat="35.096030710" lon="-106.440770660">
        <ele>2151.000</ele>
        <time>2019-03-29T17:50:12Z</time>
        <name>WPT.943</name>
      </trkpt>
      <trkpt lat="35.095985810" lon="-106.440781280">
        <ele>2151.000</ele>
        <time>2019-03-29T17:50:16Z</time>
        <name>WPT.944</name>
      </trkpt>
      <trkpt lat="35.095949740" lon="-106.440780570">
        <ele>2151.000</ele>
        <time>2019-03-29T17:50:19Z</time>
        <name>WPT.945</name>
      </trkpt>
      <trkpt lat="35.095920760" lon="-106.440751880">
        <ele>2151.000</ele>
        <time>2019-03-29T17:50:24Z</time>
        <name>WPT.946</name>
      </trkpt>
      <trkpt lat="35.095889610" lon="-106.440779280">
        <ele>2151.000</ele>
        <time>2019-03-29T17:50:33Z</time>
        <name>WPT.947</name>
      </trkpt>
      <trkpt lat="35.095858070" lon="-106.440745350">
        <ele>2148.000</ele>
        <time>2019-03-29T17:50:40Z</time>
        <name>WPT.948</name>
      </trkpt>
      <trkpt lat="35.095818190" lon="-106.440738660">
        <ele>2148.000</ele>
        <time>2019-03-29T17:51:07Z</time>
        <name>WPT.949</name>
      </trkpt>
      <trkpt lat="35.095777140" lon="-106.440727100">
        <ele>2144.000</ele>
        <time>2019-03-29T17:51:18Z</time>
        <name>WPT.950</name>
      </trkpt>
      <trkpt lat="35.095741670" lon="-106.440711510">
        <ele>2143.000</ele>
        <time>2019-03-29T17:51:34Z</time>
        <name>WPT.951</name>
      </trkpt>
      <trkpt lat="35.095695060" lon="-106.440716430">
        <ele>2143.000</ele>
        <time>2019-03-29T17:51:39Z</time>
        <name>WPT.952</name>
      </trkpt>
      <trkpt lat="35.095655800" lon="-106.440713930">
        <ele>2141.000</ele>
        <time>2019-03-29T17:51:43Z</time>
        <name>WPT.953</name>
      </trkpt>
      <trkpt lat="35.095616770" lon="-106.440695690">
        <ele>2142.000</ele>
        <time>2019-03-29T17:51:48Z</time>
        <name>WPT.954</name>
      </trkpt>
      <trkpt lat="35.095573200" lon="-106.440695130">
        <ele>2140.000</ele>
        <time>2019-03-29T17:51:53Z</time>
        <name>WPT.955</name>
      </trkpt>
      <trkpt lat="35.095537440" lon="-106.440710380">
        <ele>2139.000</ele>
        <time>2019-03-29T17:51:57Z</time>
        <name>WPT.956</name>
      </trkpt>
      <trkpt lat="35.095489310" lon="-106.440712250">
        <ele>2139.000</ele>
        <time>2019-03-29T17:52:02Z</time>
        <name>WPT.957</name>
      </trkpt>
      <trkpt lat="35.095444710" lon="-106.440722750">
        <ele>2138.000</ele>
        <time>2019-03-29T17:52:06Z</time>
        <name>WPT.958</name>
      </trkpt>
      <trkpt lat="35.095399820" lon="-106.440729020">
        <ele>2137.000</ele>
        <time>2019-03-29T17:52:38Z</time>
        <name>WPT.959</name>
      </trkpt>
      <trkpt lat="35.095352050" lon="-106.440730980">
        <ele>2135.000</ele>
        <time>2019-03-29T17:52:43Z</time>
        <name>WPT.960</name>
      </trkpt>
      <trkpt lat="35.095305750" lon="-106.440739790">
        <ele>2135.000</ele>
        <time>2019-03-29T17:52:47Z</time>
        <name>WPT.961</name>
      </trkpt>
      <trkpt lat="35.095264250" lon="-106.440751060">
        <ele>2134.000</ele>
        <time>2019-03-29T17:52:51Z</time>
        <name>WPT.962</name>
      </trkpt>
      <trkpt lat="35.095222280" lon="-106.440752650">
        <ele>2134.000</ele>
        <time>2019-03-29T17:52:55Z</time>
        <name>WPT.963</name>
      </trkpt>
      <trkpt lat="35.095179510" lon="-106.440746780">
        <ele>2135.000</ele>
        <time>2019-03-29T17:52:59Z</time>
        <name>WPT.964</name>
      </trkpt>
      <trkpt lat="35.095142840" lon="-106.440754000">
        <ele>2136.000</ele>
        <time>2019-03-29T17:53:03Z</time>
        <name>WPT.965</name>
      </trkpt>
      <trkpt lat="35.095101450" lon="-106.440766350">
        <ele>2134.000</ele>
        <time>2019-03-29T17:53:08Z</time>
        <name>WPT.966</name>
      </trkpt>
      <trkpt lat="35.095060600" lon="-106.440773650">
        <ele>2134.000</ele>
        <time>2019-03-29T17:53:12Z</time>
        <name>WPT.967</name>
      </trkpt>
      <trkpt lat="35.095023080" lon="-106.440771480">
        <ele>2133.000</ele>
        <time>2019-03-29T17:53:16Z</time>
        <name>WPT.968</name>
      </trkpt>
      <trkpt lat="35.094987050" lon="-106.440762710">
        <ele>2132.000</ele>
        <time>2019-03-29T17:53:20Z</time>
        <name>WPT.969</name>
      </trkpt>
      <trkpt lat="35.094942010" lon="-106.440764020">
        <ele>2132.000</ele>
        <time>2019-03-29T17:53:24Z</time>
        <name>WPT.970</name>
      </trkpt>
      <trkpt lat="35.094898200" lon="-106.440766240">
        <ele>2132.000</ele>
        <time>2019-03-29T17:53:28Z</time>
        <name>WPT.971</name>
      </trkpt>
      <trkpt lat="35.094849770" lon="-106.440773010">
        <ele>2131.000</ele>
        <time>2019-03-29T17:53:32Z</time>
        <name>WPT.972</name>
      </trkpt>
      <trkpt lat="35.094813810" lon="-106.440784550">
        <ele>2131.000</ele>
        <time>2019-03-29T17:53:36Z</time>
        <name>WPT.973</name>
      </trkpt>
      <trkpt lat="35.094774620" lon="-106.440783440">
        <ele>2129.000</ele>
        <time>2019-03-29T17:53:40Z</time>
        <name>WPT.974</name>
      </trkpt>
      <trkpt lat="35.094735950" lon="-106.440787510">
        <ele>2128.000</ele>
        <time>2019-03-29T17:53:44Z</time>
        <name>WPT.975</name>
      </trkpt>
      <trkpt lat="35.094696990" lon="-106.440808320">
        <ele>2128.000</ele>
        <time>2019-03-29T17:53:48Z</time>
        <name>WPT.976</name>
      </trkpt>
      <trkpt lat="35.094656420" lon="-106.440804250">
        <ele>2128.000</ele>
        <time>2019-03-29T17:53:52Z</time>
        <name>WPT.977</name>
      </trkpt>
      <trkpt lat="35.094618250" lon="-106.440808900">
        <ele>2128.000</ele>
        <time>2019-03-29T17:53:56Z</time>
        <name>WPT.978</name>
      </trkpt>
      <trkpt lat="35.094573560" lon="-106.440811290">
        <ele>2127.000</ele>
        <time>2019-03-29T17:54:00Z</time>
        <name>WPT.979</name>
      </trkpt>
      <trkpt lat="35.094537040" lon="-106.440818030">
        <ele>2126.000</ele>
        <time>2019-03-29T17:54:04Z</time>
        <name>WPT.980</name>
      </trkpt>
      <trkpt lat="35.094495150" lon="-106.440809940">
        <ele>2126.000</ele>
        <time>2019-03-29T17:54:09Z</time>
        <name>WPT.981</name>
      </trkpt>
      <trkpt lat="35.094453550" lon="-106.440822590">
        <ele>2126.000</ele>
        <time>2019-03-29T17:54:13Z</time>
        <name>WPT.982</name>
      </trkpt>
      <trkpt lat="35.094409710" lon="-106.440833960">
        <ele>2124.000</ele>
        <time>2019-03-29T17:54:18Z</time>
        <name>WPT.983</name>
      </trkpt>
      <trkpt lat="35.094373420" lon="-106.440831120">
        <ele>2125.000</ele>
        <time>2019-03-29T17:54:22Z</time>
        <name>WPT.984</name>
      </trkpt>
      <trkpt lat="35.094338020" lon="-106.440841060">
        <ele>2124.000</ele>
        <time>2019-03-29T17:54:27Z</time>
        <name>WPT.985</name>
      </trkpt>
      <trkpt lat="35.094301330" lon="-106.440855160">
        <ele>2124.000</ele>
        <time>2019-03-29T17:54:31Z</time>
        <name>WPT.986</name>
      </trkpt>
      <trkpt lat="35.094264470" lon="-106.440840060">
        <ele>2123.000</ele>
        <time>2019-03-29T17:54:35Z</time>
        <name>WPT.987</name>
      </trkpt>
      <trkpt lat="35.094227470" lon="-106.440825390">
        <ele>2123.000</ele>
        <time>2019-03-29T17:54:39Z</time>
        <name>WPT.988</name>
      </trkpt>
      <trkpt lat="35.094187870" lon="-106.440809140">
        <ele>2122.000</ele>
        <time>2019-03-29T17:54:44Z</time>
        <name>WPT.989</name>
      </trkpt>
      <trkpt lat="35.094154960" lon="-106.440788010">
        <ele>2121.000</ele>
        <time>2019-03-29T17:54:49Z</time>
        <name>WPT.990</name>
      </trkpt>
      <trkpt lat="35.094120280" lon="-106.440746870">
        <ele>2123.000</ele>
        <time>2019-03-29T17:55:12Z</time>
        <name>WPT.991</name>
      </trkpt>
      <trkpt lat="35.094080330" lon="-106.440723060">
        <ele>2121.000</ele>
        <time>2019-03-29T17:55:17Z</time>
        <name>WPT.992</name>
      </trkpt>
      <trkpt lat="35.094040900" lon="-106.440720990">
        <ele>2120.000</ele>
        <time>2019-03-29T17:55:22Z</time>
        <name>WPT.993</name>
      </trkpt>
      <trkpt lat="35.093997210" lon="-106.440717540">
        <ele>2118.000</ele>
        <time>2019-03-29T17:55:26Z</time>
        <name>WPT.994</name>
      </trkpt>
      <trkpt lat="35.093960300" lon="-106.440709180">
        <ele>2118.000</ele>
        <time>2019-03-29T17:55:30Z</time>
        <name>WPT.995</name>
      </trkpt>
      <trkpt lat="35.093915320" lon="-106.440710290">
        <ele>2117.000</ele>
        <time>2019-03-29T17:55:35Z</time>
        <name>WPT.996</name>
      </trkpt>
      <trkpt lat="35.093873060" lon="-106.440711030">
        <ele>2115.000</ele>
        <time>2019-03-29T17:55:39Z</time>
        <name>WPT.997</name>
      </trkpt>
      <trkpt lat="35.093832360" lon="-106.440707120">
        <ele>2115.000</ele>
        <time>2019-03-29T17:55:43Z</time>
        <name>WPT.998</name>
      </trkpt>
      <trkpt lat="35.093791550" lon="-106.440723670">
        <ele>2115.000</ele>
        <time>2019-03-29T17:55:49Z</time>
        <name>WPT.999</name>
      </trkpt>
      <trkpt lat="35.093753610" lon="-106.440729280">
        <ele>2115.000</ele>
        <time>2019-03-29T17:55:53Z</time>
        <name>WPT.1000</name>
      </trkpt>
      <trkpt lat="35.093715270" lon="-106.440740440">
        <ele>2114.000</ele>
        <time>2019-03-29T17:55:57Z</time>
        <name>WPT.1001</name>
      </trkpt>
      <trkpt lat="35.093678410" lon="-106.440745440">
        <ele>2113.000</ele>
        <time>2019-03-29T17:56:01Z</time>
        <name>WPT.1002</name>
      </trkpt>
      <trkpt lat="35.093643130" lon="-106.440758490">
        <ele>2112.000</ele>
        <time>2019-03-29T17:56:04Z</time>
        <name>WPT.1003</name>
      </trkpt>
      <trkpt lat="35.093599290" lon="-106.440772820">
        <ele>2113.000</ele>
        <time>2019-03-29T17:56:09Z</time>
        <name>WPT.1004</name>
      </trkpt>
      <trkpt lat="35.093562130" lon="-106.440789440">
        <ele>2112.000</ele>
        <time>2019-03-29T17:56:13Z</time>
        <name>WPT.1005</name>
      </trkpt>
      <trkpt lat="35.093520120" lon="-106.440799970">
        <ele>2111.000</ele>
        <time>2019-03-29T17:56:17Z</time>
        <name>WPT.1006</name>
      </trkpt>
      <trkpt lat="35.093487000" lon="-106.440820920">
        <ele>2110.000</ele>
        <time>2019-03-29T17:56:21Z</time>
        <name>WPT.1007</name>
      </trkpt>
      <trkpt lat="35.093452220" lon="-106.440836760">
        <ele>2110.000</ele>
        <time>2019-03-29T17:56:25Z</time>
        <name>WPT.1008</name>
      </trkpt>
      <trkpt lat="35.093411910" lon="-106.440851140">
        <ele>2110.000</ele>
        <time>2019-03-29T17:56:29Z</time>
        <name>WPT.1009</name>
      </trkpt>
      <trkpt lat="35.093371150" lon="-106.440870630">
        <ele>2108.000</ele>
        <time>2019-03-29T17:56:33Z</time>
        <name>WPT.1010</name>
      </trkpt>
      <trkpt lat="35.093329000" lon="-106.440885710">
        <ele>2107.000</ele>
        <time>2019-03-29T17:56:37Z</time>
        <name>WPT.1011</name>
      </trkpt>
      <trkpt lat="35.093292690" lon="-106.440886420">
        <ele>2107.000</ele>
        <time>2019-03-29T17:56:42Z</time>
        <name>WPT.1012</name>
      </trkpt>
      <trkpt lat="35.093249360" lon="-106.440880450">
        <ele>2109.000</ele>
        <time>2019-03-29T17:56:48Z</time>
        <name>WPT.1013</name>
      </trkpt>
      <trkpt lat="35.093213900" lon="-106.440889580">
        <ele>2108.000</ele>
        <time>2019-03-29T17:56:52Z</time>
        <name>WPT.1014</name>
      </trkpt>
      <trkpt lat="35.093172910" lon="-106.440891140">
        <ele>2105.000</ele>
        <time>2019-03-29T17:56:56Z</time>
        <name>WPT.1015</name>
      </trkpt>
      <trkpt lat="35.093141170" lon="-106.440860510">
        <ele>2104.000</ele>
        <time>2019-03-29T17:57:01Z</time>
        <name>WPT.1016</name>
      </trkpt>
      <trkpt lat="35.093101380" lon="-106.440838330">
        <ele>2104.000</ele>
        <time>2019-03-29T17:57:05Z</time>
        <name>WPT.1017</name>
      </trkpt>
      <trkpt lat="35.093077380" lon="-106.440801250">
        <ele>2104.000</ele>
        <time>2019-03-29T17:57:11Z</time>
        <name>WPT.1018</name>
      </trkpt>
      <trkpt lat="35.093049950" lon="-106.440764630">
        <ele>2106.000</ele>
        <time>2019-03-29T17:57:16Z</time>
        <name>WPT.1019</name>
      </trkpt>
      <trkpt lat="35.093020950" lon="-106.440733460">
        <ele>2105.000</ele>
        <time>2019-03-29T17:57:19Z</time>
        <name>WPT.1020</name>
      </trkpt>
      <trkpt lat="35.092983880" lon="-106.440721840">
        <ele>2104.000</ele>
        <time>2019-03-29T17:57:23Z</time>
        <name>WPT.1021</name>
      </trkpt>
      <trkpt lat="35.092955600" lon="-106.440693980">
        <ele>2103.000</ele>
        <time>2019-03-29T17:57:27Z</time>
        <name>WPT.1022</name>
      </trkpt>
      <trkpt lat="35.092921420" lon="-106.440674870">
        <ele>2103.000</ele>
        <time>2019-03-29T17:57:31Z</time>
        <name>WPT.1023</name>
      </trkpt>
      <trkpt lat="35.092881450" lon="-106.440649320">
        <ele>2101.000</ele>
        <time>2019-03-29T17:57:36Z</time>
        <name>WPT.1024</name>
      </trkpt>
      <trkpt lat="35.092838510" lon="-106.440621700">
        <ele>2099.000</ele>
        <time>2019-03-29T17:57:41Z</time>
        <name>WPT.1025</name>
      </trkpt>
      <trkpt lat="35.092805930" lon="-106.440602550">
        <ele>2101.000</ele>
        <time>2019-03-29T17:57:45Z</time>
        <name>WPT.1026</name>
      </trkpt>
      <trkpt lat="35.092761990" lon="-106.440588380">
        <ele>2102.000</ele>
        <time>2019-03-29T17:57:49Z</time>
        <name>WPT.1027</name>
      </trkpt>
      <trkpt lat="35.092721500" lon="-106.440591720">
        <ele>2103.000</ele>
        <time>2019-03-29T17:57:54Z</time>
        <name>WPT.1028</name>
      </trkpt>
      <trkpt lat="35.092683140" lon="-106.440571490">
        <ele>2104.000</ele>
        <time>2019-03-29T17:57:58Z</time>
        <name>WPT.1029</name>
      </trkpt>
      <trkpt lat="35.092646870" lon="-106.440556700">
        <ele>2104.000</ele>
        <time>2019-03-29T17:58:02Z</time>
        <name>WPT.1030</name>
      </trkpt>
      <trkpt lat="35.092610850" lon="-106.440527740">
        <ele>2104.000</ele>
        <time>2019-03-29T17:58:07Z</time>
        <name>WPT.1031</name>
      </trkpt>
      <trkpt lat="35.092586880" lon="-106.440490110">
        <ele>2104.000</ele>
        <time>2019-03-29T17:58:12Z</time>
        <name>WPT.1032</name>
      </trkpt>
      <trkpt lat="35.092555060" lon="-106.440450710">
        <ele>2103.000</ele>
        <time>2019-03-29T17:58:17Z</time>
        <name>WPT.1033</name>
      </trkpt>
      <trkpt lat="35.092525930" lon="-106.440421480">
        <ele>2102.000</ele>
        <time>2019-03-29T17:58:21Z</time>
        <name>WPT.1034</name>
      </trkpt>
      <trkpt lat="35.092492060" lon="-106.440393580">
        <ele>2101.000</ele>
        <time>2019-03-29T17:58:26Z</time>
        <name>WPT.1035</name>
      </trkpt>
      <trkpt lat="35.092452490" lon="-106.440394000">
        <ele>2101.000</ele>
        <time>2019-03-29T17:58:32Z</time>
        <name>WPT.1036</name>
      </trkpt>
      <trkpt lat="35.092404980" lon="-106.440396440">
        <ele>2104.000</ele>
        <time>2019-03-29T17:58:55Z</time>
        <name>WPT.1037</name>
      </trkpt>
      <trkpt lat="35.092367130" lon="-106.440402370">
        <ele>2103.000</ele>
        <time>2019-03-29T17:58:59Z</time>
        <name>WPT.1038</name>
      </trkpt>
      <trkpt lat="35.092325750" lon="-106.440414720">
        <ele>2104.000</ele>
        <time>2019-03-29T17:59:05Z</time>
        <name>WPT.1039</name>
      </trkpt>
      <trkpt lat="35.092289580" lon="-106.440428250">
        <ele>2104.000</ele>
        <time>2019-03-29T17:59:12Z</time>
        <name>WPT.1040</name>
      </trkpt>
      <trkpt lat="35.092243950" lon="-106.440429430">
        <ele>2102.000</ele>
        <time>2019-03-29T17:59:16Z</time>
        <name>WPT.1041</name>
      </trkpt>
      <trkpt lat="35.092204970" lon="-106.440424500">
        <ele>2102.000</ele>
        <time>2019-03-29T17:59:21Z</time>
        <name>WPT.1042</name>
      </trkpt>
      <trkpt lat="35.092160650" lon="-106.440428700">
        <ele>2103.000</ele>
        <time>2019-03-29T17:59:26Z</time>
        <name>WPT.1043</name>
      </trkpt>
      <trkpt lat="35.092122810" lon="-106.440425330">
        <ele>2100.000</ele>
        <time>2019-03-29T17:59:54Z</time>
        <name>WPT.1044</name>
      </trkpt>
      <trkpt lat="35.092080380" lon="-106.440431880">
        <ele>2099.000</ele>
        <time>2019-03-29T17:59:59Z</time>
        <name>WPT.1045</name>
      </trkpt>
      <trkpt lat="35.092050300" lon="-106.440460190">
        <ele>2098.000</ele>
        <time>2019-03-29T18:00:04Z</time>
        <name>WPT.1046</name>
      </trkpt>
      <trkpt lat="35.092021490" lon="-106.440492190">
        <ele>2098.000</ele>
        <time>2019-03-29T18:00:09Z</time>
        <name>WPT.1047</name>
      </trkpt>
      <trkpt lat="35.091998600" lon="-106.440526310">
        <ele>2096.000</ele>
        <time>2019-03-29T18:00:14Z</time>
        <name>WPT.1048</name>
      </trkpt>
      <trkpt lat="35.091959210" lon="-106.440532450">
        <ele>2096.000</ele>
        <time>2019-03-29T18:00:20Z</time>
        <name>WPT.1049</name>
      </trkpt>
      <trkpt lat="35.091918880" lon="-106.440541340">
        <ele>2097.000</ele>
        <time>2019-03-29T18:00:26Z</time>
        <name>WPT.1050</name>
      </trkpt>
      <trkpt lat="35.091881930" lon="-106.440560110">
        <ele>2098.000</ele>
        <time>2019-03-29T18:00:31Z</time>
        <name>WPT.1051</name>
      </trkpt>
      <trkpt lat="35.091848110" lon="-106.440575450">
        <ele>2098.000</ele>
        <time>2019-03-29T18:00:35Z</time>
        <name>WPT.1052</name>
      </trkpt>
      <trkpt lat="35.091810270" lon="-106.440581770">
        <ele>2099.000</ele>
        <time>2019-03-29T18:00:41Z</time>
        <name>WPT.1053</name>
      </trkpt>
      <trkpt lat="35.091774910" lon="-106.440592750">
        <ele>2098.000</ele>
        <time>2019-03-29T18:00:46Z</time>
        <name>WPT.1054</name>
      </trkpt>
      <trkpt lat="35.091735220" lon="-106.440605130">
        <ele>2097.000</ele>
        <time>2019-03-29T18:00:51Z</time>
        <name>WPT.1055</name>
      </trkpt>
      <trkpt lat="35.091701860" lon="-106.440628860">
        <ele>2097.000</ele>
        <time>2019-03-29T18:00:55Z</time>
        <name>WPT.1056</name>
      </trkpt>
      <trkpt lat="35.091667030" lon="-106.440648100">
        <ele>2097.000</ele>
        <time>2019-03-29T18:00:59Z</time>
        <name>WPT.1057</name>
      </trkpt>
      <trkpt lat="35.091630560" lon="-106.440663400">
        <ele>2096.000</ele>
        <time>2019-03-29T18:01:04Z</time>
        <name>WPT.1058</name>
      </trkpt>
      <trkpt lat="35.091582850" lon="-106.440673330">
        <ele>2094.000</ele>
        <time>2019-03-29T18:01:09Z</time>
        <name>WPT.1059</name>
      </trkpt>
      <trkpt lat="35.091546280" lon="-106.440692040">
        <ele>2094.000</ele>
        <time>2019-03-29T18:01:13Z</time>
        <name>WPT.1060</name>
      </trkpt>
      <trkpt lat="35.091520680" lon="-106.440724390">
        <ele>2093.000</ele>
        <time>2019-03-29T18:01:45Z</time>
        <name>WPT.1061</name>
      </trkpt>
      <trkpt lat="35.091484700" lon="-106.440732510">
        <ele>2091.000</ele>
        <time>2019-03-29T18:01:48Z</time>
        <name>WPT.1062</name>
      </trkpt>
      <trkpt lat="35.091444120" lon="-106.440746500">
        <ele>2090.000</ele>
        <time>2019-03-29T18:01:52Z</time>
        <name>WPT.1063</name>
      </trkpt>
      <trkpt lat="35.091404520" lon="-106.440754590">
        <ele>2089.000</ele>
        <time>2019-03-29T18:01:56Z</time>
        <name>WPT.1064</name>
      </trkpt>
      <trkpt lat="35.091365810" lon="-106.440762820">
        <ele>2088.000</ele>
        <time>2019-03-29T18:02:00Z</time>
        <name>WPT.1065</name>
      </trkpt>
      <trkpt lat="35.091342550" lon="-106.440797720">
        <ele>2090.000</ele>
        <time>2019-03-29T18:02:04Z</time>
        <name>WPT.1066</name>
      </trkpt>
      <trkpt lat="35.091306010" lon="-106.440808080">
        <ele>2089.000</ele>
        <time>2019-03-29T18:02:08Z</time>
        <name>WPT.1067</name>
      </trkpt>
      <trkpt lat="35.091266470" lon="-106.440844780">
        <ele>2089.000</ele>
        <time>2019-03-29T18:02:12Z</time>
        <name>WPT.1068</name>
      </trkpt>
      <trkpt lat="35.091228980" lon="-106.440867530">
        <ele>2088.000</ele>
        <time>2019-03-29T18:02:16Z</time>
        <name>WPT.1069</name>
      </trkpt>
      <trkpt lat="35.091191680" lon="-106.440865300">
        <ele>2087.000</ele>
        <time>2019-03-29T18:02:20Z</time>
        <name>WPT.1070</name>
      </trkpt>
      <trkpt lat="35.091152500" lon="-106.440861990">
        <ele>2086.000</ele>
        <time>2019-03-29T18:02:24Z</time>
        <name>WPT.1071</name>
      </trkpt>
      <trkpt lat="35.091110970" lon="-106.440863960">
        <ele>2085.000</ele>
        <time>2019-03-29T18:02:28Z</time>
        <name>WPT.1072</name>
      </trkpt>
      <trkpt lat="35.091066760" lon="-106.440845380">
        <ele>2083.000</ele>
        <time>2019-03-29T18:02:33Z</time>
        <name>WPT.1073</name>
      </trkpt>
      <trkpt lat="35.091026880" lon="-106.440837580">
        <ele>2083.000</ele>
        <time>2019-03-29T18:02:37Z</time>
        <name>WPT.1074</name>
      </trkpt>
      <trkpt lat="35.090987020" lon="-106.440852990">
        <ele>2081.000</ele>
        <time>2019-03-29T18:02:42Z</time>
        <name>WPT.1075</name>
      </trkpt>
      <trkpt lat="35.090962640" lon="-106.440897370">
        <ele>2080.000</ele>
        <time>2019-03-29T18:02:46Z</time>
        <name>WPT.1076</name>
      </trkpt>
      <trkpt lat="35.090984700" lon="-106.440939930">
        <ele>2080.000</ele>
        <time>2019-03-29T18:02:49Z</time>
        <name>WPT.1077</name>
      </trkpt>
      <trkpt lat="35.090982040" lon="-106.440986800">
        <ele>2079.000</ele>
        <time>2019-03-29T18:02:53Z</time>
        <name>WPT.1078</name>
      </trkpt>
      <trkpt lat="35.090982010" lon="-106.441033710">
        <ele>2079.000</ele>
        <time>2019-03-29T18:02:57Z</time>
        <name>WPT.1079</name>
      </trkpt>
      <trkpt lat="35.090977580" lon="-106.441082240">
        <ele>2080.000</ele>
        <time>2019-03-29T18:03:01Z</time>
        <name>WPT.1080</name>
      </trkpt>
      <trkpt lat="35.090976740" lon="-106.441128660">
        <ele>2080.000</ele>
        <time>2019-03-29T18:03:05Z</time>
        <name>WPT.1081</name>
      </trkpt>
      <trkpt lat="35.090971450" lon="-106.441175350">
        <ele>2079.000</ele>
        <time>2019-03-29T18:03:09Z</time>
        <name>WPT.1082</name>
      </trkpt>
      <trkpt lat="35.090968070" lon="-106.441228710">
        <ele>2079.000</ele>
        <time>2019-03-29T18:03:13Z</time>
        <name>WPT.1083</name>
      </trkpt>
      <trkpt lat="35.090949870" lon="-106.441275330">
        <ele>2080.000</ele>
        <time>2019-03-29T18:03:17Z</time>
        <name>WPT.1084</name>
      </trkpt>
      <trkpt lat="35.090918540" lon="-106.441303020">
        <ele>2079.000</ele>
        <time>2019-03-29T18:03:21Z</time>
        <name>WPT.1085</name>
      </trkpt>
      <trkpt lat="35.090879210" lon="-106.441318930">
        <ele>2079.000</ele>
        <time>2019-03-29T18:03:25Z</time>
        <name>WPT.1086</name>
      </trkpt>
      <trkpt lat="35.090849150" lon="-106.441348680">
        <ele>2078.000</ele>
        <time>2019-03-29T18:03:29Z</time>
        <name>WPT.1087</name>
      </trkpt>
      <trkpt lat="35.090825980" lon="-106.441386940">
        <ele>2077.000</ele>
        <time>2019-03-29T18:03:33Z</time>
        <name>WPT.1088</name>
      </trkpt>
      <trkpt lat="35.090804520" lon="-106.441424530">
        <ele>2076.000</ele>
        <time>2019-03-29T18:03:37Z</time>
        <name>WPT.1089</name>
      </trkpt>
      <trkpt lat="35.090767490" lon="-106.441453700">
        <ele>2077.000</ele>
        <time>2019-03-29T18:03:42Z</time>
        <name>WPT.1090</name>
      </trkpt>
      <trkpt lat="35.090751060" lon="-106.441494580">
        <ele>2077.000</ele>
        <time>2019-03-29T18:03:45Z</time>
        <name>WPT.1091</name>
      </trkpt>
      <trkpt lat="35.090728010" lon="-106.441531780">
        <ele>2076.000</ele>
        <time>2019-03-29T18:03:49Z</time>
        <name>WPT.1092</name>
      </trkpt>
      <trkpt lat="35.090684770" lon="-106.441547810">
        <ele>2075.000</ele>
        <time>2019-03-29T18:03:54Z</time>
        <name>WPT.1093</name>
      </trkpt>
      <trkpt lat="35.090647290" lon="-106.441570740">
        <ele>2074.000</ele>
        <time>2019-03-29T18:03:59Z</time>
        <name>WPT.1094</name>
      </trkpt>
      <trkpt lat="35.090609720" lon="-106.441582070">
        <ele>2073.000</ele>
        <time>2019-03-29T18:04:02Z</time>
        <name>WPT.1095</name>
      </trkpt>
      <trkpt lat="35.090575360" lon="-106.441599300">
        <ele>2073.000</ele>
        <time>2019-03-29T18:04:06Z</time>
        <name>WPT.1096</name>
      </trkpt>
      <trkpt lat="35.090533010" lon="-106.441611990">
        <ele>2073.000</ele>
        <time>2019-03-29T18:04:11Z</time>
        <name>WPT.1097</name>
      </trkpt>
      <trkpt lat="35.090491700" lon="-106.441626990">
        <ele>2073.000</ele>
        <time>2019-03-29T18:04:16Z</time>
        <name>WPT.1098</name>
      </trkpt>
      <trkpt lat="35.090451530" lon="-106.441639930">
        <ele>2072.000</ele>
        <time>2019-03-29T18:04:21Z</time>
        <name>WPT.1099</name>
      </trkpt>
      <trkpt lat="35.090420060" lon="-106.441661830">
        <ele>2072.000</ele>
        <time>2019-03-29T18:04:26Z</time>
        <name>WPT.1100</name>
      </trkpt>
      <trkpt lat="35.090378160" lon="-106.441672930">
        <ele>2072.000</ele>
        <time>2019-03-29T18:04:32Z</time>
        <name>WPT.1101</name>
      </trkpt>
      <trkpt lat="35.090344350" lon="-106.441689250">
        <ele>2071.000</ele>
        <time>2019-03-29T18:04:36Z</time>
        <name>WPT.1102</name>
      </trkpt>
      <trkpt lat="35.090301880" lon="-106.441700100">
        <ele>2069.000</ele>
        <time>2019-03-29T18:04:40Z</time>
        <name>WPT.1103</name>
      </trkpt>
      <trkpt lat="35.090271100" lon="-106.441730720">
        <ele>2071.000</ele>
        <time>2019-03-29T18:04:44Z</time>
        <name>WPT.1104</name>
      </trkpt>
      <trkpt lat="35.090241820" lon="-106.441766460">
        <ele>2069.000</ele>
        <time>2019-03-29T18:04:48Z</time>
        <name>WPT.1105</name>
      </trkpt>
      <trkpt lat="35.090201210" lon="-106.441787710">
        <ele>2068.000</ele>
        <time>2019-03-29T18:04:52Z</time>
        <name>WPT.1106</name>
      </trkpt>
      <trkpt lat="35.090166790" lon="-106.441813660">
        <ele>2068.000</ele>
        <time>2019-03-29T18:04:56Z</time>
        <name>WPT.1107</name>
      </trkpt>
      <trkpt lat="35.090126410" lon="-106.441839240">
        <ele>2066.000</ele>
        <time>2019-03-29T18:05:00Z</time>
        <name>WPT.1108</name>
      </trkpt>
      <trkpt lat="35.090084260" lon="-106.441841650">
        <ele>2065.000</ele>
        <time>2019-03-29T18:05:04Z</time>
        <name>WPT.1109</name>
      </trkpt>
      <trkpt lat="35.090048100" lon="-106.441835730">
        <ele>2066.000</ele>
        <time>2019-03-29T18:05:08Z</time>
        <name>WPT.1110</name>
      </trkpt>
      <trkpt lat="35.090005910" lon="-106.441819610">
        <ele>2065.000</ele>
        <time>2019-03-29T18:05:13Z</time>
        <name>WPT.1111</name>
      </trkpt>
      <trkpt lat="35.089961310" lon="-106.441827230">
        <ele>2065.000</ele>
        <time>2019-03-29T18:05:17Z</time>
        <name>WPT.1112</name>
      </trkpt>
      <trkpt lat="35.089924940" lon="-106.441840650">
        <ele>2065.000</ele>
        <time>2019-03-29T18:05:20Z</time>
        <name>WPT.1113</name>
      </trkpt>
      <trkpt lat="35.089887520" lon="-106.441873400">
        <ele>2064.000</ele>
        <time>2019-03-29T18:05:24Z</time>
        <name>WPT.1114</name>
      </trkpt>
      <trkpt lat="35.089853940" lon="-106.441904360">
        <ele>2064.000</ele>
        <time>2019-03-29T18:05:28Z</time>
        <name>WPT.1115</name>
      </trkpt>
      <trkpt lat="35.089824980" lon="-106.441946090">
        <ele>2063.000</ele>
        <time>2019-03-29T18:05:32Z</time>
        <name>WPT.1116</name>
      </trkpt>
      <trkpt lat="35.089789360" lon="-106.441964570">
        <ele>2063.000</ele>
        <time>2019-03-29T18:05:36Z</time>
        <name>WPT.1117</name>
      </trkpt>
      <trkpt lat="35.089755530" lon="-106.441989980">
        <ele>2061.000</ele>
        <time>2019-03-29T18:05:40Z</time>
        <name>WPT.1118</name>
      </trkpt>
      <trkpt lat="35.089721410" lon="-106.442014430">
        <ele>2061.000</ele>
        <time>2019-03-29T18:05:44Z</time>
        <name>WPT.1119</name>
      </trkpt>
      <trkpt lat="35.089682580" lon="-106.442028440">
        <ele>2061.000</ele>
        <time>2019-03-29T18:05:49Z</time>
        <name>WPT.1120</name>
      </trkpt>
      <trkpt lat="35.089643150" lon="-106.442023150">
        <ele>2061.000</ele>
        <time>2019-03-29T18:05:53Z</time>
        <name>WPT.1121</name>
      </trkpt>
      <trkpt lat="35.089601720" lon="-106.442013340">
        <ele>2061.000</ele>
        <time>2019-03-29T18:05:58Z</time>
        <name>WPT.1122</name>
      </trkpt>
      <trkpt lat="35.089564290" lon="-106.442008350">
        <ele>2060.000</ele>
        <time>2019-03-29T18:06:02Z</time>
        <name>WPT.1123</name>
      </trkpt>
      <trkpt lat="35.089526260" lon="-106.442000280">
        <ele>2059.000</ele>
        <time>2019-03-29T18:06:06Z</time>
        <name>WPT.1124</name>
      </trkpt>
      <trkpt lat="35.089486120" lon="-106.441993180">
        <ele>2060.000</ele>
        <time>2019-03-29T18:06:12Z</time>
        <name>WPT.1125</name>
      </trkpt>
      <trkpt lat="35.089445040" lon="-106.441987130">
        <ele>2059.000</ele>
        <time>2019-03-29T18:06:17Z</time>
        <name>WPT.1126</name>
      </trkpt>
      <trkpt lat="35.089405470" lon="-106.442006360">
        <ele>2059.000</ele>
        <time>2019-03-29T18:06:21Z</time>
        <name>WPT.1127</name>
      </trkpt>
      <trkpt lat="35.089370470" lon="-106.441992240">
        <ele>2058.000</ele>
        <time>2019-03-29T18:06:25Z</time>
        <name>WPT.1128</name>
      </trkpt>
      <trkpt lat="35.089321770" lon="-106.441990730">
        <ele>2058.000</ele>
        <time>2019-03-29T18:06:30Z</time>
        <name>WPT.1129</name>
      </trkpt>
      <trkpt lat="35.089279190" lon="-106.441986230">
        <ele>2058.000</ele>
        <time>2019-03-29T18:06:34Z</time>
        <name>WPT.1130</name>
      </trkpt>
      <trkpt lat="35.089244020" lon="-106.441998780">
        <ele>2057.000</ele>
        <time>2019-03-29T18:06:38Z</time>
        <name>WPT.1131</name>
      </trkpt>
      <trkpt lat="35.089207930" lon="-106.442004600">
        <ele>2056.000</ele>
        <time>2019-03-29T18:06:41Z</time>
        <name>WPT.1132</name>
      </trkpt>
      <trkpt lat="35.089162750" lon="-106.442008750">
        <ele>2054.000</ele>
        <time>2019-03-29T18:06:45Z</time>
        <name>WPT.1133</name>
      </trkpt>
      <trkpt lat="35.089123640" lon="-106.442003840">
        <ele>2054.000</ele>
        <time>2019-03-29T18:06:49Z</time>
        <name>WPT.1134</name>
      </trkpt>
      <trkpt lat="35.089084570" lon="-106.442009120">
        <ele>2053.000</ele>
        <time>2019-03-29T18:06:53Z</time>
        <name>WPT.1135</name>
      </trkpt>
      <trkpt lat="35.089042360" lon="-106.442019860">
        <ele>2052.000</ele>
        <time>2019-03-29T18:06:57Z</time>
        <name>WPT.1136</name>
      </trkpt>
      <trkpt lat="35.088997290" lon="-106.442036660">
        <ele>2051.000</ele>
        <time>2019-03-29T18:07:01Z</time>
        <name>WPT.1137</name>
      </trkpt>
      <trkpt lat="35.088962470" lon="-106.442061910">
        <ele>2051.000</ele>
        <time>2019-03-29T18:07:05Z</time>
        <name>WPT.1138</name>
      </trkpt>
      <trkpt lat="35.088927930" lon="-106.442095350">
        <ele>2051.000</ele>
        <time>2019-03-29T18:07:09Z</time>
        <name>WPT.1139</name>
      </trkpt>
      <trkpt lat="35.088880120" lon="-106.442104700">
        <ele>2051.000</ele>
        <time>2019-03-29T18:07:13Z</time>
        <name>WPT.1140</name>
      </trkpt>
      <trkpt lat="35.088846760" lon="-106.442128680">
        <ele>2050.000</ele>
        <time>2019-03-29T18:07:18Z</time>
        <name>WPT.1141</name>
      </trkpt>
      <trkpt lat="35.088810190" lon="-106.442131970">
        <ele>2049.000</ele>
        <time>2019-03-29T18:07:23Z</time>
        <name>WPT.1142</name>
      </trkpt>
      <trkpt lat="35.088767720" lon="-106.442128900">
        <ele>2049.000</ele>
        <time>2019-03-29T18:08:09Z</time>
        <name>WPT.1143</name>
      </trkpt>
      <trkpt lat="35.088735090" lon="-106.442106050">
        <ele>2049.000</ele>
        <time>2019-03-29T18:08:13Z</time>
        <name>WPT.1144</name>
      </trkpt>
      <trkpt lat="35.088707880" lon="-106.442136270">
        <ele>2054.000</ele>
        <time>2019-03-29T18:09:18Z</time>
        <name>WPT.1145</name>
      </trkpt>
      <trkpt lat="35.088667640" lon="-106.442111450">
        <ele>2051.000</ele>
        <time>2019-03-29T18:11:25Z</time>
        <name>WPT.1146</name>
      </trkpt>
      <trkpt lat="35.088632660" lon="-106.442086950">
        <ele>2049.000</ele>
        <time>2019-03-29T18:11:28Z</time>
        <name>WPT.1147</name>
      </trkpt>
      <trkpt lat="35.088587710" lon="-106.442085360">
        <ele>2048.000</ele>
        <time>2019-03-29T18:11:31Z</time>
        <name>WPT.1148</name>
      </trkpt>
      <trkpt lat="35.088547830" lon="-106.442090620">
        <ele>2048.000</ele>
        <time>2019-03-29T18:11:34Z</time>
        <name>WPT.1149</name>
      </trkpt>
      <trkpt lat="35.088507600" lon="-106.442106040">
        <ele>2048.000</ele>
        <time>2019-03-29T18:11:37Z</time>
        <name>WPT.1150</name>
      </trkpt>
      <trkpt lat="35.088469930" lon="-106.442121740">
        <ele>2046.000</ele>
        <time>2019-03-29T18:11:40Z</time>
        <name>WPT.1151</name>
      </trkpt>
      <trkpt lat="35.088431330" lon="-106.442133050">
        <ele>2046.000</ele>
        <time>2019-03-29T18:11:43Z</time>
        <name>WPT.1152</name>
      </trkpt>
      <trkpt lat="35.088385610" lon="-106.442137420">
        <ele>2045.000</ele>
        <time>2019-03-29T18:11:47Z</time>
        <name>WPT.1153</name>
      </trkpt>
      <trkpt lat="35.088345260" lon="-106.442144460">
        <ele>2044.000</ele>
        <time>2019-03-29T18:11:50Z</time>
        <name>WPT.1154</name>
      </trkpt>
      <trkpt lat="35.088307960" lon="-106.442145380">
        <ele>2045.000</ele>
        <time>2019-03-29T18:11:54Z</time>
        <name>WPT.1155</name>
      </trkpt>
      <trkpt lat="35.088269330" lon="-106.442122520">
        <ele>2043.000</ele>
        <time>2019-03-29T18:12:01Z</time>
        <name>WPT.1156</name>
      </trkpt>
      <trkpt lat="35.088232690" lon="-106.442122320">
        <ele>2042.000</ele>
        <time>2019-03-29T18:12:07Z</time>
        <name>WPT.1157</name>
      </trkpt>
      <trkpt lat="35.088193780" lon="-106.442128070">
        <ele>2041.000</ele>
        <time>2019-03-29T18:12:11Z</time>
        <name>WPT.1158</name>
      </trkpt>
      <trkpt lat="35.088158740" lon="-106.442113830">
        <ele>2040.000</ele>
        <time>2019-03-29T18:12:15Z</time>
        <name>WPT.1159</name>
      </trkpt>
      <trkpt lat="35.088118930" lon="-106.442091150">
        <ele>2039.000</ele>
        <time>2019-03-29T18:12:22Z</time>
        <name>WPT.1160</name>
      </trkpt>
      <trkpt lat="35.088080370" lon="-106.442078260">
        <ele>2039.000</ele>
        <time>2019-03-29T18:12:27Z</time>
        <name>WPT.1161</name>
      </trkpt>
      <trkpt lat="35.088038240" lon="-106.442082340">
        <ele>2038.000</ele>
        <time>2019-03-29T18:12:32Z</time>
        <name>WPT.1162</name>
      </trkpt>
      <trkpt lat="35.088001350" lon="-106.442058850">
        <ele>2037.000</ele>
        <time>2019-03-29T18:12:37Z</time>
        <name>WPT.1163</name>
      </trkpt>
      <trkpt lat="35.087972290" lon="-106.442029050">
        <ele>2036.000</ele>
        <time>2019-03-29T18:12:42Z</time>
        <name>WPT.1164</name>
      </trkpt>
      <trkpt lat="35.087944280" lon="-106.441997200">
        <ele>2035.000</ele>
        <time>2019-03-29T18:12:48Z</time>
        <name>WPT.1165</name>
      </trkpt>
      <trkpt lat="35.087902250" lon="-106.441986900">
        <ele>2033.000</ele>
        <time>2019-03-29T18:12:53Z</time>
        <name>WPT.1166</name>
      </trkpt>
      <trkpt lat="35.087859390" lon="-106.441972490">
        <ele>2033.000</ele>
        <time>2019-03-29T18:12:59Z</time>
        <name>WPT.1167</name>
      </trkpt>
      <trkpt lat="35.087823240" lon="-106.441960320">
        <ele>2031.000</ele>
        <time>2019-03-29T18:13:04Z</time>
        <name>WPT.1168</name>
      </trkpt>
      <trkpt lat="35.087792350" lon="-106.441936400">
        <ele>2031.000</ele>
        <time>2019-03-29T18:13:08Z</time>
        <name>WPT.1169</name>
      </trkpt>
      <trkpt lat="35.087761980" lon="-106.441909240">
        <ele>2031.000</ele>
        <time>2019-03-29T18:13:12Z</time>
        <name>WPT.1170</name>
      </trkpt>
      <trkpt lat="35.087726230" lon="-106.441892750">
        <ele>2031.000</ele>
        <time>2019-03-29T18:13:16Z</time>
        <name>WPT.1171</name>
      </trkpt>
      <trkpt lat="35.087683610" lon="-106.441865490">
        <ele>2031.000</ele>
        <time>2019-03-29T18:13:21Z</time>
        <name>WPT.1172</name>
      </trkpt>
      <trkpt lat="35.087642080" lon="-106.441851280">
        <ele>2031.000</ele>
        <time>2019-03-29T18:13:25Z</time>
        <name>WPT.1173</name>
      </trkpt>
      <trkpt lat="35.087598810" lon="-106.441859720">
        <ele>2031.000</ele>
        <time>2019-03-29T18:13:31Z</time>
        <name>WPT.1174</name>
      </trkpt>
      <trkpt lat="35.087557940" lon="-106.441870330">
        <ele>2031.000</ele>
        <time>2019-03-29T18:13:37Z</time>
        <name>WPT.1175</name>
      </trkpt>
      <trkpt lat="35.087514080" lon="-106.441857110">
        <ele>2031.000</ele>
        <time>2019-03-29T18:13:43Z</time>
        <name>WPT.1176</name>
      </trkpt>
      <trkpt lat="35.087477530" lon="-106.441859860">
        <ele>2030.000</ele>
        <time>2019-03-29T18:13:47Z</time>
        <name>WPT.1177</name>
      </trkpt>
      <trkpt lat="35.087442030" lon="-106.441884310">
        <ele>2029.000</ele>
        <time>2019-03-29T18:13:51Z</time>
        <name>WPT.1178</name>
      </trkpt>
      <trkpt lat="35.087398240" lon="-106.441890530">
        <ele>2028.000</ele>
        <time>2019-03-29T18:13:56Z</time>
        <name>WPT.1179</name>
      </trkpt>
      <trkpt lat="35.087356830" lon="-106.441880420">
        <ele>2027.000</ele>
        <time>2019-03-29T18:14:03Z</time>
        <name>WPT.1180</name>
      </trkpt>
      <trkpt lat="35.087314550" lon="-106.441890690">
        <ele>2028.000</ele>
        <time>2019-03-29T18:14:08Z</time>
        <name>WPT.1181</name>
      </trkpt>
      <trkpt lat="35.087280190" lon="-106.441906920">
        <ele>2028.000</ele>
        <time>2019-03-29T18:14:13Z</time>
        <name>WPT.1182</name>
      </trkpt>
      <trkpt lat="35.087244040" lon="-106.441921480">
        <ele>2028.000</ele>
        <time>2019-03-29T18:14:18Z</time>
        <name>WPT.1183</name>
      </trkpt>
      <trkpt lat="35.087207770" lon="-106.441938470">
        <ele>2028.000</ele>
        <time>2019-03-29T18:14:22Z</time>
        <name>WPT.1184</name>
      </trkpt>
      <trkpt lat="35.087179900" lon="-106.441970400">
        <ele>2028.000</ele>
        <time>2019-03-29T18:14:26Z</time>
        <name>WPT.1185</name>
      </trkpt>
      <trkpt lat="35.087138090" lon="-106.441991120">
        <ele>2029.000</ele>
        <time>2019-03-29T18:15:00Z</time>
        <name>WPT.1186</name>
      </trkpt>
      <trkpt lat="35.087098270" lon="-106.442007000">
        <ele>2029.000</ele>
        <time>2019-03-29T18:15:04Z</time>
        <name>WPT.1187</name>
      </trkpt>
      <trkpt lat="35.087060530" lon="-106.442021390">
        <ele>2028.000</ele>
        <time>2019-03-29T18:15:09Z</time>
        <name>WPT.1188</name>
      </trkpt>
      <trkpt lat="35.087023490" lon="-106.442039570">
        <ele>2028.000</ele>
        <time>2019-03-29T18:15:19Z</time>
        <name>WPT.1189</name>
      </trkpt>
      <trkpt lat="35.086986330" lon="-106.442061960">
        <ele>2027.000</ele>
        <time>2019-03-29T18:15:24Z</time>
        <name>WPT.1190</name>
      </trkpt>
      <trkpt lat="35.086949810" lon="-106.442082930">
        <ele>2027.000</ele>
        <time>2019-03-29T18:15:29Z</time>
        <name>WPT.1191</name>
      </trkpt>
      <trkpt lat="35.086909930" lon="-106.442100770">
        <ele>2026.000</ele>
        <time>2019-03-29T18:15:35Z</time>
        <name>WPT.1192</name>
      </trkpt>
      <trkpt lat="35.086875510" lon="-106.442127100">
        <ele>2025.000</ele>
        <time>2019-03-29T18:15:39Z</time>
        <name>WPT.1193</name>
      </trkpt>
      <trkpt lat="35.086844960" lon="-106.442153830">
        <ele>2025.000</ele>
        <time>2019-03-29T18:15:43Z</time>
        <name>WPT.1194</name>
      </trkpt>
      <trkpt lat="35.086812450" lon="-106.442178480">
        <ele>2025.000</ele>
        <time>2019-03-29T18:15:47Z</time>
        <name>WPT.1195</name>
      </trkpt>
      <trkpt lat="35.086776210" lon="-106.442195260">
        <ele>2025.000</ele>
        <time>2019-03-29T18:15:51Z</time>
        <name>WPT.1196</name>
      </trkpt>
      <trkpt lat="35.086736070" lon="-106.442208940">
        <ele>2024.000</ele>
        <time>2019-03-29T18:15:55Z</time>
        <name>WPT.1197</name>
      </trkpt>
      <trkpt lat="35.086700380" lon="-106.442219630">
        <ele>2023.000</ele>
        <time>2019-03-29T18:15:59Z</time>
        <name>WPT.1198</name>
      </trkpt>
      <trkpt lat="35.086661990" lon="-106.442237690">
        <ele>2023.000</ele>
        <time>2019-03-29T18:16:04Z</time>
        <name>WPT.1199</name>
      </trkpt>
      <trkpt lat="35.086626230" lon="-106.442263880">
        <ele>2022.000</ele>
        <time>2019-03-29T18:16:09Z</time>
        <name>WPT.1200</name>
      </trkpt>
      <trkpt lat="35.086587790" lon="-106.442285570">
        <ele>2022.000</ele>
        <time>2019-03-29T18:16:14Z</time>
        <name>WPT.1201</name>
      </trkpt>
      <trkpt lat="35.086551950" lon="-106.442306910">
        <ele>2021.000</ele>
        <time>2019-03-29T18:16:18Z</time>
        <name>WPT.1202</name>
      </trkpt>
      <trkpt lat="35.086513450" lon="-106.442317620">
        <ele>2020.000</ele>
        <time>2019-03-29T18:16:22Z</time>
        <name>WPT.1203</name>
      </trkpt>
      <trkpt lat="35.086479340" lon="-106.442334230">
        <ele>2020.000</ele>
        <time>2019-03-29T18:16:25Z</time>
        <name>WPT.1204</name>
      </trkpt>
      <trkpt lat="35.086442570" lon="-106.442334460">
        <ele>2020.000</ele>
        <time>2019-03-29T18:16:29Z</time>
        <name>WPT.1205</name>
      </trkpt>
      <trkpt lat="35.086403540" lon="-106.442347800">
        <ele>2019.000</ele>
        <time>2019-03-29T18:16:33Z</time>
        <name>WPT.1206</name>
      </trkpt>
      <trkpt lat="35.086360290" lon="-106.442350250">
        <ele>2018.000</ele>
        <time>2019-03-29T18:16:37Z</time>
        <name>WPT.1207</name>
      </trkpt>
      <trkpt lat="35.086322910" lon="-106.442351890">
        <ele>2018.000</ele>
        <time>2019-03-29T18:16:41Z</time>
        <name>WPT.1208</name>
      </trkpt>
      <trkpt lat="35.086284410" lon="-106.442359560">
        <ele>2017.000</ele>
        <time>2019-03-29T18:16:46Z</time>
        <name>WPT.1209</name>
      </trkpt>
      <trkpt lat="35.086239380" lon="-106.442346700">
        <ele>2017.000</ele>
        <time>2019-03-29T18:16:51Z</time>
        <name>WPT.1210</name>
      </trkpt>
      <trkpt lat="35.086200400" lon="-106.442329700">
        <ele>2017.000</ele>
        <time>2019-03-29T18:16:55Z</time>
        <name>WPT.1211</name>
      </trkpt>
      <trkpt lat="35.086161290" lon="-106.442337960">
        <ele>2017.000</ele>
        <time>2019-03-29T18:16:59Z</time>
        <name>WPT.1212</name>
      </trkpt>
      <trkpt lat="35.086122020" lon="-106.442360890">
        <ele>2017.000</ele>
        <time>2019-03-29T18:17:14Z</time>
        <name>WPT.1213</name>
      </trkpt>
      <trkpt lat="35.086081830" lon="-106.442364810">
        <ele>2016.000</ele>
        <time>2019-03-29T18:17:19Z</time>
        <name>WPT.1214</name>
      </trkpt>
      <trkpt lat="35.086043980" lon="-106.442370690">
        <ele>2015.000</ele>
        <time>2019-03-29T18:17:23Z</time>
        <name>WPT.1215</name>
      </trkpt>
      <trkpt lat="35.086011630" lon="-106.442391860">
        <ele>2014.000</ele>
        <time>2019-03-29T18:17:27Z</time>
        <name>WPT.1216</name>
      </trkpt>
      <trkpt lat="35.085974670" lon="-106.442423850">
        <ele>2014.000</ele>
        <time>2019-03-29T18:17:31Z</time>
        <name>WPT.1217</name>
      </trkpt>
      <trkpt lat="35.085935310" lon="-106.442450640">
        <ele>2015.000</ele>
        <time>2019-03-29T18:17:36Z</time>
        <name>WPT.1218</name>
      </trkpt>
      <trkpt lat="35.085891010" lon="-106.442465450">
        <ele>2014.000</ele>
        <time>2019-03-29T18:17:41Z</time>
        <name>WPT.1219</name>
      </trkpt>
      <trkpt lat="35.085854140" lon="-106.442485510">
        <ele>2013.000</ele>
        <time>2019-03-29T18:17:45Z</time>
        <name>WPT.1220</name>
      </trkpt>
      <trkpt lat="35.085816330" lon="-106.442511190">
        <ele>2012.000</ele>
        <time>2019-03-29T18:17:49Z</time>
        <name>WPT.1221</name>
      </trkpt>
      <trkpt lat="35.085776200" lon="-106.442536790">
        <ele>2011.000</ele>
        <time>2019-03-29T18:17:53Z</time>
        <name>WPT.1222</name>
      </trkpt>
      <trkpt lat="35.085742410" lon="-106.442563790">
        <ele>2011.000</ele>
        <time>2019-03-29T18:17:58Z</time>
        <name>WPT.1223</name>
      </trkpt>
      <trkpt lat="35.085708970" lon="-106.442589900">
        <ele>2011.000</ele>
        <time>2019-03-29T18:18:02Z</time>
        <name>WPT.1224</name>
      </trkpt>
      <trkpt lat="35.085672470" lon="-106.442609970">
        <ele>2010.000</ele>
        <time>2019-03-29T18:18:06Z</time>
        <name>WPT.1225</name>
      </trkpt>
      <trkpt lat="35.085633440" lon="-106.442630980">
        <ele>2010.000</ele>
        <time>2019-03-29T18:18:11Z</time>
        <name>WPT.1226</name>
      </trkpt>
      <trkpt lat="35.085592230" lon="-106.442633120">
        <ele>2010.000</ele>
        <time>2019-03-29T18:18:16Z</time>
        <name>WPT.1227</name>
      </trkpt>
      <trkpt lat="35.085550390" lon="-106.442635910">
        <ele>2010.000</ele>
        <time>2019-03-29T18:18:20Z</time>
        <name>WPT.1228</name>
      </trkpt>
      <trkpt lat="35.085513800" lon="-106.442659910">
        <ele>2009.000</ele>
        <time>2019-03-29T18:18:24Z</time>
        <name>WPT.1229</name>
      </trkpt>
      <trkpt lat="35.085474570" lon="-106.442683480">
        <ele>2008.000</ele>
        <time>2019-03-29T18:18:29Z</time>
        <name>WPT.1230</name>
      </trkpt>
      <trkpt lat="35.085436370" lon="-106.442692880">
        <ele>2008.000</ele>
        <time>2019-03-29T18:18:33Z</time>
        <name>WPT.1231</name>
      </trkpt>
      <trkpt lat="35.085399590" lon="-106.442700800">
        <ele>2008.000</ele>
        <time>2019-03-29T18:18:38Z</time>
        <name>WPT.1232</name>
      </trkpt>
      <trkpt lat="35.085355050" lon="-106.442708520">
        <ele>2006.000</ele>
        <time>2019-03-29T18:19:11Z</time>
        <name>WPT.1233</name>
      </trkpt>
      <trkpt lat="35.085320430" lon="-106.442728590">
        <ele>2005.000</ele>
        <time>2019-03-29T18:19:14Z</time>
        <name>WPT.1234</name>
      </trkpt>
      <trkpt lat="35.085280400" lon="-106.442746360">
        <ele>2005.000</ele>
        <time>2019-03-29T18:19:18Z</time>
        <name>WPT.1235</name>
      </trkpt>
      <trkpt lat="35.085236680" lon="-106.442746820">
        <ele>2004.000</ele>
        <time>2019-03-29T18:19:22Z</time>
        <name>WPT.1236</name>
      </trkpt>
      <trkpt lat="35.085196230" lon="-106.442745120">
        <ele>2003.000</ele>
        <time>2019-03-29T18:19:26Z</time>
        <name>WPT.1237</name>
      </trkpt>
      <trkpt lat="35.085155270" lon="-106.442741680">
        <ele>2003.000</ele>
        <time>2019-03-29T18:19:30Z</time>
        <name>WPT.1238</name>
      </trkpt>
      <trkpt lat="35.085110050" lon="-106.442747400">
        <ele>2002.000</ele>
        <time>2019-03-29T18:19:34Z</time>
        <name>WPT.1239</name>
      </trkpt>
      <trkpt lat="35.085070340" lon="-106.442730590">
        <ele>2002.000</ele>
        <time>2019-03-29T18:19:38Z</time>
        <name>WPT.1240</name>
      </trkpt>
      <trkpt lat="35.085033970" lon="-106.442737350">
        <ele>2001.000</ele>
        <time>2019-03-29T18:19:42Z</time>
        <name>WPT.1241</name>
      </trkpt>
      <trkpt lat="35.084992100" lon="-106.442742050">
        <ele>2001.000</ele>
        <time>2019-03-29T18:19:46Z</time>
        <name>WPT.1242</name>
      </trkpt>
      <trkpt lat="35.084953940" lon="-106.442761860">
        <ele>2000.000</ele>
        <time>2019-03-29T18:19:53Z</time>
        <name>WPT.1243</name>
      </trkpt>
      <trkpt lat="35.084920060" lon="-106.442783550">
        <ele>1999.000</ele>
        <time>2019-03-29T18:19:57Z</time>
        <name>WPT.1244</name>
      </trkpt>
      <trkpt lat="35.084880760" lon="-106.442789820">
        <ele>1999.000</ele>
        <time>2019-03-29T18:20:01Z</time>
        <name>WPT.1245</name>
      </trkpt>
      <trkpt lat="35.084842380" lon="-106.442805420">
        <ele>2000.000</ele>
        <time>2019-03-29T18:20:05Z</time>
        <name>WPT.1246</name>
      </trkpt>
      <trkpt lat="35.084794150" lon="-106.442816760">
        <ele>2000.000</ele>
        <time>2019-03-29T18:20:09Z</time>
        <name>WPT.1247</name>
      </trkpt>
      <trkpt lat="35.084754070" lon="-106.442826360">
        <ele>2000.000</ele>
        <time>2019-03-29T18:20:13Z</time>
        <name>WPT.1248</name>
      </trkpt>
      <trkpt lat="35.084713590" lon="-106.442828580">
        <ele>2000.000</ele>
        <time>2019-03-29T18:20:17Z</time>
        <name>WPT.1249</name>
      </trkpt>
      <trkpt lat="35.084679130" lon="-106.442845860">
        <ele>1999.000</ele>
        <time>2019-03-29T18:20:20Z</time>
        <name>WPT.1250</name>
      </trkpt>
      <trkpt lat="35.084633960" lon="-106.442859190">
        <ele>1999.000</ele>
        <time>2019-03-29T18:20:24Z</time>
        <name>WPT.1251</name>
      </trkpt>
      <trkpt lat="35.084597340" lon="-106.442893260">
        <ele>1998.000</ele>
        <time>2019-03-29T18:20:29Z</time>
        <name>WPT.1252</name>
      </trkpt>
      <trkpt lat="35.084561870" lon="-106.442907450">
        <ele>1998.000</ele>
        <time>2019-03-29T18:20:33Z</time>
        <name>WPT.1253</name>
      </trkpt>
      <trkpt lat="35.084519070" lon="-106.442911280">
        <ele>1997.000</ele>
        <time>2019-03-29T18:20:38Z</time>
        <name>WPT.1254</name>
      </trkpt>
      <trkpt lat="35.084478400" lon="-106.442931060">
        <ele>1997.000</ele>
        <time>2019-03-29T18:20:42Z</time>
        <name>WPT.1255</name>
      </trkpt>
      <trkpt lat="35.084434880" lon="-106.442941640">
        <ele>1996.000</ele>
        <time>2019-03-29T18:20:46Z</time>
        <name>WPT.1256</name>
      </trkpt>
      <trkpt lat="35.084395940" lon="-106.442940760">
        <ele>1996.000</ele>
        <time>2019-03-29T18:20:50Z</time>
        <name>WPT.1257</name>
      </trkpt>
      <trkpt lat="35.084360560" lon="-106.442929270">
        <ele>1993.000</ele>
        <time>2019-03-29T18:21:19Z</time>
        <name>WPT.1258</name>
      </trkpt>
      <trkpt lat="35.084325040" lon="-106.442946340">
        <ele>1993.000</ele>
        <time>2019-03-29T18:21:23Z</time>
        <name>WPT.1259</name>
      </trkpt>
      <trkpt lat="35.084282510" lon="-106.442945780">
        <ele>1993.000</ele>
        <time>2019-03-29T18:21:27Z</time>
        <name>WPT.1260</name>
      </trkpt>
      <trkpt lat="35.084242930" lon="-106.442946560">
        <ele>1992.000</ele>
        <time>2019-03-29T18:21:31Z</time>
        <name>WPT.1261</name>
      </trkpt>
      <trkpt lat="35.084209740" lon="-106.442929250">
        <ele>1992.000</ele>
        <time>2019-03-29T18:21:34Z</time>
        <name>WPT.1262</name>
      </trkpt>
      <trkpt lat="35.084174370" lon="-106.442913810">
        <ele>1991.000</ele>
        <time>2019-03-29T18:21:37Z</time>
        <name>WPT.1263</name>
      </trkpt>
      <trkpt lat="35.084137270" lon="-106.442910840">
        <ele>1991.000</ele>
        <time>2019-03-29T18:21:40Z</time>
        <name>WPT.1264</name>
      </trkpt>
      <trkpt lat="35.084094810" lon="-106.442909930">
        <ele>1991.000</ele>
        <time>2019-03-29T18:21:44Z</time>
        <name>WPT.1265</name>
      </trkpt>
      <trkpt lat="35.084051970" lon="-106.442908840">
        <ele>1990.000</ele>
        <time>2019-03-29T18:21:48Z</time>
        <name>WPT.1266</name>
      </trkpt>
      <trkpt lat="35.084012120" lon="-106.442927310">
        <ele>1989.000</ele>
        <time>2019-03-29T18:21:52Z</time>
        <name>WPT.1267</name>
      </trkpt>
      <trkpt lat="35.083979180" lon="-106.442953600">
        <ele>1988.000</ele>
        <time>2019-03-29T18:21:55Z</time>
        <name>WPT.1268</name>
      </trkpt>
      <trkpt lat="35.083940160" lon="-106.442959320">
        <ele>1987.000</ele>
        <time>2019-03-29T18:21:59Z</time>
        <name>WPT.1269</name>
      </trkpt>
      <trkpt lat="35.083907570" lon="-106.442980070">
        <ele>1987.000</ele>
        <time>2019-03-29T18:22:09Z</time>
        <name>WPT.1270</name>
      </trkpt>
      <trkpt lat="35.083870390" lon="-106.442993970">
        <ele>1986.000</ele>
        <time>2019-03-29T18:22:12Z</time>
        <name>WPT.1271</name>
      </trkpt>
      <trkpt lat="35.083828420" lon="-106.443003300">
        <ele>1986.000</ele>
        <time>2019-03-29T18:22:16Z</time>
        <name>WPT.1272</name>
      </trkpt>
      <trkpt lat="35.083785380" lon="-106.443005250">
        <ele>1986.000</ele>
        <time>2019-03-29T18:22:20Z</time>
        <name>WPT.1273</name>
      </trkpt>
      <trkpt lat="35.083742710" lon="-106.442997010">
        <ele>1985.000</ele>
        <time>2019-03-29T18:22:23Z</time>
        <name>WPT.1274</name>
      </trkpt>
      <trkpt lat="35.083706050" lon="-106.442996030">
        <ele>1984.000</ele>
        <time>2019-03-29T18:22:26Z</time>
        <name>WPT.1275</name>
      </trkpt>
      <trkpt lat="35.083665100" lon="-106.442994000">
        <ele>1982.000</ele>
        <time>2019-03-29T18:22:30Z</time>
        <name>WPT.1276</name>
      </trkpt>
      <trkpt lat="35.083635580" lon="-106.443024790">
        <ele>1982.000</ele>
        <time>2019-03-29T18:22:33Z</time>
        <name>WPT.1277</name>
      </trkpt>
      <trkpt lat="35.083607560" lon="-106.443064220">
        <ele>1981.000</ele>
        <time>2019-03-29T18:22:37Z</time>
        <name>WPT.1278</name>
      </trkpt>
      <trkpt lat="35.083566160" lon="-106.443082990">
        <ele>1980.000</ele>
        <time>2019-03-29T18:22:42Z</time>
        <name>WPT.1279</name>
      </trkpt>
      <trkpt lat="35.083528570" lon="-106.443106420">
        <ele>1981.000</ele>
        <time>2019-03-29T18:22:55Z</time>
        <name>WPT.1280</name>
      </trkpt>
      <trkpt lat="35.083490630" lon="-106.443125780">
        <ele>1981.000</ele>
        <time>2019-03-29T18:22:58Z</time>
        <name>WPT.1281</name>
      </trkpt>
      <trkpt lat="35.083463280" lon="-106.443160060">
        <ele>1981.000</ele>
        <time>2019-03-29T18:23:01Z</time>
        <name>WPT.1282</name>
      </trkpt>
      <trkpt lat="35.083429660" lon="-106.443180850">
        <ele>1981.000</ele>
        <time>2019-03-29T18:23:04Z</time>
        <name>WPT.1283</name>
      </trkpt>
      <trkpt lat="35.083385060" lon="-106.443196160">
        <ele>1981.000</ele>
        <time>2019-03-29T18:23:08Z</time>
        <name>WPT.1284</name>
      </trkpt>
      <trkpt lat="35.083356500" lon="-106.443227040">
        <ele>1981.000</ele>
        <time>2019-03-29T18:23:11Z</time>
        <name>WPT.1285</name>
      </trkpt>
      <trkpt lat="35.083320400" lon="-106.443263190">
        <ele>1980.000</ele>
        <time>2019-03-29T18:23:15Z</time>
        <name>WPT.1286</name>
      </trkpt>
      <trkpt lat="35.083285000" lon="-106.443294570">
        <ele>1980.000</ele>
        <time>2019-03-29T18:23:19Z</time>
        <name>WPT.1287</name>
      </trkpt>
      <trkpt lat="35.083249090" lon="-106.443324160">
        <ele>1981.000</ele>
        <time>2019-03-29T18:23:22Z</time>
        <name>WPT.1288</name>
      </trkpt>
      <trkpt lat="35.083215050" lon="-106.443355650">
        <ele>1980.000</ele>
        <time>2019-03-29T18:23:26Z</time>
        <name>WPT.1289</name>
      </trkpt>
      <trkpt lat="35.083173320" lon="-106.443377280">
        <ele>1980.000</ele>
        <time>2019-03-29T18:23:30Z</time>
        <name>WPT.1290</name>
      </trkpt>
      <trkpt lat="35.083131300" lon="-106.443390150">
        <ele>1979.000</ele>
        <time>2019-03-29T18:23:34Z</time>
        <name>WPT.1291</name>
      </trkpt>
      <trkpt lat="35.083094300" lon="-106.443422470">
        <ele>1979.000</ele>
        <time>2019-03-29T18:23:38Z</time>
        <name>WPT.1292</name>
      </trkpt>
      <trkpt lat="35.083061470" lon="-106.443446290">
        <ele>1979.000</ele>
        <time>2019-03-29T18:23:42Z</time>
        <name>WPT.1293</name>
      </trkpt>
      <trkpt lat="35.083021160" lon="-106.443461520">
        <ele>1978.000</ele>
        <time>2019-03-29T18:23:46Z</time>
        <name>WPT.1294</name>
      </trkpt>
      <trkpt lat="35.082984870" lon="-106.443486190">
        <ele>1978.000</ele>
        <time>2019-03-29T18:23:50Z</time>
        <name>WPT.1295</name>
      </trkpt>
      <trkpt lat="35.082948850" lon="-106.443505020">
        <ele>1978.000</ele>
        <time>2019-03-29T18:23:54Z</time>
        <name>WPT.1296</name>
      </trkpt>
      <trkpt lat="35.082911670" lon="-106.443532970">
        <ele>1977.000</ele>
        <time>2019-03-29T18:23:59Z</time>
        <name>WPT.1297</name>
      </trkpt>
      <trkpt lat="35.082873470" lon="-106.443549930">
        <ele>1977.000</ele>
        <time>2019-03-29T18:24:04Z</time>
        <name>WPT.1298</name>
      </trkpt>
      <trkpt lat="35.082834600" lon="-106.443574100">
        <ele>1977.000</ele>
        <time>2019-03-29T18:24:08Z</time>
        <name>WPT.1299</name>
      </trkpt>
      <trkpt lat="35.082798760" lon="-106.443596040">
        <ele>1977.000</ele>
        <time>2019-03-29T18:24:12Z</time>
        <name>WPT.1300</name>
      </trkpt>
      <trkpt lat="35.082765660" lon="-106.443618560">
        <ele>1977.000</ele>
        <time>2019-03-29T18:24:16Z</time>
        <name>WPT.1301</name>
      </trkpt>
      <trkpt lat="35.082729310" lon="-106.443622570">
        <ele>1976.000</ele>
        <time>2019-03-29T18:24:20Z</time>
        <name>WPT.1302</name>
      </trkpt>
      <trkpt lat="35.082687120" lon="-106.443622010">
        <ele>1976.000</ele>
        <time>2019-03-29T18:24:25Z</time>
        <name>WPT.1303</name>
      </trkpt>
      <trkpt lat="35.082648910" lon="-106.443602400">
        <ele>1976.000</ele>
        <time>2019-03-29T18:24:29Z</time>
        <name>WPT.1304</name>
      </trkpt>
      <trkpt lat="35.082611560" lon="-106.443584830">
        <ele>1974.000</ele>
        <time>2019-03-29T18:24:35Z</time>
        <name>WPT.1305</name>
      </trkpt>
      <trkpt lat="35.082575180" lon="-106.443581800">
        <ele>1973.000</ele>
        <time>2019-03-29T18:24:41Z</time>
        <name>WPT.1306</name>
      </trkpt>
      <trkpt lat="35.082538540" lon="-106.443563530">
        <ele>1974.000</ele>
        <time>2019-03-29T18:25:01Z</time>
        <name>WPT.1307</name>
      </trkpt>
      <trkpt lat="35.082501530" lon="-106.443548290">
        <ele>1973.000</ele>
        <time>2019-03-29T18:25:04Z</time>
        <name>WPT.1308</name>
      </trkpt>
      <trkpt lat="35.082460440" lon="-106.443536610">
        <ele>1973.000</ele>
        <time>2019-03-29T18:25:07Z</time>
        <name>WPT.1309</name>
      </trkpt>
      <trkpt lat="35.082415850" lon="-106.443521300">
        <ele>1972.000</ele>
        <time>2019-03-29T18:25:11Z</time>
        <name>WPT.1310</name>
      </trkpt>
      <trkpt lat="35.082376620" lon="-106.443494990">
        <ele>1972.000</ele>
        <time>2019-03-29T18:25:21Z</time>
        <name>WPT.1311</name>
      </trkpt>
      <trkpt lat="35.082337220" lon="-106.443484710">
        <ele>1970.000</ele>
        <time>2019-03-29T18:25:25Z</time>
        <name>WPT.1312</name>
      </trkpt>
      <trkpt lat="35.082291690" lon="-106.443481610">
        <ele>1969.000</ele>
        <time>2019-03-29T18:25:29Z</time>
        <name>WPT.1313</name>
      </trkpt>
      <trkpt lat="35.082256720" lon="-106.443459610">
        <ele>1968.000</ele>
        <time>2019-03-29T18:25:34Z</time>
        <name>WPT.1314</name>
      </trkpt>
      <trkpt lat="35.082222680" lon="-106.443436210">
        <ele>1967.000</ele>
        <time>2019-03-29T18:25:38Z</time>
        <name>WPT.1315</name>
      </trkpt>
      <trkpt lat="35.082182990" lon="-106.443433240">
        <ele>1967.000</ele>
        <time>2019-03-29T18:25:42Z</time>
        <name>WPT.1316</name>
      </trkpt>
      <trkpt lat="35.082138720" lon="-106.443437730">
        <ele>1966.000</ele>
        <time>2019-03-29T18:25:47Z</time>
        <name>WPT.1317</name>
      </trkpt>
      <trkpt lat="35.082097370" lon="-106.443431760">
        <ele>1965.000</ele>
        <time>2019-03-29T18:25:51Z</time>
        <name>WPT.1318</name>
      </trkpt>
      <trkpt lat="35.082060760" lon="-106.443433170">
        <ele>1965.000</ele>
        <time>2019-03-29T18:25:55Z</time>
        <name>WPT.1319</name>
      </trkpt>
      <trkpt lat="35.082019440" lon="-106.443429390">
        <ele>1964.000</ele>
        <time>2019-03-29T18:25:59Z</time>
        <name>WPT.1320</name>
      </trkpt>
      <trkpt lat="35.081983040" lon="-106.443437940">
        <ele>1964.000</ele>
        <time>2019-03-29T18:26:04Z</time>
        <name>WPT.1321</name>
      </trkpt>
      <trkpt lat="35.081945000" lon="-106.443429400">
        <ele>1963.000</ele>
        <time>2019-03-29T18:26:08Z</time>
        <name>WPT.1322</name>
      </trkpt>
      <trkpt lat="35.081904580" lon="-106.443425460">
        <ele>1963.000</ele>
        <time>2019-03-29T18:26:12Z</time>
        <name>WPT.1323</name>
      </trkpt>
      <trkpt lat="35.081866200" lon="-106.443422470">
        <ele>1963.000</ele>
        <time>2019-03-29T18:26:15Z</time>
        <name>WPT.1324</name>
      </trkpt>
      <trkpt lat="35.081829020" lon="-106.443424630">
        <ele>1963.000</ele>
        <time>2019-03-29T18:26:19Z</time>
        <name>WPT.1325</name>
      </trkpt>
      <trkpt lat="35.081793080" lon="-106.443419390">
        <ele>1963.000</ele>
        <time>2019-03-29T18:26:23Z</time>
        <name>WPT.1326</name>
      </trkpt>
      <trkpt lat="35.081749860" lon="-106.443430940">
        <ele>1962.000</ele>
        <time>2019-03-29T18:26:28Z</time>
        <name>WPT.1327</name>
      </trkpt>
      <trkpt lat="35.081711930" lon="-106.443435380">
        <ele>1963.000</ele>
        <time>2019-03-29T18:26:32Z</time>
        <name>WPT.1328</name>
      </trkpt>
      <trkpt lat="35.081668390" lon="-106.443432040">
        <ele>1961.000</ele>
        <time>2019-03-29T18:26:37Z</time>
        <name>WPT.1329</name>
      </trkpt>
      <trkpt lat="35.081627530" lon="-106.443445080">
        <ele>1961.000</ele>
        <time>2019-03-29T18:26:43Z</time>
        <name>WPT.1330</name>
      </trkpt>
      <trkpt lat="35.081583910" lon="-106.443432420">
        <ele>1961.000</ele>
        <time>2019-03-29T18:26:47Z</time>
        <name>WPT.1331</name>
      </trkpt>
      <trkpt lat="35.081543350" lon="-106.443431400">
        <ele>1960.000</ele>
        <time>2019-03-29T18:26:51Z</time>
        <name>WPT.1332</name>
      </trkpt>
      <trkpt lat="35.081503610" lon="-106.443441830">
        <ele>1959.000</ele>
        <time>2019-03-29T18:26:55Z</time>
        <name>WPT.1333</name>
      </trkpt>
      <trkpt lat="35.081460960" lon="-106.443463890">
        <ele>1958.000</ele>
        <time>2019-03-29T18:26:59Z</time>
        <name>WPT.1334</name>
      </trkpt>
      <trkpt lat="35.081419450" lon="-106.443492210">
        <ele>1959.000</ele>
        <time>2019-03-29T18:27:03Z</time>
        <name>WPT.1335</name>
      </trkpt>
      <trkpt lat="35.081393530" lon="-106.443526370">
        <ele>1959.000</ele>
        <time>2019-03-29T18:27:07Z</time>
        <name>WPT.1336</name>
      </trkpt>
      <trkpt lat="35.081366120" lon="-106.443558930">
        <ele>1959.000</ele>
        <time>2019-03-29T18:27:11Z</time>
        <name>WPT.1337</name>
      </trkpt>
      <trkpt lat="35.081336830" lon="-106.443598170">
        <ele>1958.000</ele>
        <time>2019-03-29T18:27:15Z</time>
        <name>WPT.1338</name>
      </trkpt>
      <trkpt lat="35.081307810" lon="-106.443631430">
        <ele>1957.000</ele>
        <time>2019-03-29T18:27:19Z</time>
        <name>WPT.1339</name>
      </trkpt>
      <trkpt lat="35.081273530" lon="-106.443652030">
        <ele>1957.000</ele>
        <time>2019-03-29T18:27:23Z</time>
        <name>WPT.1340</name>
      </trkpt>
      <trkpt lat="35.081229360" lon="-106.443661970">
        <ele>1956.000</ele>
        <time>2019-03-29T18:27:28Z</time>
        <name>WPT.1341</name>
      </trkpt>
      <trkpt lat="35.081191330" lon="-106.443680280">
        <ele>1956.000</ele>
        <time>2019-03-29T18:27:32Z</time>
        <name>WPT.1342</name>
      </trkpt>
      <trkpt lat="35.081158970" lon="-106.443700150">
        <ele>1955.000</ele>
        <time>2019-03-29T18:27:36Z</time>
        <name>WPT.1343</name>
      </trkpt>
      <trkpt lat="35.081122690" lon="-106.443723510">
        <ele>1955.000</ele>
        <time>2019-03-29T18:27:46Z</time>
        <name>WPT.1344</name>
      </trkpt>
      <trkpt lat="35.081091410" lon="-106.443745780">
        <ele>1955.000</ele>
        <time>2019-03-29T18:27:54Z</time>
        <name>WPT.1345</name>
      </trkpt>
      <trkpt lat="35.081056000" lon="-106.443765340">
        <ele>1954.000</ele>
        <time>2019-03-29T18:28:01Z</time>
        <name>WPT.1346</name>
      </trkpt>
      <trkpt lat="35.081018420" lon="-106.443778110">
        <ele>1954.000</ele>
        <time>2019-03-29T18:28:41Z</time>
        <name>WPT.1347</name>
      </trkpt>
      <trkpt lat="35.080979450" lon="-106.443770850">
        <ele>1954.000</ele>
        <time>2019-03-29T18:28:45Z</time>
        <name>WPT.1348</name>
      </trkpt>
      <trkpt lat="35.080940460" lon="-106.443764000">
        <ele>1953.000</ele>
        <time>2019-03-29T18:28:49Z</time>
        <name>WPT.1349</name>
      </trkpt>
      <trkpt lat="35.080903910" lon="-106.443776450">
        <ele>1954.000</ele>
        <time>2019-03-29T18:29:19Z</time>
        <name>WPT.1350</name>
      </trkpt>
      <trkpt lat="35.080857110" lon="-106.443769890">
        <ele>1953.000</ele>
        <time>2019-03-29T18:29:24Z</time>
        <name>WPT.1351</name>
      </trkpt>
      <trkpt lat="35.080817790" lon="-106.443773160">
        <ele>1951.000</ele>
        <time>2019-03-29T18:29:30Z</time>
        <name>WPT.1352</name>
      </trkpt>
      <trkpt lat="35.080778280" lon="-106.443764290">
        <ele>1950.000</ele>
        <time>2019-03-29T18:29:37Z</time>
        <name>WPT.1353</name>
      </trkpt>
      <trkpt lat="35.080745600" lon="-106.443785740">
        <ele>1951.000</ele>
        <time>2019-03-29T18:29:45Z</time>
        <name>WPT.1354</name>
      </trkpt>
      <trkpt lat="35.080709990" lon="-106.443797800">
        <ele>1951.000</ele>
        <time>2019-03-29T18:32:53Z</time>
        <name>WPT.1355</name>
      </trkpt>
      <trkpt lat="35.080676830" lon="-106.443823190">
        <ele>1949.000</ele>
        <time>2019-03-29T18:33:09Z</time>
        <name>WPT.1356</name>
      </trkpt>
      <trkpt lat="35.080640850" lon="-106.443834160">
        <ele>1949.000</ele>
        <time>2019-03-29T18:33:13Z</time>
        <name>WPT.1357</name>
      </trkpt>
      <trkpt lat="35.080607820" lon="-106.443852920">
        <ele>1950.000</ele>
        <time>2019-03-29T18:33:17Z</time>
        <name>WPT.1358</name>
      </trkpt>
      <trkpt lat="35.080569940" lon="-106.443880700">
        <ele>1950.000</ele>
        <time>2019-03-29T18:33:22Z</time>
        <name>WPT.1359</name>
      </trkpt>
      <trkpt lat="35.080539710" lon="-106.443905470">
        <ele>1951.000</ele>
        <time>2019-03-29T18:33:26Z</time>
        <name>WPT.1360</name>
      </trkpt>
      <trkpt lat="35.080500270" lon="-106.443924160">
        <ele>1952.000</ele>
        <time>2019-03-29T18:33:30Z</time>
        <name>WPT.1361</name>
      </trkpt>
      <trkpt lat="35.080468990" lon="-106.443961140">
        <ele>1951.000</ele>
        <time>2019-03-29T18:33:34Z</time>
        <name>WPT.1362</name>
      </trkpt>
      <trkpt lat="35.080437170" lon="-106.443989230">
        <ele>1951.000</ele>
        <time>2019-03-29T18:33:38Z</time>
        <name>WPT.1363</name>
      </trkpt>
      <trkpt lat="35.080407860" lon="-106.444017770">
        <ele>1950.000</ele>
        <time>2019-03-29T18:33:42Z</time>
        <name>WPT.1364</name>
      </trkpt>
      <trkpt lat="35.080381280" lon="-106.444057360">
        <ele>1949.000</ele>
        <time>2019-03-29T18:33:46Z</time>
        <name>WPT.1365</name>
      </trkpt>
      <trkpt lat="35.080352740" lon="-106.444088780">
        <ele>1948.000</ele>
        <time>2019-03-29T18:33:50Z</time>
        <name>WPT.1366</name>
      </trkpt>
      <trkpt lat="35.080316170" lon="-106.444110510">
        <ele>1948.000</ele>
        <time>2019-03-29T18:33:54Z</time>
        <name>WPT.1367</name>
      </trkpt>
      <trkpt lat="35.080283640" lon="-106.444141980">
        <ele>1948.000</ele>
        <time>2019-03-29T18:33:58Z</time>
        <name>WPT.1368</name>
      </trkpt>
      <trkpt lat="35.080246410" lon="-106.444166410">
        <ele>1948.000</ele>
        <time>2019-03-29T18:34:03Z</time>
        <name>WPT.1369</name>
      </trkpt>
      <trkpt lat="35.080209030" lon="-106.444185650">
        <ele>1948.000</ele>
        <time>2019-03-29T18:34:07Z</time>
        <name>WPT.1370</name>
      </trkpt>
      <trkpt lat="35.080176110" lon="-106.444207050">
        <ele>1947.000</ele>
        <time>2019-03-29T18:34:11Z</time>
        <name>WPT.1371</name>
      </trkpt>
      <trkpt lat="35.080138990" lon="-106.444240790">
        <ele>1946.000</ele>
        <time>2019-03-29T18:34:15Z</time>
        <name>WPT.1372</name>
      </trkpt>
      <trkpt lat="35.080101260" lon="-106.444271240">
        <ele>1946.000</ele>
        <time>2019-03-29T18:34:19Z</time>
        <name>WPT.1373</name>
      </trkpt>
      <trkpt lat="35.080064590" lon="-106.444287930">
        <ele>1945.000</ele>
        <time>2019-03-29T18:34:23Z</time>
        <name>WPT.1374</name>
      </trkpt>
      <trkpt lat="35.080028750" lon="-106.444302490">
        <ele>1945.000</ele>
        <time>2019-03-29T18:34:27Z</time>
        <name>WPT.1375</name>
      </trkpt>
      <trkpt lat="35.079985640" lon="-106.444314740">
        <ele>1944.000</ele>
        <time>2019-03-29T18:34:31Z</time>
        <name>WPT.1376</name>
      </trkpt>
      <trkpt lat="35.079950290" lon="-106.444333440">
        <ele>1944.000</ele>
        <time>2019-03-29T18:34:35Z</time>
        <name>WPT.1377</name>
      </trkpt>
      <trkpt lat="35.079913190" lon="-106.444342570">
        <ele>1943.000</ele>
        <time>2019-03-29T18:34:40Z</time>
        <name>WPT.1378</name>
      </trkpt>
      <trkpt lat="35.079876670" lon="-106.444357430">
        <ele>1943.000</ele>
        <time>2019-03-29T18:34:44Z</time>
        <name>WPT.1379</name>
      </trkpt>
      <trkpt lat="35.079832710" lon="-106.444373910">
        <ele>1942.000</ele>
        <time>2019-03-29T18:34:49Z</time>
        <name>WPT.1380</name>
      </trkpt>
      <trkpt lat="35.079793630" lon="-106.444395370">
        <ele>1943.000</ele>
        <time>2019-03-29T18:34:53Z</time>
        <name>WPT.1381</name>
      </trkpt>
      <trkpt lat="35.079754560" lon="-106.444411760">
        <ele>1942.000</ele>
        <time>2019-03-29T18:34:57Z</time>
        <name>WPT.1382</name>
      </trkpt>
      <trkpt lat="35.079719170" lon="-106.444440770">
        <ele>1942.000</ele>
        <time>2019-03-29T18:35:01Z</time>
        <name>WPT.1383</name>
      </trkpt>
      <trkpt lat="35.079677590" lon="-106.444449120">
        <ele>1942.000</ele>
        <time>2019-03-29T18:35:07Z</time>
        <name>WPT.1384</name>
      </trkpt>
      <trkpt lat="35.079634810" lon="-106.444449390">
        <ele>1942.000</ele>
        <time>2019-03-29T18:35:11Z</time>
        <name>WPT.1385</name>
      </trkpt>
      <trkpt lat="35.079595610" lon="-106.444448780">
        <ele>1941.000</ele>
        <time>2019-03-29T18:35:15Z</time>
        <name>WPT.1386</name>
      </trkpt>
      <trkpt lat="35.079555220" lon="-106.444438140">
        <ele>1940.000</ele>
        <time>2019-03-29T18:35:19Z</time>
        <name>WPT.1387</name>
      </trkpt>
      <trkpt lat="35.079515920" lon="-106.444423450">
        <ele>1941.000</ele>
        <time>2019-03-29T18:35:23Z</time>
        <name>WPT.1388</name>
      </trkpt>
      <trkpt lat="35.079485730" lon="-106.444397750">
        <ele>1942.000</ele>
        <time>2019-03-29T18:35:27Z</time>
        <name>WPT.1389</name>
      </trkpt>
      <trkpt lat="35.079446470" lon="-106.444379880">
        <ele>1940.000</ele>
        <time>2019-03-29T18:35:33Z</time>
        <name>WPT.1390</name>
      </trkpt>
      <trkpt lat="35.079408990" lon="-106.444357890">
        <ele>1938.000</ele>
        <time>2019-03-29T18:35:37Z</time>
        <name>WPT.1391</name>
      </trkpt>
      <trkpt lat="35.079369300" lon="-106.444339490">
        <ele>1937.000</ele>
        <time>2019-03-29T18:35:41Z</time>
        <name>WPT.1392</name>
      </trkpt>
      <trkpt lat="35.079331660" lon="-106.444321990">
        <ele>1937.000</ele>
        <time>2019-03-29T18:35:45Z</time>
        <name>WPT.1393</name>
      </trkpt>
      <trkpt lat="35.079289470" lon="-106.444326350">
        <ele>1936.000</ele>
        <time>2019-03-29T18:35:49Z</time>
        <name>WPT.1394</name>
      </trkpt>
      <trkpt lat="35.079247580" lon="-106.444342020">
        <ele>1936.000</ele>
        <time>2019-03-29T18:35:53Z</time>
        <name>WPT.1395</name>
      </trkpt>
      <trkpt lat="35.079212290" lon="-106.444364470">
        <ele>1935.000</ele>
        <time>2019-03-29T18:35:57Z</time>
        <name>WPT.1396</name>
      </trkpt>
      <trkpt lat="35.079177710" lon="-106.444386770">
        <ele>1935.000</ele>
        <time>2019-03-29T18:36:02Z</time>
        <name>WPT.1397</name>
      </trkpt>
      <trkpt lat="35.079146330" lon="-106.444414240">
        <ele>1935.000</ele>
        <time>2019-03-29T18:36:06Z</time>
        <name>WPT.1398</name>
      </trkpt>
      <trkpt lat="35.079107090" lon="-106.444445730">
        <ele>1934.000</ele>
        <time>2019-03-29T18:36:10Z</time>
        <name>WPT.1399</name>
      </trkpt>
      <trkpt lat="35.079069130" lon="-106.444448100">
        <ele>1933.000</ele>
        <time>2019-03-29T18:36:14Z</time>
        <name>WPT.1400</name>
      </trkpt>
      <trkpt lat="35.079032030" lon="-106.444461910">
        <ele>1933.000</ele>
        <time>2019-03-29T18:36:18Z</time>
        <name>WPT.1401</name>
      </trkpt>
      <trkpt lat="35.078989950" lon="-106.444486070">
        <ele>1933.000</ele>
        <time>2019-03-29T18:36:23Z</time>
        <name>WPT.1402</name>
      </trkpt>
      <trkpt lat="35.078953210" lon="-106.444499000">
        <ele>1932.000</ele>
        <time>2019-03-29T18:36:27Z</time>
        <name>WPT.1403</name>
      </trkpt>
      <trkpt lat="35.078913450" lon="-106.444502500">
        <ele>1931.000</ele>
        <time>2019-03-29T18:36:31Z</time>
        <name>WPT.1404</name>
      </trkpt>
      <trkpt lat="35.078873520" lon="-106.444506600">
        <ele>1930.000</ele>
        <time>2019-03-29T18:36:37Z</time>
        <name>WPT.1405</name>
      </trkpt>
      <trkpt lat="35.078832440" lon="-106.444517100">
        <ele>1929.000</ele>
        <time>2019-03-29T18:36:42Z</time>
        <name>WPT.1406</name>
      </trkpt>
      <trkpt lat="35.078789440" lon="-106.444517150">
        <ele>1930.000</ele>
        <time>2019-03-29T18:36:47Z</time>
        <name>WPT.1407</name>
      </trkpt>
      <trkpt lat="35.078750820" lon="-106.444520190">
        <ele>1929.000</ele>
        <time>2019-03-29T18:36:51Z</time>
        <name>WPT.1408</name>
      </trkpt>
      <trkpt lat="35.078713680" lon="-106.444512000">
        <ele>1928.000</ele>
        <time>2019-03-29T18:36:55Z</time>
        <name>WPT.1409</name>
      </trkpt>
      <trkpt lat="35.078673240" lon="-106.444509040">
        <ele>1928.000</ele>
        <time>2019-03-29T18:36:59Z</time>
        <name>WPT.1410</name>
      </trkpt>
      <trkpt lat="35.078633160" lon="-106.444517360">
        <ele>1928.000</ele>
        <time>2019-03-29T18:37:03Z</time>
        <name>WPT.1411</name>
      </trkpt>
      <trkpt lat="35.078596020" lon="-106.444528490">
        <ele>1927.000</ele>
        <time>2019-03-29T18:37:07Z</time>
        <name>WPT.1412</name>
      </trkpt>
      <trkpt lat="35.078548030" lon="-106.444538930">
        <ele>1926.000</ele>
        <time>2019-03-29T18:37:12Z</time>
        <name>WPT.1413</name>
      </trkpt>
      <trkpt lat="35.078505540" lon="-106.444545710">
        <ele>1927.000</ele>
        <time>2019-03-29T18:37:16Z</time>
        <name>WPT.1414</name>
      </trkpt>
      <trkpt lat="35.078466440" lon="-106.444552520">
        <ele>1925.000</ele>
        <time>2019-03-29T18:37:20Z</time>
        <name>WPT.1415</name>
      </trkpt>
      <trkpt lat="35.078420530" lon="-106.444556180">
        <ele>1925.000</ele>
        <time>2019-03-29T18:37:24Z</time>
        <name>WPT.1416</name>
      </trkpt>
      <trkpt lat="35.078378260" lon="-106.444564730">
        <ele>1926.000</ele>
        <time>2019-03-29T18:37:28Z</time>
        <name>WPT.1417</name>
      </trkpt>
      <trkpt lat="35.078337280" lon="-106.444566320">
        <ele>1926.000</ele>
        <time>2019-03-29T18:37:32Z</time>
        <name>WPT.1418</name>
      </trkpt>
      <trkpt lat="35.078294550" lon="-106.444570930">
        <ele>1926.000</ele>
        <time>2019-03-29T18:37:36Z</time>
        <name>WPT.1419</name>
      </trkpt>
      <trkpt lat="35.078253600" lon="-106.444571830">
        <ele>1924.000</ele>
        <time>2019-03-29T18:37:41Z</time>
        <name>WPT.1420</name>
      </trkpt>
      <trkpt lat="35.078211660" lon="-106.444576540">
        <ele>1923.000</ele>
        <time>2019-03-29T18:37:45Z</time>
        <name>WPT.1421</name>
      </trkpt>
      <trkpt lat="35.078171720" lon="-106.444582970">
        <ele>1924.000</ele>
        <time>2019-03-29T18:37:48Z</time>
        <name>WPT.1422</name>
      </trkpt>
      <trkpt lat="35.078129810" lon="-106.444598220">
        <ele>1924.000</ele>
        <time>2019-03-29T18:37:52Z</time>
        <name>WPT.1423</name>
      </trkpt>
      <trkpt lat="35.078084510" lon="-106.444607320">
        <ele>1924.000</ele>
        <time>2019-03-29T18:37:56Z</time>
        <name>WPT.1424</name>
      </trkpt>
      <trkpt lat="35.078044680" lon="-106.444612750">
        <ele>1923.000</ele>
        <time>2019-03-29T18:38:00Z</time>
        <name>WPT.1425</name>
      </trkpt>
      <trkpt lat="35.078009300" lon="-106.444626140">
        <ele>1923.000</ele>
        <time>2019-03-29T18:38:04Z</time>
        <name>WPT.1426</name>
      </trkpt>
      <trkpt lat="35.077973690" lon="-106.444634630">
        <ele>1922.000</ele>
        <time>2019-03-29T18:38:08Z</time>
        <name>WPT.1427</name>
      </trkpt>
      <trkpt lat="35.077930940" lon="-106.444628780">
        <ele>1923.000</ele>
        <time>2019-03-29T18:38:12Z</time>
        <name>WPT.1428</name>
      </trkpt>
      <trkpt lat="35.077892810" lon="-106.444640720">
        <ele>1922.000</ele>
        <time>2019-03-29T18:38:16Z</time>
        <name>WPT.1429</name>
      </trkpt>
      <trkpt lat="35.077855500" lon="-106.444646810">
        <ele>1921.000</ele>
        <time>2019-03-29T18:38:20Z</time>
        <name>WPT.1430</name>
      </trkpt>
      <trkpt lat="35.077813400" lon="-106.444667190">
        <ele>1920.000</ele>
        <time>2019-03-29T18:38:25Z</time>
        <name>WPT.1431</name>
      </trkpt>
      <trkpt lat="35.077775130" lon="-106.444661770">
        <ele>1918.000</ele>
        <time>2019-03-29T18:38:30Z</time>
        <name>WPT.1432</name>
      </trkpt>
      <trkpt lat="35.077744210" lon="-106.444633560">
        <ele>1918.000</ele>
        <time>2019-03-29T18:38:35Z</time>
        <name>WPT.1433</name>
      </trkpt>
      <trkpt lat="35.077715600" lon="-106.444606350">
        <ele>1918.000</ele>
        <time>2019-03-29T18:38:45Z</time>
        <name>WPT.1434</name>
      </trkpt>
      <trkpt lat="35.077685330" lon="-106.444573410">
        <ele>1917.000</ele>
        <time>2019-03-29T18:38:49Z</time>
        <name>WPT.1435</name>
      </trkpt>
      <trkpt lat="35.077659760" lon="-106.444532250">
        <ele>1916.000</ele>
        <time>2019-03-29T18:38:53Z</time>
        <name>WPT.1436</name>
      </trkpt>
      <trkpt lat="35.077628170" lon="-106.444494770">
        <ele>1915.000</ele>
        <time>2019-03-29T18:38:58Z</time>
        <name>WPT.1437</name>
      </trkpt>
      <trkpt lat="35.077597540" lon="-106.444465560">
        <ele>1914.000</ele>
        <time>2019-03-29T18:39:03Z</time>
        <name>WPT.1438</name>
      </trkpt>
      <trkpt lat="35.077559960" lon="-106.444436860">
        <ele>1913.000</ele>
        <time>2019-03-29T18:39:08Z</time>
        <name>WPT.1439</name>
      </trkpt>
      <trkpt lat="35.077528480" lon="-106.444414500">
        <ele>1912.000</ele>
        <time>2019-03-29T18:39:13Z</time>
        <name>WPT.1440</name>
      </trkpt>
      <trkpt lat="35.077499260" lon="-106.444380130">
        <ele>1913.000</ele>
        <time>2019-03-29T18:39:18Z</time>
        <name>WPT.1441</name>
      </trkpt>
      <trkpt lat="35.077478990" lon="-106.444338260">
        <ele>1912.000</ele>
        <time>2019-03-29T18:39:25Z</time>
        <name>WPT.1442</name>
      </trkpt>
      <trkpt lat="35.077466910" lon="-106.444292910">
        <ele>1910.000</ele>
        <time>2019-03-29T18:39:30Z</time>
        <name>WPT.1443</name>
      </trkpt>
      <trkpt lat="35.077434860" lon="-106.444263560">
        <ele>1910.000</ele>
        <time>2019-03-29T18:39:35Z</time>
        <name>WPT.1444</name>
      </trkpt>
      <trkpt lat="35.077396190" lon="-106.444267430">
        <ele>1909.000</ele>
        <time>2019-03-29T18:39:41Z</time>
        <name>WPT.1445</name>
      </trkpt>
      <trkpt lat="35.077365060" lon="-106.444290210">
        <ele>1910.000</ele>
        <time>2019-03-29T18:39:48Z</time>
        <name>WPT.1446</name>
      </trkpt>
      <trkpt lat="35.077328420" lon="-106.444299730">
        <ele>1911.000</ele>
        <time>2019-03-29T18:39:52Z</time>
        <name>WPT.1447</name>
      </trkpt>
      <trkpt lat="35.077288350" lon="-106.444305440">
        <ele>1910.000</ele>
        <time>2019-03-29T18:39:57Z</time>
        <name>WPT.1448</name>
      </trkpt>
      <trkpt lat="35.077250910" lon="-106.444306790">
        <ele>1910.000</ele>
        <time>2019-03-29T18:40:02Z</time>
        <name>WPT.1449</name>
      </trkpt>
      <trkpt lat="35.077208990" lon="-106.444300510">
        <ele>1910.000</ele>
        <time>2019-03-29T18:40:08Z</time>
        <name>WPT.1450</name>
      </trkpt>
      <trkpt lat="35.077175670" lon="-106.444281570">
        <ele>1909.000</ele>
        <time>2019-03-29T18:40:13Z</time>
        <name>WPT.1451</name>
      </trkpt>
      <trkpt lat="35.077136940" lon="-106.444260910">
        <ele>1909.000</ele>
        <time>2019-03-29T18:40:18Z</time>
        <name>WPT.1452</name>
      </trkpt>
      <trkpt lat="35.077093130" lon="-106.444239080">
        <ele>1910.000</ele>
        <time>2019-03-29T18:40:22Z</time>
        <name>WPT.1453</name>
      </trkpt>
      <trkpt lat="35.077053370" lon="-106.444223190">
        <ele>1910.000</ele>
        <time>2019-03-29T18:40:27Z</time>
        <name>WPT.1454</name>
      </trkpt>
      <trkpt lat="35.077018530" lon="-106.444209590">
        <ele>1910.000</ele>
        <time>2019-03-29T18:40:31Z</time>
        <name>WPT.1455</name>
      </trkpt>
      <trkpt lat="35.076987600" lon="-106.444185080">
        <ele>1909.000</ele>
        <time>2019-03-29T18:40:37Z</time>
        <name>WPT.1456</name>
      </trkpt>
      <trkpt lat="35.076956710" lon="-106.444158690">
        <ele>1908.000</ele>
        <time>2019-03-29T18:40:45Z</time>
        <name>WPT.1457</name>
      </trkpt>
      <trkpt lat="35.076920560" lon="-106.444151470">
        <ele>1909.000</ele>
        <time>2019-03-29T18:42:11Z</time>
        <name>WPT.1458</name>
      </trkpt>
      <trkpt lat="35.076874750" lon="-106.444154100">
        <ele>1907.000</ele>
        <time>2019-03-29T18:42:15Z</time>
        <name>WPT.1459</name>
      </trkpt>
      <trkpt lat="35.076829750" lon="-106.444160160">
        <ele>1906.000</ele>
        <time>2019-03-29T18:42:19Z</time>
        <name>WPT.1460</name>
      </trkpt>
      <trkpt lat="35.076787870" lon="-106.444160790">
        <ele>1906.000</ele>
        <time>2019-03-29T18:42:23Z</time>
        <name>WPT.1461</name>
      </trkpt>
      <trkpt lat="35.076748530" lon="-106.444169860">
        <ele>1906.000</ele>
        <time>2019-03-29T18:42:55Z</time>
        <name>WPT.1462</name>
      </trkpt>
      <trkpt lat="35.076705570" lon="-106.444176150">
        <ele>1905.000</ele>
        <time>2019-03-29T18:43:00Z</time>
        <name>WPT.1463</name>
      </trkpt>
      <trkpt lat="35.076665110" lon="-106.444187840">
        <ele>1905.000</ele>
        <time>2019-03-29T18:43:04Z</time>
        <name>WPT.1464</name>
      </trkpt>
      <trkpt lat="35.076625030" lon="-106.444191820">
        <ele>1905.000</ele>
        <time>2019-03-29T18:43:08Z</time>
        <name>WPT.1465</name>
      </trkpt>
      <trkpt lat="35.076583040" lon="-106.444197610">
        <ele>1904.000</ele>
        <time>2019-03-29T18:43:12Z</time>
        <name>WPT.1466</name>
      </trkpt>
      <trkpt lat="35.076545180" lon="-106.444190080">
        <ele>1904.000</ele>
        <time>2019-03-29T18:43:16Z</time>
        <name>WPT.1467</name>
      </trkpt>
      <trkpt lat="35.076502480" lon="-106.444186760">
        <ele>1904.000</ele>
        <time>2019-03-29T18:43:20Z</time>
        <name>WPT.1468</name>
      </trkpt>
      <trkpt lat="35.076465170" lon="-106.444165980">
        <ele>1904.000</ele>
        <time>2019-03-29T18:43:26Z</time>
        <name>WPT.1469</name>
      </trkpt>
      <trkpt lat="35.076426220" lon="-106.444148930">
        <ele>1904.000</ele>
        <time>2019-03-29T18:43:31Z</time>
        <name>WPT.1470</name>
      </trkpt>
      <trkpt lat="35.076390770" lon="-106.444134450">
        <ele>1904.000</ele>
        <time>2019-03-29T18:43:35Z</time>
        <name>WPT.1471</name>
      </trkpt>
      <trkpt lat="35.076373910" lon="-106.444087800">
        <ele>1903.000</ele>
        <time>2019-03-29T18:43:43Z</time>
        <name>WPT.1472</name>
      </trkpt>
      <trkpt lat="35.076364670" lon="-106.444076880">
        <ele>1902.000</ele>
        <time>2019-03-29T18:44:10Z</time>
        <name>WPT.1473</name>
      </trkpt>
    </trkseg>
  </trk>
</gpx>
